GFSSGP_sfc_thetae_000.txt.gz
Theta_e
357 358 358 349 323 319 315 318 326 325 327 334 335 332 333 335 330 325 350 355 355 354 358 360 367 369 368 368 368 368 367 368 369 369 368 368 368 367 367 368 367 367 365 364 364 364 364 363 363
357 353 353 337 315 312 316 322 321 325 333 338 337 335 333 331 341 342 348 357 358 356 358 360 364 367 368 369 369 369 366 368 369 369 368 369 368 368 367 365 365 366 365 364 363 363 364 362 362
355 354 341 322 317 311 315 324 327 331 333 329 332 338 334 334 342 345 354 358 358 358 360 364 366 369 369 368 369 368 368 368 368 368 368 368 367 367 365 364 365 364 364 363 363 363 362 361 361
353 348 340 319 316 321 323 327 330 328 330 332 332 331 340 347 345 350 357 357 358 361 364 363 366 369 369 370 368 366 366 369 369 369 368 367 365 365 365 364 364 364 363 363 362 362 360 359 359
352 341 319 317 320 324 327 328 327 324 325 328 331 329 336 347 351 354 356 357 357 359 363 364 368 369 368 371 367 368 366 366 368 367 365 365 364 364 363 362 362 362 362 361 361 361 360 359 359
336 334 316 314 320 326 330 331 327 327 330 331 331 333 339 350 349 353 355 355 358 359 362 364 365 368 369 368 367 370 369 367 368 367 364 364 364 363 363 361 362 361 360 359 359 359 359 359 360
330 324 316 317 321 324 328 333 327 326 328 329 336 330 339 345 350 353 354 356 355 358 359 364 364 366 367 368 367 368 369 367 367 366 364 364 364 364 362 362 360 359 358 358 359 360 359 359 360
335 326 316 318 316 321 331 331 332 330 330 339 339 329 334 344 351 352 353 354 356 356 358 361 363 363 365 364 366 365 365 366 364 364 364 364 364 363 363 362 362 360 360 361 362 363 360 360 359
333 319 314 315 317 325 333 329 336 338 337 340 341 337 345 348 350 349 350 351 354 354 358 360 361 363 364 363 363 365 364 364 363 362 363 362 358 361 361 363 361 360 361 362 362 363 363 361 361
324 318 316 323 324 327 330 331 334 334 337 339 340 346 348 347 347 345 345 346 350 353 355 357 359 361 363 360 365 363 361 358 359 360 363 360 361 363 362 363 361 362 363 363 363 361 361 358 355
321 317 325 328 330 332 331 332 334 331 330 338 338 342 344 344 345 344 345 346 348 353 354 356 360 362 361 360 360 360 360 359 360 365 364 363 361 361 360 358 359 359 361 356 358 357 356 353 354
318 329 330 332 333 331 329 333 335 336 336 344 344 345 345 343 342 342 344 346 348 352 354 358 361 363 363 361 359 359 358 359 358 359 366 366 359 359 358 356 357 358 356 356 356 356 357 357 355
324 330 333 334 332 331 330 330 335 337 343 346 346 346 345 344 344 345 346 347 350 351 354 357 361 362 363 364 359 358 358 357 357 358 360 361 358 357 357 359 357 355 356 357 358 356 356 356 353
329 331 331 331 328 328 326 329 330 340 345 344 344 344 346 345 346 346 345 346 349 351 352 357 360 363 364 367 366 365 360 361 358 357 358 363 361 358 356 358 355 355 356 360 358 362 356 355 354
332 327 330 329 331 326 327 324 328 341 344 342 342 345 346 347 349 349 351 351 353 354 356 357 360 362 362 363 365 363 360 358 357 357 361 362 364 361 363 357 355 358 358 358 357 359 357 355 354
324 324 319 327 330 328 331 318 331 339 339 339 341 343 345 347 348 352 354 355 357 358 360 362 361 360 362 364 367 364 360 359 357 355 356 360 362 363 363 354 355 357 358 354 353 358 353 355 352
320 313 315 321 330 328 327 321 331 336 335 336 339 342 343 346 349 351 353 356 357 357 360 362 363 361 361 364 363 362 363 359 359 358 361 362 363 363 363 361 354 359 354 353 351 353 353 355 355
310 312 315 315 324 327 323 325 329 333 332 333 336 339 341 342 345 351 353 355 358 360 363 363 362 364 366 364 365 369 368 372 371 368 360 363 362 361 362 357 358 358 353 351 351 355 354 352 351
313 312 313 317 323 323 322 326 326 330 332 330 332 337 339 340 345 349 353 355 356 357 360 361 362 364 363 361 360 359 357 360 361 360 362 363 363 363 363 363 359 363 359 356 357 356 352 349 352
312 311 311 318 322 323 325 325 329 330 328 331 332 335 337 341 343 348 351 353 354 356 359 361 363 365 365 362 366 362 360 356 357 362 361 359 358 358 357 357 354 355 351 355 355 356 351 348 353
312 311 311 313 322 325 325 323 328 331 333 334 336 337 340 341 342 345 348 351 353 355 358 360 363 364 366 364 360 355 351 352 346 349 347 353 354 354 354 354 353 354 353 349 352 353 350 346 348
310 315 314 314 319 311 324 308 325 329 331 333 334 338 339 342 344 345 346 349 351 354 359 365 367 365 360 355 351 349 340 339 343 344 345 349 350 351 351 352 352 353 351 350 350 350 350 350 345
312 319 317 317 318 317 320 313 316 328 327 329 333 335 337 341 343 344 344 347 350 357 359 360 359 355 353 351 348 340 342 340 342 341 344 347 348 349 348 350 349 350 348 350 348 348 349 350 347
321 320 319 319 314 307 311 312 310 316 324 328 333 336 338 340 343 345 346 349 353 354 352 349 351 351 350 345 344 344 342 341 338 340 339 338 340 343 347 346 346 347 346 346 347 348 348 350 350
317 313 305 303 303 302 312 310 311 317 326 328 330 336 339 340 341 343 347 349 349 350 346 345 348 349 349 341 340 340 340 341 342 341 336 339 336 337 340 342 342 341 344 344 345 348 347 345 347
313 311 305 298 299 303 312 304 311 323 326 328 332 336 339 339 340 343 348 348 349 347 345 344 347 347 344 341 343 345 344 337 338 340 339 336 335 336 340 340 341 341 342 342 343 341 341 345 346
312 308 313 306 307 303 306 312 318 324 324 326 331 335 338 337 339 342 346 347 347 343 344 345 347 346 343 341 345 345 345 344 341 343 343 338 341 337 337 339 340 340 341 342 342 339 340 340 342
315 317 307 308 300 299 304 305 309 315 318 325 327 332 338 336 338 341 343 345 343 342 344 345 346 345 343 342 343 339 340 342 341 341 341 341 342 341 340 340 339 339 340 340 341 340 340 340 340
311 311 312 312 308 302 301 306 317 316 318 320 328 333 338 335 336 340 343 345 341 342 342 343 343 343 342 342 341 341 340 339 339 338 340 341 342 342 341 341 341 340 339 339 339 338 336 336 336
316 313 313 307 307 308 306 305 319 319 320 322 325 333 337 339 334 335 342 344 339 340 338 339 340 339 339 340 339 339 340 340 339 338 339 340 340 341 341 341 341 340 339 340 339 336 336 334 333

GFSSGP_sfc_thetae_003.txt.gz
Theta_e
357 360 356 349 323 320 315 317 324 323 326 332 335 332 333 335 328 326 349 352 353 353 357 359 367 366 366 368 368 367 368 367 368 369 367 367 364 364 365 366 365 366 364 364 364 363 364 363 364
359 354 353 340 317 312 313 320 320 326 332 334 333 335 334 332 341 345 347 355 356 354 356 359 367 367 365 367 368 369 368 367 367 369 367 367 364 365 366 365 365 365 364 363 363 364 363 361 361
358 354 343 322 316 312 314 322 325 328 329 332 330 336 336 335 343 348 355 357 357 357 362 364 366 368 366 367 367 369 369 367 366 368 367 365 364 362 365 365 364 364 364 363 363 362 361 359 358
353 350 332 318 314 318 321 325 326 325 328 331 333 331 341 346 346 352 357 358 359 359 361 366 367 368 369 368 367 366 369 367 366 366 365 364 362 364 363 364 363 363 363 363 362 361 360 359 358
353 341 320 318 315 321 325 326 326 325 326 327 332 331 336 346 352 355 357 357 357 359 360 363 369 369 369 367 367 367 369 367 367 364 364 364 365 364 363 362 362 362 362 361 360 359 359 358 359
338 330 316 314 317 324 326 327 327 327 328 330 331 334 337 349 349 354 356 356 358 357 360 362 367 369 370 367 367 367 367 366 365 364 364 364 364 363 362 361 361 360 359 358 359 358 358 358 359
332 321 316 317 319 322 326 329 326 327 328 329 335 332 339 344 349 351 355 353 354 357 361 362 363 364 367 367 368 369 368 366 365 364 364 364 364 363 362 361 360 358 358 358 358 358 357 358 359
332 325 315 319 317 320 328 328 331 330 329 337 338 329 333 343 349 350 354 352 356 358 359 364 364 363 364 364 365 367 367 366 364 364 363 364 363 363 363 363 362 359 358 360 361 361 360 359 359
334 319 314 317 318 323 330 329 335 339 334 335 337 336 343 346 348 348 350 353 353 356 358 359 358 360 368 364 365 366 366 365 364 363 362 361 357 361 362 365 359 359 360 360 361 361 361 361 361
325 318 317 323 325 325 329 331 334 336 338 335 337 341 345 346 346 344 344 348 349 352 355 356 358 360 364 359 364 364 361 359 359 359 365 359 365 367 360 362 362 362 362 362 362 362 361 359 354
323 317 322 324 327 329 328 327 331 328 333 336 336 338 342 344 344 344 344 346 348 352 352 353 360 360 359 365 359 359 358 358 359 363 367 364 360 364 359 357 362 360 361 356 359 361 358 356 351
320 324 326 326 327 328 326 331 331 337 338 342 341 341 342 342 343 343 343 346 349 352 353 356 360 363 361 361 356 358 357 355 356 359 365 362 355 364 360 356 359 360 354 355 356 354 355 353 354
324 325 327 327 329 328 329 330 335 336 341 342 342 342 341 341 342 344 345 347 349 350 353 355 360 363 364 365 357 358 357 353 355 356 360 357 362 361 358 359 355 357 354 356 358 359 355 356 353
326 326 326 327 326 327 327 329 336 338 342 341 342 342 342 342 342 344 344 345 348 350 352 355 358 364 366 365 366 362 355 360 358 359 360 364 357 366 357 360 355 359 356 357 356 360 356 355 353
326 322 324 325 327 324 327 323 330 341 341 340 342 343 345 346 347 345 345 345 348 350 352 356 361 364 364 366 367 368 358 354 356 358 363 358 361 362 364 358 355 355 357 360 358 357 359 353 352
321 322 317 324 325 327 321 319 331 339 340 339 341 343 344 347 347 350 350 350 351 353 356 359 356 361 363 364 365 363 359 357 360 354 354 357 361 368 366 354 352 356 357 356 355 354 352 351 352
319 314 315 319 325 326 320 321 331 335 335 336 339 340 341 343 345 349 351 352 355 357 359 359 360 359 363 366 365 363 367 358 357 362 360 363 363 362 364 356 354 359 354 352 352 352 351 351 350
313 314 316 317 322 322 320 320 330 332 331 333 336 338 338 340 343 347 350 353 355 356 359 361 360 363 363 369 367 365 369 360 360 360 360 366 368 363 366 364 360 362 359 358 355 356 354 351 350
317 314 315 317 322 321 320 322 327 331 330 330 333 336 337 338 343 346 349 352 354 357 360 361 362 367 366 366 363 367 357 363 360 369 363 363 363 363 363 362 359 362 356 358 358 355 355 351 354
313 313 314 318 321 320 319 322 326 329 330 330 331 333 334 336 340 345 349 351 352 355 358 361 363 367 366 363 367 365 360 354 353 356 360 361 357 361 356 357 354 358 348 358 354 354 348 348 349
313 311 312 313 318 320 319 318 324 327 329 331 331 333 335 336 336 341 345 348 349 354 358 361 365 366 368 367 366 360 357 355 347 347 348 351 352 351 354 354 353 354 353 343 351 351 350 344 350
310 315 314 313 314 310 318 308 321 327 324 326 330 331 333 335 336 337 340 343 346 351 357 362 365 367 363 359 354 354 343 338 343 342 343 347 348 349 350 351 350 352 350 351 350 348 349 348 343
313 317 314 314 313 313 313 311 318 319 325 326 327 331 334 336 337 337 336 342 345 351 354 360 364 359 356 352 350 341 344 337 337 339 344 350 352 348 347 349 350 350 347 351 349 348 350 350 346
319 317 316 316 313 306 313 311 312 320 326 329 331 329 332 336 337 340 340 343 346 351 355 357 355 356 354 349 347 344 342 341 337 339 338 338 338 340 346 345 347 348 347 346 345 347 347 349 350
317 313 306 304 304 305 313 310 313 318 323 323 328 332 333 335 337 339 341 343 348 350 352 350 352 352 351 345 341 339 341 343 343 343 337 340 336 336 342 344 344 342 345 344 347 348 345 344 344
313 313 306 300 302 305 312 306 310 318 323 327 329 332 335 337 338 339 342 345 349 349 350 346 350 351 349 344 346 346 345 338 338 340 340 337 337 337 343 343 342 343 343 343 346 342 340 346 343
313 309 315 308 309 306 309 312 317 322 321 324 326 329 335 337 339 339 342 348 347 349 347 346 350 352 347 343 349 347 346 345 343 345 344 339 343 339 340 341 342 343 342 342 344 338 341 341 344
316 317 308 309 301 301 306 307 309 317 318 321 323 326 332 338 340 340 341 347 347 348 345 344 347 348 346 345 346 341 340 343 344 343 343 343 343 343 342 341 341 342 342 344 345 341 342 342 337
312 312 313 313 311 304 302 307 318 317 319 319 322 325 331 337 340 339 342 346 347 346 343 340 344 345 345 344 344 342 341 341 342 340 340 342 344 344 342 341 340 341 341 342 343 341 340 338 339
316 313 313 307 308 309 308 307 319 319 320 321 322 325 331 339 342 340 342 344 345 342 341 339 339 340 342 342 342 341 341 341 340 340 340 342 341 343 342 341 341 340 340 343 340 338 338 337 335

GFSSGP_sfc_thetae_006.txt.gz
Theta_e
357 357 358 348 328 319 312 314 323 322 324 330 334 332 324 331 327 322 347 352 353 352 355 360 368 368 366 366 366 367 366 368 368 368 367 367 367 369 368 368 368 368 366 365 364 364 364 363 362
352 357 350 341 317 309 311 320 319 323 327 333 334 335 334 330 339 342 345 352 353 352 355 357 367 368 368 366 367 367 367 368 368 368 367 368 368 368 368 367 366 366 365 364 364 363 361 360 360
349 354 340 324 316 310 312 320 322 325 329 330 330 336 335 335 343 345 351 353 355 358 360 363 368 368 367 368 369 369 369 368 368 368 367 367 366 364 365 364 364 364 364 363 363 361 360 359 357
351 343 340 316 312 317 317 321 323 325 328 333 333 329 339 347 346 350 353 355 357 358 359 366 368 368 368 368 368 369 368 368 369 368 368 366 365 365 364 364 364 363 363 362 362 360 359 358 357
351 338 320 315 316 319 322 323 324 323 325 329 333 329 334 348 353 354 355 355 354 356 359 363 370 371 370 369 369 369 369 368 367 367 365 366 366 364 364 364 363 361 361 360 359 358 357 357 358
331 334 316 313 316 320 321 324 325 325 328 330 331 332 335 348 349 353 356 356 356 355 358 360 368 369 368 369 368 370 368 367 367 367 366 366 364 363 362 361 361 360 358 357 357 357 356 356 358
326 323 317 317 317 316 320 325 324 325 327 330 335 329 336 342 347 353 355 355 357 357 359 362 361 365 368 370 368 368 368 367 366 366 365 364 363 363 362 361 360 357 357 357 358 359 358 360 360
333 328 316 318 319 316 323 325 327 328 327 337 338 328 330 340 348 350 353 353 355 357 359 362 363 362 364 363 369 367 368 367 365 364 363 363 364 364 362 361 363 359 358 358 360 361 362 363 364
336 319 315 316 318 322 329 326 330 333 331 334 337 336 340 343 347 347 350 352 354 354 356 357 359 364 367 363 362 368 366 367 364 363 363 364 359 358 346 342 354 363 361 360 362 363 365 364 364
323 316 317 322 324 323 322 326 330 330 331 331 331 339 342 343 343 345 343 345 348 352 354 357 358 360 363 357 364 365 363 361 362 361 364 361 362 362 355 345 354 363 362 364 363 363 365 360 355
322 316 321 325 327 328 323 330 332 331 327 332 331 336 339 341 341 341 345 345 349 353 352 354 363 365 363 360 362 363 361 360 360 367 368 369 368 352 362 353 356 364 365 358 363 360 359 356 354
319 325 324 324 328 326 325 331 327 329 329 338 336 339 339 339 339 340 341 343 348 350 353 357 358 362 364 358 360 361 360 361 353 362 368 369 362 367 365 361 363 364 357 363 362 357 361 358 359
321 323 324 327 327 327 330 329 329 325 336 337 337 338 338 339 340 341 342 344 349 349 352 358 362 364 370 361 368 357 357 355 360 362 363 363 365 364 363 364 362 362 362 357 360 361 358 357 356
325 324 323 326 324 327 326 329 331 335 338 336 336 337 338 339 340 342 342 344 347 350 351 356 361 368 369 369 371 371 359 356 366 363 358 364 360 363 362 359 360 363 357 363 360 361 358 357 356
325 320 323 323 325 325 326 324 327 336 338 336 337 338 339 340 341 341 343 345 349 349 352 357 359 364 366 368 371 371 365 357 362 359 365 365 365 367 365 361 359 358 363 364 362 359 357 355 354
320 320 314 323 325 324 325 319 331 336 336 336 337 338 340 342 343 344 344 346 348 351 355 355 353 361 365 367 367 366 363 361 365 366 360 363 366 367 363 360 357 359 361 357 359 357 353 354 352
318 312 315 318 325 322 322 320 331 335 334 333 336 337 339 341 345 347 349 350 354 358 359 356 359 361 365 367 368 366 368 364 368 362 365 362 368 366 364 359 360 361 356 355 353 352 354 349 348
312 313 316 316 321 324 321 321 328 331 331 331 333 335 337 338 339 347 350 350 353 356 356 359 359 368 364 367 370 369 368 363 364 366 363 365 367 365 363 360 359 358 356 354 353 351 351 351 350
318 315 315 318 324 322 320 321 325 327 329 331 332 333 334 335 343 346 350 353 353 355 362 359 360 373 371 365 361 363 359 365 363 366 366 366 367 364 363 361 359 358 354 355 355 354 350 347 351
315 313 313 318 321 321 321 320 325 326 327 330 332 333 334 336 338 342 345 346 348 356 361 365 367 369 370 371 369 366 366 364 363 361 365 364 360 359 362 363 356 354 351 352 352 353 347 346 347
314 311 312 314 318 319 317 318 318 325 328 329 331 334 335 335 336 341 344 346 349 353 358 363 367 367 370 371 371 367 365 365 358 360 351 354 353 355 359 358 357 355 354 346 348 349 345 341 347
309 314 314 313 313 308 317 306 318 322 323 326 328 330 332 334 337 339 342 346 348 353 359 364 368 370 370 370 366 362 354 345 355 355 353 351 354 354 354 355 355 355 351 349 349 347 346 346 340
311 316 313 313 311 310 311 308 315 323 320 322 326 329 331 333 335 336 339 343 346 353 354 362 368 368 365 363 360 355 353 346 348 348 351 354 352 354 351 355 354 351 349 348 347 347 346 344 342
316 316 314 313 310 304 309 310 311 317 324 323 325 328 331 332 335 337 340 343 344 350 354 360 363 362 362 358 356 353 351 350 346 348 346 345 347 348 352 349 351 351 348 347 345 347 346 344 343
315 312 305 303 303 302 312 309 315 322 324 327 328 329 331 334 336 338 338 340 344 348 353 358 358 357 357 355 353 349 349 352 351 349 347 349 343 346 348 351 352 347 348 347 346 344 343 343 341
312 312 305 301 301 304 313 307 314 322 327 331 333 333 332 332 337 339 342 342 346 350 355 354 355 354 354 353 354 352 354 350 349 353 347 345 344 346 351 349 349 348 348 347 347 343 343 344 342
312 309 314 308 309 305 308 313 317 320 319 320 323 324 330 331 334 338 342 343 348 350 353 354 354 355 353 351 356 354 354 353 351 353 353 346 352 343 345 347 347 347 347 346 346 342 341 343 341
314 316 307 308 302 301 305 307 308 318 318 320 320 321 327 334 335 337 339 344 350 351 353 352 354 355 351 351 351 350 352 351 352 352 350 350 350 350 348 346 345 345 345 346 344 342 340 339 339
312 311 312 311 309 303 301 305 319 322 321 319 321 323 325 327 334 340 341 346 351 349 350 348 350 352 349 349 351 352 347 347 350 348 347 349 351 351 348 347 344 343 342 344 342 342 340 336 339
315 313 313 307 308 310 309 306 320 320 320 320 322 323 327 331 335 342 342 347 349 348 347 345 344 346 347 348 351 350 349 349 349 348 347 350 349 350 348 346 344 341 341 342 339 339 338 337 335

GFSSGP_sfc_thetae_009.txt.gz
Theta_e
359 357 355 345 328 319 310 316 324 321 323 330 333 326 328 333 326 318 346 349 352 354 359 360 366 367 367 368 366 365 366 368 368 368 369 369 369 369 369 369 369 368 367 364 364 364 364 363 362
351 348 348 337 318 306 307 316 315 325 330 334 332 334 332 328 338 341 343 350 352 354 358 361 365 366 367 367 366 368 367 368 368 368 368 369 369 368 368 365 365 367 365 363 363 362 362 361 360
351 348 336 329 309 307 307 316 320 329 333 333 332 336 334 332 341 343 348 351 352 353 359 362 368 368 368 367 367 369 368 369 368 368 369 368 368 366 364 364 364 364 365 363 362 361 361 360 359
335 337 336 313 306 312 314 320 324 327 331 334 337 331 340 345 343 348 355 356 354 355 360 367 369 369 370 370 370 370 369 369 369 368 367 367 367 365 364 364 363 363 363 362 361 361 360 359 359
345 333 318 308 311 315 318 321 324 325 328 334 337 331 334 345 349 351 353 355 353 355 360 363 369 369 369 370 370 369 369 368 369 367 367 367 368 365 364 363 362 361 361 360 359 358 358 358 358
323 324 315 307 311 315 318 324 326 328 330 334 336 335 336 347 347 349 353 353 355 355 360 363 369 370 370 368 367 370 368 367 367 367 369 368 367 366 365 362 361 358 357 357 357 361 361 360 360
323 322 314 312 311 313 318 326 324 326 328 330 341 332 337 344 349 351 352 353 354 355 357 361 362 365 369 369 369 367 368 367 368 368 368 367 365 363 363 362 361 359 359 359 359 363 363 363 363
330 321 315 317 313 311 321 323 327 328 327 338 338 329 329 343 351 353 352 352 352 354 356 356 358 360 362 363 368 366 367 366 368 367 365 366 364 361 358 356 360 362 362 361 362 364 363 366 365
333 316 313 315 316 316 325 322 329 334 331 334 335 335 338 348 351 349 349 350 350 353 354 354 354 356 357 360 364 368 367 368 367 365 366 364 356 345 345 354 354 358 364 363 364 363 362 365 362
325 317 314 322 323 320 327 329 329 328 329 330 332 337 342 344 345 344 346 345 346 348 352 354 355 356 357 358 359 359 360 359 357 357 356 355 352 350 352 352 352 357 364 366 366 362 364 363 353
327 317 323 323 325 328 326 328 331 330 324 329 329 332 336 341 343 344 345 346 346 348 349 350 352 354 355 355 355 356 355 355 356 355 355 355 356 350 354 348 353 353 359 355 358 357 356 355 352
317 324 325 325 328 327 323 326 322 327 328 335 335 336 336 335 339 340 340 342 346 347 349 353 356 355 354 357 355 355 355 354 352 355 356 353 352 351 351 350 350 351 351 353 349 347 352 350 350
317 319 323 325 326 327 329 323 323 325 329 337 337 337 335 334 335 338 339 343 341 346 351 353 353 357 354 352 356 352 354 355 353 354 355 356 352 350 349 350 348 350 351 348 350 350 349 350 351
322 319 322 322 325 328 327 323 324 326 332 334 334 334 335 335 335 336 338 341 342 343 351 354 353 358 355 355 355 356 355 348 354 353 354 356 355 354 351 349 349 352 349 353 350 349 349 348 349
322 315 319 321 323 325 329 323 326 331 332 331 332 334 335 336 338 336 339 340 341 342 352 353 355 357 354 354 356 357 355 354 347 351 353 349 349 352 351 348 349 349 351 351 351 351 351 349 349
315 313 307 318 321 325 325 316 328 332 331 329 332 334 335 335 337 339 341 341 343 342 348 353 357 357 355 355 357 356 355 353 353 355 353 354 356 351 351 348 348 350 350 348 347 347 345 345 345
310 304 310 314 319 319 319 319 328 333 332 331 332 334 336 336 338 339 343 342 343 349 349 348 351 354 356 357 357 356 357 354 354 352 356 356 358 356 351 350 351 351 348 346 346 346 343 342 343
304 306 312 312 317 318 317 320 326 330 331 331 333 335 336 337 338 342 343 346 348 351 349 351 350 354 358 355 355 356 353 352 353 355 350 352 353 354 349 348 348 348 347 345 345 342 343 343 342
313 311 312 317 319 317 315 320 324 327 327 326 327 330 332 335 341 344 345 347 350 349 350 351 352 356 353 351 349 350 345 350 351 352 354 353 353 353 350 348 348 345 345 344 345 343 341 338 341
310 313 311 316 320 317 315 317 322 324 324 327 328 328 330 331 340 343 344 344 347 348 351 351 353 355 353 354 354 353 352 352 352 353 354 352 352 353 353 348 342 341 341 338 336 338 335 337 339
308 305 309 312 319 320 317 313 317 324 325 328 330 330 331 333 336 341 343 344 347 350 352 353 355 354 355 353 356 353 352 349 344 343 344 342 341 344 343 342 340 341 340 337 338 337 336 332 336
300 311 310 310 313 305 316 303 312 317 317 324 328 329 329 332 333 335 336 337 348 351 354 357 355 354 356 356 351 347 342 327 337 338 338 337 342 339 339 339 341 339 338 337 337 340 335 334 331
306 311 308 308 303 302 307 300 309 315 313 319 323 328 330 332 333 335 337 339 345 351 352 356 355 357 354 341 341 335 327 329 333 334 332 329 333 338 342 342 339 338 336 336 336 335 334 334 332
313 307 307 304 299 293 300 301 305 311 315 319 323 327 329 331 334 336 339 341 345 349 354 356 355 347 346 337 334 330 327 328 329 330 329 331 331 333 340 339 335 336 336 335 334 335 334 332 331
307 302 295 293 293 293 300 300 305 317 321 320 321 324 324 331 333 334 336 338 343 347 351 356 348 343 341 337 337 332 330 330 328 329 331 330 329 333 334 334 335 332 333 334 334 332 332 332 330
303 302 297 292 293 298 306 300 306 322 324 325 325 324 325 324 331 333 334 336 342 346 352 351 345 343 340 339 334 331 332 330 332 337 333 329 328 331 334 333 335 334 335 335 334 331 330 332 330
304 300 305 298 301 296 301 306 314 319 319 323 324 323 323 324 329 332 334 335 341 345 350 348 345 344 341 339 336 334 334 334 335 334 333 331 335 333 334 334 333 334 335 335 332 331 330 329 329
307 309 299 297 292 291 298 304 303 308 311 314 322 321 323 324 330 332 334 337 341 347 348 347 346 343 343 340 339 339 338 336 335 334 332 332 331 334 333 334 334 333 333 333 332 329 330 328 328
304 302 303 301 299 293 294 299 311 313 313 312 313 319 322 325 327 332 337 338 342 347 347 345 345 344 341 341 339 339 339 337 336 334 332 333 334 335 334 334 333 332 332 333 332 330 330 329 328
307 304 304 298 296 299 299 302 316 316 315 315 317 319 319 323 327 332 334 336 342 344 344 344 345 343 340 340 340 336 331 332 334 333 332 333 333 334 334 333 333 333 332 331 330 328 330 328 327

GFSSGP_sfc_thetae_012.txt.gz
Theta_e
365 358 353 343 324 314 311 317 321 321 321 331 333 329 328 332 324 317 344 351 355 356 358 361 366 367 366 367 365 366 368 368 369 369 369 369 367 367 368 367 366 366 364 363 364 363 362 361 360
354 353 348 336 316 303 306 320 320 323 327 332 333 334 331 329 338 340 343 352 356 356 358 360 366 367 366 366 367 368 367 366 368 369 369 368 368 368 365 364 364 364 363 363 362 361 360 359 359
351 347 335 326 310 306 312 321 324 327 331 332 331 336 333 331 340 342 348 353 356 356 358 359 367 368 366 367 368 368 368 367 368 368 368 368 366 364 365 364 363 363 363 362 361 360 360 358 358
343 336 330 313 305 316 320 326 329 328 330 336 336 330 338 344 343 346 350 353 355 356 358 365 367 366 366 368 368 368 367 367 367 367 365 365 364 363 364 363 363 363 362 361 360 360 359 357 357
340 327 313 305 308 319 325 329 329 329 332 333 335 330 333 344 351 351 351 353 352 356 360 362 366 367 367 368 369 369 367 366 366 366 365 366 365 363 364 363 362 361 360 360 359 357 356 356 356
322 322 312 304 308 317 324 328 331 333 334 334 333 332 333 347 349 351 353 352 355 356 359 361 366 366 367 368 367 368 366 365 366 366 366 366 364 364 363 361 361 360 359 358 357 357 356 357 357
322 317 311 312 312 317 324 330 331 332 333 333 338 329 335 342 349 352 352 353 356 359 360 360 361 363 367 369 366 366 365 364 365 366 365 365 363 361 361 360 360 359 358 357 358 360 361 360 360
326 321 312 310 310 311 324 324 331 333 333 342 341 330 330 340 348 351 351 352 353 356 358 359 359 360 361 363 367 364 365 364 364 364 364 363 362 361 360 356 361 361 361 360 360 361 361 362 362
330 313 311 314 314 314 322 324 331 337 336 337 339 338 342 347 349 348 347 348 350 354 355 356 356 358 359 360 362 367 365 365 365 363 363 365 356 352 344 350 356 358 361 360 363 362 360 362 361
323 315 316 321 321 319 325 326 327 329 331 331 334 341 346 348 346 344 344 344 346 348 350 353 355 357 357 362 359 359 359 358 357 356 355 355 352 349 349 352 357 356 357 362 363 361 362 360 354
323 318 321 322 324 327 325 327 331 328 325 330 331 339 343 345 344 344 345 345 346 349 351 350 352 354 354 355 355 355 356 355 354 353 353 352 352 349 352 349 348 349 356 353 355 354 353 352 351
318 323 324 324 330 324 323 326 320 328 329 335 340 343 343 342 342 344 343 345 345 347 349 351 352 353 353 355 355 355 354 353 352 352 352 351 350 347 345 348 347 348 349 349 347 347 349 349 350
319 321 326 328 326 324 325 321 322 327 333 335 338 340 340 341 342 346 346 346 347 345 347 351 353 353 352 353 353 353 354 353 352 352 352 353 352 348 347 348 347 346 348 345 347 348 347 346 346
323 323 323 327 325 324 320 321 324 329 334 333 333 334 336 339 339 337 341 343 344 346 349 353 353 352 351 350 352 351 351 355 352 353 352 353 353 352 346 347 345 348 348 349 349 347 346 346 347
324 318 323 325 326 326 327 322 322 329 333 331 332 332 333 334 336 337 341 339 342 348 351 351 352 353 351 353 352 353 353 351 347 351 352 354 353 350 351 345 345 345 347 348 348 347 346 345 346
314 315 308 318 326 327 325 316 325 330 329 328 331 332 333 333 335 338 340 339 341 347 348 351 354 353 350 351 353 354 354 351 349 349 350 352 351 350 349 344 345 347 347 347 343 343 343 342 342
306 303 309 313 321 323 321 318 325 328 328 327 329 331 332 333 334 337 340 340 340 345 349 351 351 351 352 353 354 354 353 352 351 349 351 353 355 355 349 346 347 347 343 342 343 342 341 339 340
301 305 311 310 316 319 320 319 325 327 327 327 328 330 331 332 333 337 339 342 340 343 347 350 350 352 353 353 353 353 352 351 350 351 350 352 349 351 350 349 345 345 343 342 341 339 339 340 339
307 310 309 314 317 319 319 320 324 327 327 327 328 329 331 332 335 338 340 341 343 345 343 346 347 351 351 349 346 345 344 345 348 349 351 350 350 351 347 344 345 344 341 339 337 338 337 336 337
305 308 310 313 317 314 318 319 324 327 327 329 329 331 332 334 335 338 340 343 344 344 343 346 348 351 350 349 347 348 347 346 348 349 351 351 350 350 350 345 341 339 337 334 334 333 331 333 335
304 309 311 309 315 315 318 313 316 324 327 326 331 333 334 335 335 337 339 341 344 343 346 346 350 349 349 350 350 349 348 346 340 339 341 342 344 345 340 339 337 337 335 333 334 334 331 328 331
298 309 314 314 311 304 314 303 311 318 319 320 325 329 331 335 337 339 339 339 343 346 349 349 350 350 351 349 349 345 339 335 333 334 332 334 338 337 336 337 338 336 335 333 333 335 332 330 326
304 309 307 314 310 305 309 303 312 313 313 316 320 326 328 336 338 339 340 340 345 348 350 351 349 349 351 349 346 341 329 328 331 332 329 326 329 335 339 339 336 333 332 331 332 330 330 330 328
311 305 302 300 297 294 305 305 299 310 314 316 319 327 328 334 338 340 342 341 345 348 351 352 348 348 348 338 335 327 326 326 327 326 323 328 325 335 336 335 332 333 332 331 330 331 329 328 328
304 296 291 291 290 290 295 305 308 315 319 319 318 326 328 332 334 337 337 339 345 346 349 352 348 345 341 333 330 326 326 325 325 324 327 326 330 330 331 331 332 329 330 330 330 329 327 328 327
300 298 292 288 290 293 299 295 302 316 322 321 323 328 329 330 332 333 334 337 344 345 347 351 348 345 339 333 331 328 328 326 326 328 330 324 325 330 331 331 331 331 332 332 331 329 328 329 328
300 297 301 295 296 293 296 302 310 315 318 320 320 326 326 329 331 332 335 336 341 345 346 349 346 342 338 334 330 328 328 330 332 332 329 327 330 331 331 332 331 331 333 332 330 328 328 327 326
304 304 296 293 289 288 294 298 300 310 314 317 318 320 321 328 331 332 334 336 341 345 348 350 346 342 337 334 331 330 330 330 332 330 329 330 328 330 330 331 330 331 330 329 329 328 327 327 325
301 298 297 297 294 291 289 296 307 309 316 317 320 322 320 322 329 332 334 336 341 344 348 348 345 341 336 336 333 332 333 333 331 330 330 330 329 331 332 332 331 330 329 330 329 328 328 326 325
303 301 299 294 292 294 295 297 310 312 315 319 320 322 321 322 326 330 332 334 339 342 347 346 344 340 338 337 335 334 335 334 331 330 330 330 330 331 331 330 330 330 330 329 327 327 327 326 325

GFSSGP_sfc_thetae_015.txt.gz
Theta_e
361 357 352 343 322 314 311 314 320 320 322 331 333 330 328 330 322 314 342 348 352 351 354 359 363 363 363 365 365 364 365 365 367 368 366 367 366 365 365 365 364 364 363 363 362 361 360 359 359
358 353 348 334 307 306 310 319 318 322 328 333 334 333 330 326 337 338 341 352 355 356 356 359 363 365 364 365 366 366 366 365 368 367 367 366 365 365 364 364 364 363 362 362 360 360 358 357 357
353 351 334 324 306 306 309 319 321 326 331 332 330 335 333 330 338 340 347 354 355 354 357 360 365 366 364 364 366 366 366 364 365 365 365 365 363 363 363 362 361 361 361 360 359 358 357 357 355
341 337 327 306 307 315 318 321 325 326 331 335 334 329 338 344 341 345 351 355 354 354 357 364 365 364 365 365 366 364 364 364 366 366 364 363 363 363 362 362 362 361 361 359 358 357 357 356 356
338 323 306 306 312 321 325 327 326 325 330 332 334 329 333 344 346 348 351 353 352 353 358 360 367 366 366 364 365 364 364 364 365 364 363 363 362 362 362 362 361 360 359 358 357 356 356 356 356
320 318 307 302 311 322 326 329 328 331 332 333 331 331 334 345 345 348 351 351 356 356 357 358 364 366 366 364 363 364 363 363 363 364 364 363 363 363 362 361 360 359 357 357 356 358 357 357 357
319 313 309 308 313 318 324 333 330 329 329 330 335 328 337 342 347 350 349 352 355 357 357 356 357 361 366 367 363 363 363 363 363 364 364 364 363 362 361 361 359 358 358 358 359 360 361 360 360
323 314 308 309 314 315 327 330 333 332 331 339 338 327 330 342 349 351 351 352 354 356 357 356 357 357 358 360 365 363 363 361 363 364 364 363 361 360 361 360 359 359 360 360 360 360 360 361 362
329 310 308 311 311 315 326 327 336 338 334 334 337 336 341 348 349 347 347 349 352 355 355 356 356 357 357 358 360 364 363 364 363 363 363 363 356 354 354 355 356 358 359 358 358 360 362 361 360
320 311 313 318 318 319 323 329 329 329 330 331 334 339 343 346 345 343 343 343 347 350 352 355 355 356 356 360 356 357 355 356 356 356 355 355 353 351 349 349 355 357 357 359 361 361 361 358 352
321 315 320 320 323 324 325 326 329 329 325 331 332 336 341 342 343 342 343 344 345 349 351 353 355 355 355 356 355 356 354 354 353 352 351 352 351 348 351 350 347 347 354 352 353 352 353 351 348
318 321 321 321 327 324 323 326 326 329 328 336 339 341 341 341 341 342 343 344 344 346 348 349 352 354 354 353 354 353 354 352 351 351 351 349 348 347 345 347 346 346 348 347 346 345 347 348 349
314 319 322 325 325 324 324 321 325 327 333 338 342 343 341 341 342 344 345 346 347 346 348 348 351 352 352 352 352 352 352 353 351 351 350 351 348 348 346 346 346 345 347 344 346 345 346 345 346
320 320 322 323 322 322 321 323 326 329 338 339 340 340 341 341 342 344 343 343 345 347 347 349 350 352 350 350 350 350 351 353 352 350 351 350 351 350 345 344 345 345 346 347 346 345 345 346 346
322 317 322 323 321 318 325 319 322 330 337 336 338 339 340 341 343 343 343 343 345 345 347 350 352 351 349 348 350 350 352 350 348 349 351 350 351 349 347 347 343 343 345 345 346 344 343 343 344
315 314 312 319 323 323 322 313 325 330 330 330 333 337 338 338 340 340 343 343 345 344 346 351 354 351 349 348 350 351 352 350 348 349 348 350 350 348 347 343 342 345 343 345 342 342 341 341 340
306 309 308 315 322 323 319 315 325 329 328 326 328 332 332 333 335 337 341 341 343 346 347 348 351 350 349 350 351 351 351 350 348 349 348 349 350 350 350 344 344 345 343 342 342 341 339 337 337
306 306 311 312 320 320 318 316 323 327 326 326 327 329 330 330 331 337 340 339 343 346 347 348 349 348 348 349 350 349 349 349 349 348 349 350 349 350 346 346 347 344 341 339 337 336 337 336 336
306 308 311 316 318 318 317 317 321 325 325 325 326 327 329 330 333 336 339 340 340 345 345 347 346 347 349 347 345 344 345 346 345 346 349 349 349 349 346 343 342 342 337 334 334 334 333 332 334
304 307 309 313 318 318 316 317 321 323 324 325 326 327 328 330 330 333 337 338 338 340 343 344 347 348 349 346 345 344 343 343 345 346 348 350 348 348 345 343 340 338 335 332 332 331 329 330 332
301 302 307 308 315 317 317 312 317 323 325 326 327 329 330 330 330 332 335 336 339 339 340 343 345 348 349 347 346 346 346 344 340 338 342 345 349 350 348 340 336 335 332 332 331 330 328 325 329
297 306 310 311 310 304 316 303 311 318 321 324 326 328 329 331 333 333 335 337 339 340 343 343 346 346 348 347 345 343 341 335 333 334 331 333 338 336 337 336 336 333 332 331 331 332 329 327 323
304 307 306 310 308 305 307 303 307 315 314 321 324 327 331 332 334 333 336 338 340 342 344 345 347 346 347 346 347 344 336 332 331 329 327 328 328 332 335 337 334 332 330 330 329 328 327 328 326
309 304 300 299 301 297 307 304 301 309 316 319 323 324 330 332 335 336 338 339 340 343 344 347 346 346 347 346 344 342 334 327 327 325 324 324 323 331 336 335 331 330 329 329 328 328 327 327 326
302 296 289 290 293 294 301 304 306 313 320 322 322 321 328 332 335 335 336 337 338 341 344 346 346 345 346 345 339 335 327 327 326 325 322 326 327 328 330 329 330 328 327 328 328 327 325 326 325
298 297 290 286 287 293 296 299 307 316 319 324 324 323 326 329 335 336 338 338 338 341 344 346 345 344 344 339 333 325 325 324 324 323 326 325 326 329 329 329 330 328 329 330 329 327 326 326 326
298 294 298 291 291 290 293 298 305 313 312 320 322 320 324 327 333 336 338 339 339 341 343 346 345 345 343 337 329 325 325 325 324 327 328 324 324 330 330 330 330 329 329 330 328 326 326 326 325
302 301 293 291 287 287 291 294 297 303 310 315 318 317 323 327 330 334 337 337 340 343 344 346 348 345 342 332 330 327 327 329 329 329 327 327 328 329 329 329 328 328 329 328 326 325 326 325 324
298 294 293 294 291 289 288 293 303 306 311 314 317 320 323 326 329 331 335 336 338 343 344 345 347 344 336 336 330 327 327 329 329 329 328 329 327 327 328 329 328 329 328 327 326 326 326 325 323
299 298 297 294 290 290 291 294 307 310 313 316 317 320 324 327 328 330 332 334 334 339 342 344 346 343 339 336 331 329 329 329 329 329 328 328 327 328 329 330 329 328 328 328 326 325 326 325 324

GFSSGP_sfc_thetae_018.txt.gz
Theta_e
361 356 351 344 318 315 309 312 319 319 321 329 333 329 327 329 322 313 340 347 349 350 353 357 361 360 361 360 360 359 362 363 365 366 366 366 364 364 364 364 364 363 362 361 361 360 359 359 358
357 350 346 334 311 305 307 318 316 321 327 333 333 332 329 325 336 337 339 351 352 353 353 355 362 362 363 363 364 365 364 363 367 367 367 366 365 364 364 363 362 361 361 360 360 359 358 357 356
354 350 333 320 309 306 307 318 321 328 332 332 330 335 332 329 337 339 346 353 355 353 355 358 363 364 363 364 365 366 366 364 365 365 364 364 363 363 363 361 360 360 360 360 359 358 357 357 356
345 336 325 306 307 315 316 320 325 327 331 334 333 328 337 341 340 345 352 354 354 354 357 361 364 363 363 364 365 364 364 364 365 364 363 362 362 362 362 360 360 359 359 359 358 357 357 357 357
336 322 306 307 312 320 323 324 327 325 330 331 333 328 332 342 347 350 352 353 351 353 358 359 364 364 365 365 365 365 363 362 364 364 362 362 362 362 361 360 359 358 358 358 357 357 357 356 356
319 315 307 305 313 321 324 326 327 330 332 332 330 330 332 343 344 349 351 351 355 354 356 359 363 365 365 363 363 364 364 364 364 363 363 363 362 361 361 359 358 357 357 357 357 359 359 359 358
317 311 307 308 314 318 323 329 328 329 330 329 335 327 335 339 346 349 350 353 355 357 355 356 358 361 363 366 363 363 363 362 363 364 364 363 362 361 360 360 359 358 358 359 360 360 361 359 359
320 311 307 309 314 314 326 330 331 329 329 338 338 326 328 339 347 348 350 350 353 355 355 355 355 357 358 359 362 362 362 362 363 364 363 362 361 360 360 361 359 359 359 359 361 361 360 361 359
323 308 306 310 313 315 328 327 333 337 332 334 337 335 340 346 348 345 346 349 351 354 354 355 355 355 357 358 358 363 362 361 362 362 362 363 357 357 359 358 357 358 358 360 360 362 361 359 357
317 308 310 316 317 319 324 329 329 328 328 330 333 341 345 346 344 342 341 341 344 348 353 354 354 355 356 360 357 357 356 358 358 358 356 357 357 355 356 351 357 357 359 358 361 362 361 357 355
319 312 318 318 319 326 323 327 329 326 324 330 330 337 342 343 342 341 341 342 343 347 351 354 354 355 356 356 355 356 355 355 356 355 355 354 355 352 352 353 352 350 353 354 355 355 356 354 353
315 321 320 320 324 322 324 326 327 329 327 335 336 340 342 340 340 340 341 343 345 348 350 353 354 354 354 355 355 354 354 354 353 353 353 351 350 350 349 347 350 350 351 351 351 349 351 352 351
311 316 320 325 322 323 326 323 326 328 333 338 338 340 339 340 341 342 344 344 344 345 348 350 352 353 353 352 354 354 354 354 352 352 352 351 350 350 350 347 350 350 351 348 351 351 351 349 350
316 318 321 322 321 321 321 323 326 328 337 337 337 337 339 340 341 342 343 343 344 345 347 348 350 352 351 351 351 353 352 353 353 353 353 352 351 351 349 348 349 347 352 351 351 350 350 350 349
321 317 320 319 318 319 325 318 320 331 336 335 336 338 340 341 342 342 344 343 345 346 348 347 349 351 350 351 351 351 352 353 352 351 352 352 351 350 352 348 348 348 349 349 349 348 347 347 347
315 314 309 317 318 321 320 311 323 334 333 333 336 337 339 340 342 344 345 344 346 346 345 349 351 350 350 350 350 350 351 352 349 350 350 351 352 352 350 349 347 348 348 348 348 347 347 345 344
307 305 308 314 320 319 318 313 324 333 333 332 335 336 338 338 340 343 345 345 345 346 346 347 351 350 350 350 350 351 353 351 351 351 351 351 352 353 351 350 346 349 348 347 347 346 345 342 342
304 307 307 311 318 319 316 315 323 327 330 330 332 335 336 336 337 341 342 345 345 345 346 348 350 351 349 349 350 351 351 351 352 351 351 352 353 354 350 349 349 350 345 343 342 341 341 341 341
309 311 311 313 319 316 315 315 321 324 325 325 326 329 332 332 335 339 340 342 342 344 345 347 347 348 347 347 346 347 347 349 349 349 352 351 352 352 349 349 346 345 341 340 339 338 338 337 338
310 308 310 312 317 316 315 315 320 324 324 325 325 326 328 330 329 333 337 338 340 343 345 346 347 347 348 348 347 347 347 347 348 349 350 352 351 351 347 345 345 342 338 338 338 337 334 335 337
303 308 306 311 315 317 315 312 314 321 324 325 326 328 329 328 327 330 334 336 338 341 343 345 347 347 349 348 346 347 348 346 344 343 347 350 350 350 349 346 342 340 337 336 337 336 334 331 334
297 305 310 310 310 304 314 299 310 316 319 322 324 326 327 329 330 330 333 335 337 339 343 345 346 347 349 348 346 345 343 342 342 339 340 341 345 344 345 341 340 337 336 336 336 336 335 333 330
303 306 307 310 308 306 307 302 306 316 314 318 322 324 327 329 330 331 333 335 338 340 340 342 343 345 348 348 348 345 341 340 335 334 333 335 336 337 339 339 337 336 336 335 336 334 334 334 332
307 301 299 299 301 296 305 305 302 308 316 320 323 326 327 329 331 333 335 336 337 340 341 342 342 344 346 347 347 345 342 334 332 330 328 328 330 335 338 339 338 335 334 335 334 334 333 333 332
300 295 290 291 293 293 301 303 308 310 318 322 322 325 328 331 331 332 333 335 337 338 340 342 342 342 346 346 346 346 343 334 333 330 327 327 328 333 335 336 333 333 334 334 333 333 332 332 332
297 296 290 286 287 294 299 300 307 317 318 322 324 325 328 328 332 333 334 335 336 339 340 341 342 343 345 346 345 343 339 333 331 330 327 329 330 333 334 333 334 332 332 333 334 333 332 332 332
296 293 297 290 287 289 293 298 306 309 311 315 318 322 323 326 332 333 335 336 337 338 340 341 342 344 345 346 344 336 334 328 328 328 328 329 331 333 333 333 334 333 333 334 334 332 332 332 331
299 299 293 289 286 285 290 293 296 303 307 311 313 320 322 325 330 333 336 337 338 339 341 343 344 344 344 344 339 335 330 328 327 328 329 328 329 332 333 332 333 334 333 334 332 331 332 331 330
295 293 292 292 290 287 286 291 300 304 306 309 313 319 321 323 327 332 336 338 339 340 341 342 344 344 343 341 337 333 329 328 328 329 331 330 330 331 332 333 332 332 332 333 331 331 331 330 330
299 296 295 293 288 289 289 292 305 306 308 312 315 319 319 322 326 331 335 337 339 339 340 341 344 345 345 341 337 333 330 330 330 330 331 331 331 331 332 332 332 332 333 333 331 331 331 330 329

GFSSGP_sfc_thetae_021.txt.gz
Theta_e
360 358 355 349 324 321 314 316 324 322 324 333 334 329 328 331 324 319 346 350 350 352 357 358 361 361 361 360 360 359 360 361 364 364 365 362 362 363 364 364 363 363 362 361 360 359 359 359 359
358 351 352 341 318 311 315 321 320 325 331 336 336 333 331 326 336 339 344 352 353 352 356 357 360 362 361 360 360 361 361 362 365 366 365 363 363 364 364 363 362 362 361 360 360 359 359 358 358
352 352 342 324 317 313 314 322 325 330 335 333 331 336 332 329 338 341 350 354 356 356 359 360 361 363 362 362 361 362 365 363 365 365 364 364 364 363 362 361 361 361 361 360 359 359 358 358 358
348 345 336 319 315 321 321 325 331 331 334 335 332 328 336 342 340 347 353 355 354 357 359 361 362 362 362 362 362 364 365 365 365 365 363 362 362 362 361 360 360 360 359 359 358 358 358 357 357
345 333 318 317 319 324 326 328 331 329 332 331 333 328 330 345 349 351 353 354 353 356 360 361 362 363 365 364 364 365 363 362 363 363 362 362 362 361 360 360 359 359 358 358 357 358 358 358 357
332 326 318 313 318 325 327 331 333 332 333 333 331 330 334 348 346 349 353 354 355 355 359 361 362 363 366 363 363 364 363 362 363 362 362 362 362 361 360 358 358 357 357 358 358 360 359 359 359
326 322 315 318 319 322 326 333 332 332 331 331 336 327 336 342 347 350 352 354 355 357 358 360 362 364 364 366 364 364 364 363 363 363 363 362 361 360 359 358 358 358 358 360 361 360 358 356 357
329 323 318 320 317 317 330 333 336 333 330 339 338 327 330 342 348 350 352 353 354 356 358 361 363 362 361 362 363 363 363 363 363 363 362 362 360 359 359 361 358 359 360 359 360 360 358 358 357
329 319 316 318 320 321 332 330 336 339 334 335 338 337 340 346 347 347 348 350 353 355 357 359 360 361 362 361 360 362 362 362 363 363 362 362 360 360 360 359 358 356 358 359 361 360 360 358 356
326 318 318 324 327 325 331 332 333 332 331 332 337 342 345 345 345 341 343 344 348 351 355 357 358 358 360 357 362 362 360 358 360 362 364 362 361 362 360 359 356 360 360 360 360 359 357 356 358
326 319 322 323 328 331 331 332 335 330 326 332 334 338 342 343 342 341 342 344 346 351 353 357 360 362 361 360 362 361 360 359 361 364 364 363 361 360 360 359 359 360 357 359 358 358 358 356 357
319 325 324 325 329 330 330 334 329 330 330 337 341 342 343 342 342 342 342 344 346 350 352 355 359 362 362 360 358 359 358 358 358 358 363 360 357 358 358 359 358 360 360 361 359 358 359 359 358
316 321 325 326 328 331 332 329 327 329 336 341 342 343 342 342 344 347 346 346 348 349 352 356 359 360 362 362 358 357 358 356 359 358 359 358 355 357 356 360 361 361 360 359 362 360 358 357 356
320 323 326 327 328 330 327 329 330 331 338 338 340 340 342 343 345 346 346 347 348 351 352 356 358 361 363 361 363 360 360 359 359 359 358 360 358 358 357 359 359 365 359 359 361 360 360 357 356
325 321 325 325 327 326 329 324 326 334 337 336 337 340 341 343 346 345 346 347 349 351 352 353 356 359 361 360 360 360 360 360 358 359 362 362 359 360 360 363 361 359 359 360 358 360 356 356 354
321 321 316 323 325 327 326 317 328 336 335 333 335 338 340 342 345 349 349 350 351 351 351 354 352 355 359 360 360 359 360 360 359 365 362 363 363 364 363 359 365 358 359 356 358 356 353 352 350
317 312 315 319 326 325 325 319 327 335 335 334 335 337 339 342 345 348 351 352 353 354 354 354 355 355 358 360 360 361 363 361 360 361 367 362 363 363 362 366 365 357 357 362 356 355 352 348 346
312 313 316 317 322 324 322 322 327 334 334 334 336 336 339 341 344 348 350 352 353 354 355 356 356 359 361 360 361 360 361 361 361 361 361 364 365 363 364 363 360 358 356 353 352 350 349 346 345
317 316 315 320 324 321 321 322 325 332 333 333 335 337 338 340 345 348 350 352 352 354 354 355 356 361 360 356 355 356 355 358 360 361 363 363 363 362 362 357 356 356 352 352 352 348 345 343 347
317 315 315 319 323 322 320 319 326 329 332 334 334 336 338 341 343 346 348 350 351 352 354 355 358 361 361 358 358 358 358 358 360 361 362 363 362 363 361 359 355 355 349 350 350 348 340 343 347
315 315 316 316 320 323 320 317 322 327 330 332 334 336 337 339 340 342 344 347 348 350 353 355 360 362 361 362 359 358 358 358 356 357 357 359 361 362 360 357 355 354 351 344 348 346 343 336 343
307 317 318 317 316 310 321 308 318 324 326 328 330 332 333 336 339 340 341 344 346 349 353 357 359 361 360 362 358 358 353 351 354 355 356 359 361 360 359 356 355 354 347 347 346 346 345 343 336
309 315 316 318 316 314 314 311 316 322 322 325 329 331 333 335 336 337 339 342 346 348 350 354 359 360 362 361 362 356 355 355 356 353 352 354 356 358 357 356 352 350 345 348 346 344 344 343 341
312 311 311 315 314 305 312 312 311 317 322 325 329 331 333 334 336 338 340 343 344 347 348 352 357 360 361 359 359 359 358 356 351 349 347 347 347 346 350 349 349 350 347 345 344 344 344 343 344
311 309 302 301 302 301 311 311 314 320 324 326 328 330 333 335 335 337 339 340 344 346 348 350 355 357 359 357 358 358 358 358 354 351 346 345 342 341 345 349 349 347 347 346 345 344 343 342 340
307 308 302 296 297 301 307 306 312 323 326 327 330 332 333 334 336 338 342 343 344 346 350 351 353 354 357 355 359 360 359 356 351 353 347 342 342 341 347 348 348 347 345 344 344 342 342 343 341
307 303 311 304 301 302 306 310 314 320 321 324 326 328 331 334 336 337 339 342 345 347 349 351 353 354 356 355 359 358 360 357 353 353 346 342 344 342 345 347 346 344 342 343 345 341 342 342 342
308 310 301 303 298 295 300 303 305 314 317 322 324 325 329 333 336 337 340 343 346 347 350 352 354 354 355 355 356 356 356 355 354 347 339 343 343 344 345 345 344 343 343 344 344 341 342 341 340
304 303 304 307 304 300 298 302 315 317 321 321 323 325 327 331 334 338 342 345 347 348 348 350 351 354 355 356 358 357 353 350 340 343 336 337 340 341 344 343 343 343 343 343 343 342 341 340 341
307 305 306 302 301 302 303 303 314 317 320 322 322 324 327 331 333 337 340 343 344 347 346 347 350 351 354 356 356 353 348 337 343 340 340 339 338 339 340 341 342 342 343 343 342 340 338 339 338

GFSSGP_sfc_thetae_024.txt.gz
Theta_e
360 361 359 353 329 321 317 318 328 325 328 335 333 328 329 334 330 324 350 352 353 354 358 359 360 359 359 360 360 361 361 361 361 362 362 362 363 364 364 364 363 363 362 361 361 360 360 359 359
361 355 352 343 320 313 317 325 324 329 333 337 337 334 332 330 339 342 346 352 355 354 357 359 360 360 361 361 360 361 361 360 363 363 363 363 363 364 363 362 363 363 362 361 360 359 359 359 358
356 353 344 328 321 314 316 324 328 333 336 333 333 337 334 333 341 344 351 353 354 356 357 361 360 362 361 361 361 362 362 362 362 364 363 363 364 363 362 361 361 362 361 360 359 359 359 358 358
350 349 342 320 315 321 321 327 332 333 336 335 335 331 339 345 344 350 354 356 355 357 358 361 362 362 363 362 363 363 364 363 363 362 363 363 362 362 361 362 361 360 360 359 358 358 357 357 356
351 339 320 316 317 322 328 331 334 332 333 333 335 330 336 345 351 353 354 354 354 355 358 362 364 363 363 362 363 363 363 363 363 363 362 362 362 361 361 361 359 358 358 358 358 358 358 358 358
337 333 315 311 317 323 328 332 333 333 335 334 333 334 337 348 350 353 355 354 354 354 358 360 361 363 363 362 363 363 363 363 363 362 362 362 361 360 360 359 357 357 357 358 359 359 357 356 356
331 325 316 315 318 321 326 334 331 333 333 331 336 332 340 344 352 354 354 354 354 358 356 359 361 363 363 364 362 362 362 362 362 362 362 361 360 360 359 358 357 358 359 360 359 359 356 354 355
335 327 318 317 316 319 328 331 335 333 333 340 338 330 334 344 351 352 353 353 354 356 356 361 364 362 360 361 363 364 364 363 362 363 362 361 360 359 359 359 358 357 358 359 359 359 356 356 356
335 322 318 318 317 322 331 330 336 339 337 336 338 335 341 346 349 348 348 350 353 354 355 359 360 360 361 361 362 363 363 363 363 363 362 360 358 360 357 359 356 355 359 359 359 359 357 356 356
329 322 318 325 325 325 330 330 334 333 333 334 337 340 344 345 346 344 345 347 349 352 354 356 356 358 360 357 363 361 360 359 360 360 363 359 361 362 359 360 359 360 358 359 357 356 358 358 356
330 323 324 325 328 330 331 330 334 330 328 333 336 339 342 342 344 344 345 348 350 353 353 354 356 359 359 358 358 358 358 357 359 364 363 360 360 362 361 362 360 363 360 357 359 358 357 357 357
324 325 324 326 331 329 329 332 329 330 330 336 340 343 342 341 341 342 344 347 349 352 354 356 359 360 360 359 357 357 356 357 356 356 363 359 358 359 359 359 360 360 360 360 360 358 360 358 360
324 323 325 326 330 331 333 331 328 330 337 338 342 342 341 341 342 344 345 347 349 351 354 356 360 363 363 363 357 356 356 355 356 356 358 357 357 359 360 362 358 359 357 358 360 358 357 358 357
325 323 325 326 329 332 330 331 329 332 340 338 340 340 341 341 343 344 345 346 348 350 352 356 359 361 363 362 363 359 357 356 356 355 356 361 359 359 365 357 357 358 357 360 360 358 357 357 356
323 320 325 326 330 330 331 327 328 335 339 337 338 340 340 342 344 346 348 348 351 351 353 355 358 360 363 363 363 361 358 357 356 357 362 363 363 362 367 356 355 355 361 363 363 358 357 355 353
320 320 317 326 330 331 330 320 330 337 337 336 337 338 339 342 344 348 349 350 352 353 354 356 355 358 362 363 362 360 359 359 359 360 360 364 363 367 366 369 354 356 360 358 357 357 349 345 344
319 313 315 322 329 328 327 321 331 337 336 336 336 337 338 341 345 348 348 351 353 354 356 356 357 356 359 363 363 364 366 368 361 371 362 363 363 362 360 357 357 362 358 356 355 349 349 342 340
313 314 316 318 325 327 325 324 329 335 335 335 337 336 337 340 343 348 350 352 354 356 357 358 357 360 363 361 364 368 371 371 362 361 368 364 361 362 361 357 358 359 359 357 353 352 346 341 341
318 316 315 320 327 325 324 324 328 334 334 334 336 337 337 340 345 349 351 353 354 356 357 359 359 363 363 360 358 357 356 368 361 363 366 364 364 363 363 356 357 358 356 355 357 348 341 337 343
316 315 315 321 326 325 323 323 327 330 334 335 335 337 338 340 343 347 350 351 353 355 358 360 361 363 364 361 361 359 359 358 359 361 364 365 364 364 360 361 358 360 353 357 354 347 336 340 345
316 315 316 317 324 326 322 320 324 327 332 336 337 337 339 341 340 344 347 350 352 354 357 360 363 364 366 366 363 363 363 362 359 359 359 361 365 364 364 361 359 359 355 346 348 346 343 334 341
312 319 318 318 319 313 324 310 319 325 328 332 335 336 337 340 343 344 345 348 351 353 358 361 364 366 365 369 367 365 356 352 352 354 354 356 362 362 362 363 361 361 351 348 345 346 343 343 335
313 318 318 319 318 317 318 314 318 323 324 328 333 335 335 337 339 340 342 345 350 352 354 359 364 368 370 371 370 362 360 356 356 356 359 361 362 363 359 363 360 357 345 349 350 348 346 341 338
316 315 316 317 316 309 315 314 314 319 325 327 332 335 335 335 337 339 341 344 346 350 352 356 363 370 369 368 367 366 366 361 355 358 355 350 350 356 361 360 358 353 347 350 347 348 345 344 344
313 312 306 305 306 306 317 312 316 321 324 327 327 333 336 337 336 338 339 340 344 346 350 353 365 369 368 365 365 365 365 364 363 361 356 351 346 346 353 356 354 350 353 351 348 347 345 344 341
309 311 306 301 302 306 315 308 314 325 327 327 328 331 335 338 339 338 341 342 344 347 352 355 363 366 366 363 368 369 367 361 361 362 356 350 345 345 353 351 352 352 352 350 348 343 343 344 342
309 308 315 310 311 307 310 314 319 322 323 325 326 328 331 336 339 339 341 344 345 349 355 360 364 368 368 363 369 366 366 364 362 364 364 354 354 347 350 351 350 351 350 348 348 342 344 344 343
311 315 307 310 303 301 306 309 310 317 319 322 323 326 330 334 338 340 341 344 347 349 353 356 362 366 364 362 363 362 363 365 365 363 362 357 353 350 349 349 349 349 348 347 349 343 344 344 339
307 308 311 311 309 303 302 306 318 318 320 320 322 325 327 330 336 339 342 344 348 350 351 354 357 359 360 364 365 366 361 362 362 361 360 356 352 350 349 349 347 347 345 347 347 346 342 342 343
311 309 311 306 307 309 308 308 320 321 321 322 323 324 326 329 333 338 342 344 345 349 350 352 354 356 358 363 367 363 364 362 360 358 354 352 349 348 347 345 345 345 346 347 345 343 340 340 340

GFSSGP_sfc_thetae_027.txt.gz
Theta_e
360 361 360 351 333 323 318 320 327 325 326 332 334 331 331 333 328 318 347 349 353 354 356 358 359 360 360 360 360 359 360 359 361 362 362 364 364 364 364 363 363 362 361 361 361 360 360 359 359
359 359 356 342 322 312 316 325 322 328 332 335 336 334 332 331 341 343 346 353 352 351 353 355 361 360 361 361 362 362 361 360 361 362 362 364 364 364 362 362 362 362 361 360 360 359 359 359 358
360 358 341 333 320 313 316 324 329 332 336 333 333 337 335 333 343 344 352 352 352 354 355 358 361 361 361 361 362 362 361 361 361 361 362 363 364 363 361 361 361 361 360 359 359 358 358 357 356
354 347 344 321 316 322 324 327 332 332 334 335 336 331 339 345 344 348 352 353 354 355 355 358 361 362 362 362 363 363 363 363 362 361 363 363 362 361 361 361 360 359 359 358 358 358 358 357 355
352 343 325 316 317 324 328 331 332 329 331 333 336 332 334 344 350 352 350 351 353 355 358 359 362 363 363 364 364 364 364 363 361 362 362 362 361 360 361 359 358 358 358 359 359 359 357 357 357
338 335 316 312 315 323 330 332 332 331 333 333 334 335 337 348 349 351 354 351 353 353 358 360 364 364 363 364 363 363 362 362 362 361 361 361 361 360 358 357 357 357 359 360 360 358 356 355 356
334 326 318 316 317 319 325 331 330 331 331 333 339 333 340 345 350 351 352 351 352 354 356 359 361 364 363 363 362 362 362 362 362 361 361 361 360 359 356 356 357 358 359 359 358 358 355 354 355
336 328 317 319 316 316 326 329 332 331 331 338 342 333 334 345 350 350 350 350 349 355 355 358 360 361 364 361 361 361 361 361 361 361 361 360 361 360 358 358 358 355 356 357 358 358 355 354 356
338 322 318 317 319 321 328 326 332 337 334 334 336 340 344 347 349 349 348 347 353 354 355 356 355 357 359 358 359 363 363 362 362 363 362 360 357 359 362 360 356 353 360 359 359 359 359 359 359
331 317 320 325 326 325 326 326 330 330 331 332 334 342 346 347 346 344 344 346 348 352 353 355 356 356 357 355 363 362 360 359 359 359 363 357 359 360 358 358 358 360 361 360 360 360 361 362 357
329 321 326 326 328 330 327 326 331 329 326 332 332 338 342 344 344 343 344 346 347 353 353 355 357 358 356 362 357 357 357 357 358 362 362 360 360 360 358 358 362 360 363 359 359 358 357 357 356
325 328 325 327 327 328 326 328 325 328 329 335 338 341 341 341 342 343 344 346 349 351 351 353 356 360 360 357 355 355 353 354 354 357 363 361 358 357 361 360 359 363 362 359 364 357 362 360 360
327 326 325 327 328 329 331 326 325 327 332 336 339 341 340 341 342 344 345 347 350 350 351 353 357 361 361 362 356 355 354 354 354 355 359 357 356 362 363 363 357 357 357 359 356 359 361 356 357
328 327 325 326 327 329 326 327 327 331 334 335 338 339 339 340 341 343 344 346 349 352 352 354 357 361 362 364 365 359 357 356 355 354 355 362 360 365 361 357 355 359 357 359 360 359 358 356 359
327 321 324 325 327 326 330 324 323 333 335 334 336 337 338 339 341 342 344 346 348 351 353 354 357 359 362 363 362 360 357 355 354 354 360 360 364 364 363 359 357 358 364 364 361 362 363 357 355
321 322 317 324 325 329 327 319 329 336 333 331 334 336 337 339 341 344 346 347 350 351 353 355 355 357 361 365 363 359 357 356 357 358 360 365 364 366 363 357 356 359 363 361 359 357 357 347 344
319 314 316 319 326 328 326 319 329 336 334 331 333 335 336 338 341 344 347 348 350 353 354 355 357 356 360 366 363 362 367 359 360 362 357 364 363 365 363 357 363 365 359 356 359 354 352 344 338
314 315 317 319 322 327 323 324 330 334 333 331 332 334 336 337 340 344 347 348 350 353 355 358 357 362 367 363 366 361 364 364 362 358 359 365 364 362 367 360 360 360 355 358 353 353 347 341 341
319 318 315 321 323 324 323 323 327 333 333 332 332 333 334 336 342 345 347 347 350 352 355 357 361 370 363 357 356 357 354 362 359 360 361 365 364 364 367 359 358 358 356 355 354 348 347 337 344
317 317 317 320 323 323 323 323 327 332 333 334 333 333 333 335 339 343 347 347 350 352 356 361 364 371 367 361 363 360 360 355 358 359 362 366 363 368 361 364 361 359 352 355 351 348 339 335 344
315 316 317 316 324 325 323 320 323 328 333 335 335 336 336 335 336 341 345 347 349 351 356 363 369 371 370 371 367 363 362 359 355 352 352 356 360 359 364 363 360 361 353 348 350 345 343 334 338
312 319 318 317 316 314 322 311 321 325 326 331 334 336 335 336 337 340 344 346 348 351 356 365 370 372 371 373 366 369 356 351 349 352 352 354 356 356 362 360 358 359 353 352 346 344 343 342 335
314 319 318 318 316 317 316 313 316 323 322 325 331 336 336 337 338 338 341 346 349 351 353 360 371 373 373 373 371 362 362 353 352 351 365 361 365 358 354 357 361 357 349 352 347 346 346 341 337
318 317 318 318 316 308 316 313 315 318 323 326 331 334 337 337 339 341 342 345 347 350 352 356 368 374 376 374 373 373 371 362 354 355 355 351 349 353 357 356 359 362 352 348 347 348 345 344 344
314 313 306 305 306 306 317 314 317 323 325 327 327 331 336 339 338 340 341 341 346 349 353 355 366 372 376 373 372 372 373 373 369 363 354 358 346 346 361 362 361 355 357 350 350 349 346 345 342
311 312 306 301 303 306 315 311 316 326 328 328 328 330 334 338 339 338 340 341 344 348 355 358 363 371 374 374 373 375 376 363 361 365 356 352 346 347 362 358 357 353 355 354 352 344 343 347 343
310 308 315 310 311 308 311 316 320 325 325 327 328 328 328 335 338 339 340 341 341 347 354 357 362 370 373 371 375 375 374 371 362 367 370 358 363 348 356 355 354 354 351 350 350 343 345 345 345
310 315 307 311 304 303 308 310 313 320 321 324 325 325 327 330 335 339 340 341 345 344 351 358 363 369 372 372 373 371 372 373 373 373 371 367 364 358 357 354 353 353 350 352 352 348 349 347 342
307 308 311 311 310 305 303 309 321 321 323 322 324 326 327 328 332 337 341 343 347 346 349 354 360 366 370 371 371 371 370 369 371 368 369 369 368 362 357 356 354 353 348 351 351 350 346 345 346
311 309 310 310 307 310 310 309 322 322 324 324 325 326 327 329 330 334 339 342 344 350 348 349 354 357 364 367 371 370 371 370 368 368 369 369 366 362 357 356 353 351 350 350 348 345 343 342 342

GFSSGP_sfc_thetae_030.txt.gz
Theta_e
359 357 356 347 327 326 316 318 328 325 326 333 335 331 329 331 324 320 345 348 352 352 354 357 361 361 360 359 360 362 363 365 366 366 367 366 366 366 366 365 364 363 362 361 360 360 360 359 358
357 358 352 337 321 312 317 326 323 327 330 336 336 334 330 326 337 339 343 350 352 351 353 354 362 361 361 362 362 363 362 362 365 366 366 366 365 364 363 363 362 361 360 360 359 359 359 359 358
354 355 334 326 321 312 317 326 326 331 335 333 331 335 333 330 339 341 348 350 350 350 353 358 361 361 362 364 364 365 363 364 365 365 364 364 363 361 362 362 361 360 359 359 359 358 358 357 356
351 348 342 325 316 322 324 327 330 329 333 335 334 330 339 344 342 347 350 351 350 351 353 359 362 362 362 365 364 364 364 363 364 364 363 363 362 361 361 360 359 358 359 359 359 359 357 356 355
354 343 329 318 318 324 327 330 331 328 331 332 334 330 333 342 348 350 350 350 350 352 353 357 363 364 365 366 365 365 364 362 364 363 362 362 361 361 360 359 358 358 359 360 360 358 356 356 355
339 337 323 311 315 325 328 332 329 329 332 333 332 332 334 347 346 349 352 351 354 352 354 356 363 365 365 366 366 365 363 362 362 362 361 361 360 360 357 357 356 357 359 359 359 357 355 354 354
334 330 322 315 315 319 323 333 328 327 331 331 337 329 335 342 347 349 350 353 351 354 356 359 359 363 365 366 364 363 362 362 362 361 361 361 360 359 358 356 356 356 357 357 358 356 355 355 356
337 329 321 318 314 315 324 328 331 329 329 340 339 329 331 341 348 350 351 349 350 352 356 360 362 361 361 360 363 362 362 362 360 360 360 362 361 360 359 362 359 356 356 357 358 359 359 360 362
339 321 318 318 317 318 327 324 333 334 330 336 337 337 341 343 347 345 345 347 350 350 352 354 358 361 359 358 358 362 361 361 360 362 363 363 357 358 359 364 360 358 360 360 361 362 365 364 365
324 317 319 324 325 321 325 325 327 328 328 331 334 340 341 343 342 342 344 345 346 347 351 352 353 354 358 353 361 362 359 358 359 361 363 359 355 359 360 364 365 362 359 363 362 365 362 359 357
322 318 323 325 327 327 324 325 328 326 325 329 332 336 339 340 342 344 344 348 349 353 352 354 356 357 355 358 360 359 359 359 360 364 366 367 363 359 356 359 358 362 361 355 359 354 355 359 356
320 322 324 327 329 326 323 326 326 326 328 334 338 340 340 338 337 338 343 344 350 351 352 353 357 359 360 357 357 359 357 359 358 361 369 369 365 362 365 363 356 362 360 356 351 356 360 359 361
325 325 329 327 326 327 327 323 322 326 332 336 339 340 339 339 338 339 341 344 351 349 351 355 360 365 370 368 361 359 362 355 358 359 363 361 363 356 359 358 362 362 359 359 354 352 361 356 358
322 327 326 326 325 328 326 323 323 326 332 334 336 337 338 338 339 341 343 345 347 350 350 356 357 364 369 370 376 373 368 352 360 353 360 367 368 355 356 366 363 355 357 357 363 362 361 362 359
321 321 324 324 324 325 327 321 321 328 330 331 334 336 336 338 340 341 344 346 350 351 352 355 357 361 364 367 369 370 365 357 360 358 363 367 369 368 370 364 364 357 357 366 357 358 356 357 357
316 319 317 322 323 325 324 316 323 330 327 329 332 334 335 337 338 342 345 347 350 352 355 358 352 359 363 366 368 362 358 364 357 361 364 357 368 371 370 366 362 365 366 355 355 359 353 350 346
314 311 315 317 324 324 322 319 327 331 326 327 330 332 333 336 339 342 343 347 349 353 357 356 359 357 362 365 365 365 365 366 370 356 366 367 361 368 364 362 359 362 357 360 355 357 350 346 342
308 312 315 316 322 322 321 317 323 326 328 326 328 331 333 334 336 342 344 346 348 352 358 359 359 366 364 363 367 365 361 362 364 368 364 365 367 363 361 363 362 359 360 358 355 348 352 345 345
314 315 314 319 320 320 322 321 322 325 329 326 327 329 331 333 339 343 345 347 348 352 356 359 362 366 366 363 357 358 360 361 362 361 370 365 365 365 365 366 359 356 359 357 353 353 346 344 350
313 313 315 320 323 322 320 322 325 326 328 329 328 329 330 333 337 341 345 346 347 352 355 360 362 369 366 362 361 358 358 357 360 361 364 363 365 364 366 366 359 357 352 355 356 350 345 341 349
312 312 315 316 321 322 320 317 322 328 330 330 331 332 332 333 333 340 343 345 347 351 356 359 362 367 364 367 362 364 369 370 355 357 356 363 364 365 365 362 363 358 358 355 355 351 347 340 346
309 316 316 317 316 311 320 308 320 324 327 328 329 331 332 333 335 337 341 346 346 351 358 361 363 365 366 365 365 364 356 356 358 362 357 363 365 363 364 366 363 358 359 355 353 350 347 345 338
312 317 316 316 314 316 316 311 317 324 322 326 328 331 332 335 335 335 340 345 347 351 355 360 363 365 366 365 367 365 360 353 360 358 364 364 366 362 363 362 363 364 358 354 350 350 348 347 343
316 315 315 315 313 307 314 310 312 319 322 325 329 329 335 334 336 338 340 345 347 350 354 358 363 364 366 367 365 366 361 358 359 361 359 358 358 359 365 360 364 362 357 354 348 349 348 346 346
312 310 305 304 305 304 315 313 316 323 325 326 324 329 335 338 337 338 339 341 347 349 351 356 363 363 366 367 366 364 366 365 361 368 362 355 350 352 357 363 361 358 358 355 353 348 349 347 345
309 309 306 300 302 305 314 309 316 326 327 325 327 328 334 336 338 340 341 341 347 348 352 354 361 363 366 366 368 368 366 366 364 364 361 355 356 352 357 359 360 358 355 355 352 347 345 346 345
308 306 312 307 309 306 310 314 321 325 323 327 328 328 328 331 337 339 343 344 345 349 351 354 362 363 366 368 368 368 368 366 363 365 363 364 360 362 356 357 358 356 354 352 352 347 345 347 348
310 313 304 306 301 301 307 310 312 321 320 325 324 327 329 330 337 338 339 343 345 348 352 355 358 364 367 369 369 367 368 369 366 365 364 359 367 360 358 356 356 354 354 353 353 347 350 348 347
307 305 307 308 308 303 302 308 321 321 326 326 326 328 329 328 334 338 339 342 345 346 350 352 355 362 365 368 369 368 368 369 367 364 363 364 363 361 356 354 353 353 352 352 350 348 348 346 345
311 308 307 302 305 308 307 309 321 328 327 328 327 329 330 331 330 333 340 342 343 344 346 349 353 354 363 367 367 368 369 368 367 363 366 367 362 362 356 355 353 352 351 350 349 345 343 345 344

GFSSGP_sfc_thetae_033.txt.gz
Theta_e
359 357 356 345 326 323 315 317 327 324 326 333 335 331 327 330 324 316 339 346 349 349 353 356 361 361 361 363 364 365 366 365 367 368 368 367 365 365 366 364 362 362 361 360 360 359 358 358 357
355 354 346 336 320 312 315 323 322 325 332 334 332 331 328 325 335 336 340 349 350 351 352 354 361 362 360 361 364 365 363 363 366 367 368 366 363 365 363 362 361 360 360 359 358 358 358 358 357
354 352 329 325 319 312 316 324 326 330 334 333 330 333 330 328 338 339 346 349 350 351 352 356 362 364 362 361 363 364 365 363 364 366 366 364 362 362 362 361 360 359 359 358 358 357 356 355 356
348 348 340 324 315 321 322 326 330 330 333 335 334 327 335 341 339 345 349 350 347 350 355 361 363 363 364 363 363 362 362 362 365 366 364 362 361 362 361 360 359 358 359 359 359 357 356 356 356
350 340 324 322 318 323 327 329 330 328 331 332 334 328 331 341 346 346 346 347 347 349 355 358 365 364 366 364 363 363 362 362 365 365 363 362 361 361 360 358 358 358 359 360 359 357 355 356 356
337 336 321 316 317 325 326 331 331 330 332 332 331 331 331 344 344 346 348 347 349 349 353 356 364 365 365 364 364 364 362 362 365 365 363 364 363 362 362 358 358 357 358 358 358 359 360 360 360
335 327 320 319 316 320 325 331 329 329 330 331 336 328 334 340 345 347 347 349 349 350 352 355 358 361 366 367 365 364 362 362 363 363 363 364 361 360 360 361 359 357 357 357 357 362 363 361 362
333 325 318 316 312 317 326 326 331 331 330 339 340 329 329 339 346 348 348 349 349 351 353 354 356 357 357 358 364 363 363 363 362 361 361 362 361 360 360 363 363 357 356 357 359 364 365 362 363
332 318 314 316 313 315 326 324 332 337 333 335 336 337 340 344 346 344 345 347 349 351 352 354 354 354 353 354 358 363 363 363 362 361 363 361 356 354 356 360 361 359 357 359 361 363 364 361 356
324 316 316 323 321 315 327 327 328 330 330 330 334 340 343 344 342 340 341 342 344 346 350 353 353 353 352 355 353 354 355 355 354 355 355 356 353 351 353 358 362 360 361 355 365 365 361 356 352
324 318 322 322 325 325 321 323 327 327 326 330 331 335 340 340 339 339 341 341 341 345 348 352 354 354 350 349 352 354 353 353 353 353 355 353 356 353 353 352 352 352 353 354 356 354 352 355 351
319 325 324 323 326 325 320 322 324 325 329 337 337 338 339 336 338 339 341 342 342 345 345 347 347 350 349 351 351 353 353 352 352 354 356 353 353 350 350 352 349 353 356 350 348 351 350 353 353
320 320 323 324 324 323 323 322 323 326 335 337 336 335 336 335 339 342 344 346 345 345 347 349 349 350 353 353 350 351 353 354 352 355 353 351 350 349 352 351 353 350 354 351 345 349 350 350 351
326 323 324 325 324 323 320 319 324 328 335 335 335 333 334 333 339 341 342 342 344 345 346 351 350 354 352 354 354 358 354 347 354 353 355 353 352 350 352 352 353 350 350 352 352 350 349 352 350
318 319 323 322 320 321 323 315 319 328 333 333 334 335 335 334 335 334 344 343 342 343 346 350 352 354 353 353 355 352 353 349 350 348 356 354 353 351 351 350 350 352 352 354 350 350 349 349 348
310 308 304 319 318 322 319 313 321 324 330 330 332 334 335 335 335 336 340 344 344 343 348 350 353 351 351 353 356 352 350 349 348 352 353 357 358 355 352 351 350 354 352 347 348 347 342 341 334
303 300 303 314 320 321 320 315 322 327 328 328 330 331 332 333 334 337 341 342 344 343 347 347 349 351 351 354 357 353 352 353 353 352 354 352 357 358 354 353 351 355 352 352 348 346 341 331 329
299 300 304 311 316 320 317 316 321 325 323 325 328 329 330 331 333 337 340 343 346 345 349 349 349 352 353 356 354 355 352 353 355 351 351 359 354 359 353 354 353 351 350 346 344 341 342 334 332
306 305 305 313 320 318 318 316 318 320 319 320 326 327 328 330 333 337 338 343 344 347 348 347 348 354 353 353 352 351 349 350 351 353 356 356 355 355 353 353 353 353 349 345 346 337 330 330 335
306 304 305 317 319 316 318 317 319 321 321 322 324 326 327 329 331 335 337 339 342 344 348 347 350 356 353 354 353 349 350 350 351 352 356 355 356 355 354 352 350 348 346 346 339 333 331 330 334
305 303 305 313 318 319 316 314 315 319 323 325 325 327 328 328 329 333 335 338 341 343 348 349 352 356 355 356 354 351 353 354 351 353 354 356 356 357 355 356 350 349 347 343 338 336 331 326 331
301 309 310 314 312 306 316 306 314 318 320 323 324 324 326 328 331 333 336 337 340 344 350 351 353 356 354 355 351 347 346 345 347 352 353 352 356 356 355 353 348 348 346 341 335 336 332 329 323
304 311 310 310 310 311 311 307 311 320 319 320 324 324 325 327 330 333 336 338 341 346 348 353 353 357 353 354 354 349 346 348 346 344 349 353 352 354 354 354 351 347 346 340 336 332 333 333 331
309 308 308 307 305 299 309 308 306 310 320 322 324 326 327 327 329 331 336 340 340 346 350 352 352 353 355 352 353 353 350 344 342 348 347 349 345 348 353 352 350 347 340 336 336 338 333 334 332
305 300 296 295 296 295 309 307 309 315 319 326 325 325 327 329 329 329 334 337 339 342 349 352 352 351 356 355 354 355 355 349 348 349 347 345 344 342 348 348 350 347 345 341 339 334 333 335 333
302 300 296 289 293 297 304 303 309 320 323 325 327 326 326 327 330 330 331 336 340 341 347 351 352 352 355 356 354 354 355 358 353 351 351 346 346 344 346 352 351 349 344 341 340 336 337 337 333
299 298 303 295 299 296 301 305 313 320 319 322 321 323 324 326 331 332 332 335 340 341 346 349 353 353 355 357 356 355 354 355 358 353 350 351 347 347 346 352 351 348 344 343 340 337 335 336 335
303 302 297 299 291 292 299 300 304 314 316 320 321 322 324 325 328 334 334 334 341 342 344 349 356 355 357 357 358 358 358 357 356 356 353 351 351 350 347 352 351 348 345 343 340 337 339 336 337
300 300 298 298 299 292 292 299 308 314 318 320 322 324 326 328 328 332 335 336 340 343 344 346 355 356 357 358 358 358 359 360 358 356 354 353 350 350 349 351 350 347 345 343 341 337 336 338 334
306 301 298 295 291 296 297 298 312 316 321 323 323 324 326 328 330 330 335 337 337 342 344 346 355 355 358 359 360 359 359 362 360 358 355 355 351 351 350 349 349 347 345 343 342 338 338 336 335

GFSSGP_sfc_thetae_036.txt.gz
Theta_e
357 356 355 344 324 322 315 317 327 324 325 333 334 330 326 329 322 314 340 345 346 348 351 355 361 363 364 365 366 365 365 365 367 366 365 364 363 363 363 362 361 360 360 359 359 359 358 358 357
356 354 344 335 319 311 313 322 320 326 330 331 331 330 327 324 333 335 338 345 348 349 351 354 361 363 362 364 366 366 364 364 366 366 365 364 363 362 362 361 360 359 359 358 358 358 358 357 357
355 347 329 325 318 310 313 323 326 329 331 330 327 332 329 327 336 339 345 348 350 350 351 354 363 363 362 362 364 365 364 363 364 363 362 362 362 362 361 360 359 359 358 358 358 357 356 356 355
350 347 339 322 316 320 322 326 329 328 332 332 331 326 335 341 339 344 348 349 349 350 354 360 362 361 361 361 361 362 362 362 363 363 362 361 362 361 360 359 359 359 359 359 358 357 357 355 355
349 336 323 320 319 322 327 331 330 327 330 329 331 326 330 339 345 347 347 349 347 350 355 357 365 365 363 361 361 361 362 362 363 363 362 361 361 360 359 358 358 358 359 359 358 356 356 356 356
336 333 318 315 319 324 328 331 331 329 331 331 330 329 330 342 344 345 347 346 350 352 355 358 364 366 365 362 363 362 361 362 363 362 362 361 361 359 358 357 357 357 358 357 358 356 356 356 357
329 320 317 317 319 322 326 334 329 329 329 330 333 325 332 338 343 345 346 347 350 353 353 356 357 360 364 365 364 362 361 362 362 362 362 361 360 359 357 356 357 357 357 357 357 358 360 361 361
331 324 316 318 316 318 328 330 333 330 329 338 337 326 327 338 344 345 346 346 347 350 352 353 355 357 358 360 364 362 362 362 362 362 361 362 361 360 358 363 360 358 356 356 357 359 362 363 356
333 318 313 315 318 321 330 327 334 337 332 333 337 335 338 343 345 343 344 344 346 349 350 353 353 354 355 355 359 363 362 362 362 360 361 362 355 354 356 358 361 360 357 359 359 360 363 357 350
324 314 316 321 323 320 327 329 330 330 330 332 334 340 342 343 342 340 341 341 344 345 349 352 353 352 351 357 353 354 355 355 353 354 353 355 354 352 356 358 362 360 360 353 361 364 359 358 347
325 316 322 324 323 325 328 329 332 329 326 331 331 335 339 340 340 340 342 344 344 347 350 351 352 351 350 350 350 351 351 351 350 351 352 351 354 350 354 349 351 348 358 352 355 353 350 352 350
319 325 324 324 325 323 326 331 329 330 329 336 338 338 339 338 338 340 341 343 344 346 348 350 351 350 349 346 350 350 351 350 348 350 351 350 350 347 348 347 348 347 352 349 346 350 348 349 351
320 323 325 327 325 323 324 326 329 329 334 338 340 339 337 337 338 341 342 343 344 345 347 349 351 349 349 347 348 349 351 351 350 349 351 352 347 349 349 349 350 350 350 347 344 346 347 349 349
323 322 323 326 324 323 320 322 326 330 335 335 337 336 337 337 337 339 340 340 341 344 343 348 346 350 348 348 346 348 350 352 351 351 352 352 348 348 350 350 349 347 351 348 349 348 348 349 348
323 314 321 323 322 321 322 320 324 332 334 333 335 336 335 335 339 338 342 341 342 344 345 346 345 349 349 349 348 351 354 349 350 352 351 353 348 347 347 347 347 348 350 350 348 347 345 341 337
303 309 308 319 322 321 316 312 327 332 330 329 332 334 333 334 338 340 343 344 343 345 345 347 349 349 349 350 352 349 349 346 347 348 351 351 352 351 349 346 346 351 348 346 345 344 339 336 330
298 295 299 303 317 321 318 311 327 331 330 327 329 330 332 332 337 339 343 344 344 344 344 347 347 349 350 348 351 348 347 346 348 350 350 352 355 353 350 348 348 351 349 346 345 344 336 328 327
294 295 297 303 318 319 315 314 323 329 329 328 329 330 331 331 332 337 343 344 343 343 346 348 348 348 348 349 351 349 347 349 351 349 349 352 356 356 351 350 351 350 351 345 342 338 335 330 330
301 299 299 305 315 316 314 314 320 325 327 327 328 329 330 331 334 335 342 344 342 344 346 347 347 346 346 348 347 346 345 346 348 349 349 353 353 354 352 348 350 348 344 345 341 333 327 326 331
301 299 299 312 318 316 315 314 318 319 325 327 327 328 329 330 331 333 338 341 341 341 345 345 347 348 348 349 350 347 348 349 346 348 353 352 352 352 352 348 348 347 347 342 335 329 327 328 330
300 299 299 302 315 316 316 312 313 318 319 320 328 329 329 329 329 331 334 338 341 341 344 345 347 349 350 351 350 347 348 346 347 348 351 352 354 354 351 350 348 345 342 340 334 331 326 323 326
296 305 305 305 306 304 313 302 311 315 315 318 321 325 327 329 330 331 333 336 340 342 345 345 347 351 351 351 350 347 345 344 344 346 350 352 353 353 353 351 347 346 344 338 335 335 331 324 322
300 305 304 305 306 304 307 302 306 316 315 315 320 323 326 328 330 330 333 335 339 342 345 346 347 352 352 352 350 348 343 345 347 345 351 347 350 352 353 350 345 344 342 337 335 329 331 329 327
307 302 301 300 301 298 305 306 304 310 314 317 321 323 325 327 329 331 334 336 337 341 345 346 346 349 351 352 350 348 345 343 343 342 343 345 348 349 350 352 345 343 340 337 333 330 330 332 329
302 293 289 289 290 292 304 305 307 315 320 321 322 324 325 327 328 329 331 334 336 339 343 346 346 347 349 351 350 348 346 345 342 341 344 344 342 343 347 347 346 342 337 334 335 333 331 329 328
296 297 291 284 287 290 299 301 307 317 321 325 327 327 327 325 327 329 331 334 336 338 343 346 345 347 349 348 349 351 351 349 346 344 345 346 345 345 349 347 347 341 339 335 334 331 331 331 330
297 294 298 290 293 291 295 302 309 316 316 321 325 327 325 325 326 328 330 334 336 338 343 346 346 346 350 349 348 348 350 353 352 348 348 344 342 342 347 347 347 343 341 337 335 333 332 333 331
303 299 292 288 286 287 291 296 299 307 313 317 323 325 325 326 327 328 329 333 337 338 344 346 347 346 349 351 350 349 348 351 354 352 348 347 344 344 344 346 346 344 341 339 337 333 332 332 332
298 296 294 294 292 290 288 294 303 305 313 316 322 326 326 325 327 329 330 331 336 339 342 347 347 347 348 350 351 350 349 349 351 354 353 349 348 345 343 347 347 345 342 340 336 334 335 332 332
304 300 296 294 288 290 295 296 306 308 314 319 320 324 325 325 329 330 331 332 332 338 339 345 349 348 349 351 352 352 352 352 350 350 353 353 349 348 345 345 348 346 343 341 338 334 335 334 331

GFSSGP_sfc_thetae_039.txt.gz
Theta_e
356 355 352 342 322 322 315 318 324 322 325 330 332 328 326 327 321 314 340 344 346 347 352 355 362 363 363 363 364 364 364 363 363 362 362 362 362 361 361 360 360 359 359 359 358 358 357 357 357
355 352 342 334 318 310 312 322 320 325 328 331 331 329 326 323 333 335 338 344 348 348 349 353 360 363 363 364 364 365 363 364 363 363 363 362 362 361 361 359 359 358 358 357 357 357 357 357 357
354 348 327 324 318 311 314 321 324 327 330 329 327 332 329 328 335 337 342 346 348 348 350 353 361 363 362 363 363 365 364 363 362 361 362 362 361 361 360 359 358 357 358 357 356 356 355 356 356
349 344 337 319 315 320 321 325 328 326 329 331 331 325 335 340 338 342 344 347 347 349 352 356 361 361 361 362 362 362 362 362 362 361 361 362 361 360 359 358 358 358 358 358 357 356 356 356 355
346 336 319 317 318 322 325 329 329 326 327 328 331 325 329 339 344 344 345 348 347 348 352 354 362 362 361 361 362 361 361 362 362 361 361 361 360 359 359 358 357 357 358 358 356 355 355 356 355
330 331 314 312 317 323 328 330 329 328 329 329 327 328 329 342 342 344 347 347 349 350 353 355 361 363 361 361 361 361 361 362 362 362 361 361 360 358 358 356 356 357 357 357 356 355 355 355 356
323 320 314 317 316 321 326 331 328 328 327 327 332 325 332 337 343 345 346 348 350 353 354 355 356 357 361 362 361 361 361 361 362 362 361 360 360 358 356 356 356 356 356 356 356 357 356 356 356
329 325 317 317 316 318 329 330 332 329 328 335 335 324 326 337 344 345 345 346 348 351 352 353 354 355 355 356 362 361 361 362 361 361 361 360 359 358 358 361 358 358 356 355 357 357 356 359 359
333 318 312 316 317 321 330 327 333 335 330 332 335 332 336 342 343 341 341 342 345 348 350 352 353 353 355 356 358 362 361 362 362 360 361 361 353 353 356 357 360 359 357 358 358 359 357 354 356
323 314 314 322 322 324 329 328 329 328 328 330 331 336 340 341 340 338 338 338 340 343 348 351 351 352 353 358 353 353 353 355 354 353 352 354 352 351 355 357 361 358 359 356 355 362 358 355 348
324 316 320 321 324 327 329 328 331 326 323 329 328 332 337 338 338 339 339 340 340 345 348 351 351 351 351 353 349 351 351 350 350 349 349 349 352 350 350 351 348 347 356 348 353 351 349 350 349
318 324 323 322 323 327 327 330 328 327 327 334 334 336 337 337 337 339 339 341 343 344 347 350 352 350 348 347 349 349 348 348 347 347 348 348 347 347 348 347 346 346 350 347 343 348 347 347 350
321 323 325 326 323 324 331 328 328 328 334 337 337 338 336 337 338 341 342 343 344 344 347 349 350 349 348 344 346 346 347 348 348 347 347 350 348 347 347 346 347 347 348 347 345 344 345 347 348
322 323 323 325 324 325 327 327 328 330 336 335 335 335 336 337 339 340 342 342 343 345 346 349 348 349 348 345 344 345 347 348 348 349 348 351 348 346 346 347 347 346 349 348 346 345 344 345 346
321 316 320 322 321 320 323 319 324 331 335 333 333 334 336 337 339 339 341 342 343 345 346 347 348 348 346 345 345 345 348 351 350 351 349 351 348 346 348 347 347 347 349 347 347 346 341 335 331
304 307 301 309 319 321 319 309 325 331 331 331 332 333 335 336 338 340 342 342 343 344 344 347 349 348 347 345 346 347 348 348 350 352 349 350 349 348 347 345 344 348 346 345 343 342 338 332 330
296 295 299 302 317 316 315 311 325 331 330 330 331 332 333 333 336 338 342 341 342 343 343 344 346 345 347 346 348 347 347 345 345 346 348 349 350 350 347 346 346 349 346 344 343 341 335 326 326
294 294 295 299 313 315 311 311 325 328 328 330 331 332 333 332 333 338 341 343 342 343 344 344 345 345 347 348 348 346 344 344 349 347 347 350 351 353 349 348 347 347 348 346 342 336 333 327 328
300 297 297 301 306 312 312 313 323 326 326 327 329 330 331 331 334 338 340 342 343 343 343 344 344 345 346 344 345 343 342 343 347 346 348 350 353 354 351 347 348 346 345 344 339 332 326 324 329
298 297 296 302 313 312 311 312 322 325 325 326 327 328 330 330 331 335 337 341 341 340 341 344 345 344 346 346 347 345 344 344 345 349 347 349 351 352 353 346 346 346 343 341 337 328 325 326 328
297 296 296 298 309 314 312 309 316 324 324 327 328 329 330 330 328 329 335 339 341 340 341 343 345 345 345 346 346 345 346 344 344 344 347 350 351 353 351 348 346 344 343 340 333 328 325 323 324
294 301 302 301 300 298 311 299 309 316 318 322 326 328 329 330 331 331 334 338 340 340 343 344 345 345 345 346 346 344 342 340 342 345 346 349 352 351 350 348 347 344 341 338 333 332 328 322 323
299 303 301 301 297 296 302 299 304 314 312 315 320 326 328 330 331 331 332 336 340 341 341 344 344 346 346 347 347 346 343 344 342 343 345 347 349 350 351 350 348 343 341 338 334 330 329 322 323
304 300 297 296 294 292 298 302 304 308 313 315 317 322 328 329 330 332 332 335 338 341 341 343 342 345 347 347 348 346 344 341 341 341 342 345 345 348 349 350 345 343 341 337 333 329 329 330 328
299 292 287 285 286 289 296 299 304 310 317 318 319 319 324 329 329 330 330 332 335 338 340 342 342 343 347 347 348 347 346 343 342 342 343 341 342 343 347 348 343 341 339 337 332 328 328 329 326
296 296 286 282 284 289 294 294 301 313 317 321 323 322 323 325 328 329 330 331 333 337 339 341 341 342 347 348 348 347 347 345 344 342 343 343 344 346 349 349 347 342 338 335 332 331 329 328 327
295 293 297 287 288 287 292 298 307 313 314 317 320 321 322 324 326 328 330 330 333 335 338 341 342 343 345 348 348 347 347 345 344 342 342 344 345 346 346 347 346 342 337 333 332 330 329 329 327
300 297 290 285 285 285 287 292 296 306 311 313 317 321 323 325 325 327 329 330 332 335 337 340 343 343 345 347 348 348 347 347 346 344 344 343 343 342 345 345 345 343 338 334 332 330 329 331 329
294 295 291 292 287 288 283 291 300 305 309 311 315 322 324 325 327 326 328 330 332 335 337 340 342 343 344 346 347 347 348 349 350 349 347 345 343 341 342 344 344 343 339 336 334 331 331 329 329
302 298 295 289 287 288 292 291 302 306 307 312 315 319 324 327 328 328 327 329 330 333 336 340 342 343 344 347 347 346 346 347 349 350 350 348 344 342 341 343 344 343 341 339 336 333 334 330 328

GFSSGP_sfc_thetae_042.txt.gz
Theta_e
355 355 351 342 322 320 315 316 323 323 324 329 331 326 324 326 322 317 341 343 348 347 351 353 361 363 362 363 364 363 362 361 361 362 362 363 361 361 361 360 359 359 359 359 358 358 357 357 357
354 351 343 334 317 310 313 321 319 323 327 330 330 328 326 323 333 334 338 344 348 349 351 352 361 364 362 363 364 364 361 361 361 362 362 362 361 361 360 359 358 358 357 357 357 357 357 357 356
353 349 326 322 318 311 311 320 322 326 329 327 327 332 329 327 335 338 341 346 347 348 350 352 363 365 362 362 362 364 364 362 363 363 362 361 361 360 359 358 358 358 358 357 356 355 355 355 354
348 342 334 319 315 319 320 323 326 325 328 331 330 325 333 338 336 341 344 347 347 349 351 357 362 362 362 362 363 363 362 361 361 361 361 361 360 359 359 358 358 358 359 358 357 357 356 355 354
343 334 318 314 316 321 324 328 327 324 326 328 330 325 328 339 342 342 345 346 346 348 351 355 363 363 362 362 363 362 362 361 361 360 361 360 359 358 358 357 358 358 359 357 356 356 356 356 355
325 330 314 310 315 322 327 329 328 327 328 327 327 326 330 340 339 342 346 346 349 349 352 354 361 362 361 361 361 361 361 361 361 360 360 360 358 357 356 356 357 358 358 357 356 355 355 355 356
322 319 314 315 316 319 325 330 326 326 326 326 332 324 332 335 341 344 345 347 349 352 352 352 353 357 360 361 361 361 361 361 361 361 360 360 358 356 356 356 356 357 356 356 356 356 355 356 357
328 322 316 317 315 316 327 329 330 327 326 334 334 322 326 336 342 345 346 347 348 350 351 352 353 353 353 354 360 360 361 361 361 360 359 359 358 357 356 361 358 358 356 356 356 356 356 357 358
333 314 310 315 316 319 329 327 332 334 328 331 333 331 335 341 343 341 342 344 347 349 349 351 352 351 353 354 356 361 360 361 360 359 360 360 356 355 357 358 360 360 357 358 355 357 357 354 358
321 312 313 322 322 322 328 328 328 327 326 329 330 336 339 340 339 337 338 337 342 344 348 350 351 351 353 357 356 355 353 355 356 356 355 356 356 354 356 358 361 362 360 359 357 356 357 352 352
322 315 319 320 323 328 328 327 329 326 321 327 327 332 337 338 337 337 338 338 339 344 348 351 351 352 353 355 353 352 352 352 353 353 352 352 355 353 351 353 352 351 353 352 354 353 353 353 353
317 323 322 321 322 328 327 329 327 326 324 333 333 336 336 336 336 336 336 338 338 342 347 350 351 352 350 350 350 350 350 350 350 350 350 349 349 350 350 350 351 350 352 352 349 352 350 352 352
320 323 324 325 322 328 329 328 327 325 333 333 335 336 335 335 336 338 339 340 340 341 345 349 351 351 350 347 348 348 348 349 349 349 349 350 350 348 350 351 351 350 352 354 351 349 350 351 351
322 322 322 323 322 324 326 326 328 328 333 333 334 333 335 335 336 338 339 340 341 343 344 347 349 350 349 347 345 346 347 348 349 348 348 349 351 349 349 350 351 350 351 353 351 352 351 349 348
318 312 315 321 320 319 328 321 323 330 333 331 332 333 335 336 338 338 340 341 343 344 345 346 348 350 347 345 344 344 346 349 348 349 350 351 352 351 351 350 349 350 350 352 352 350 348 340 335
307 310 304 311 315 319 322 314 325 331 331 329 331 333 334 335 338 339 342 342 344 344 344 346 349 348 346 344 344 345 346 347 350 352 352 352 353 351 350 350 349 351 351 351 349 348 344 336 334
295 294 298 302 311 313 318 311 319 331 330 328 329 332 333 334 337 340 342 343 344 344 344 345 347 346 346 345 345 346 347 348 349 349 351 351 352 352 350 349 349 352 350 349 348 346 341 333 335
294 293 294 299 306 313 310 311 320 328 329 328 329 330 332 333 335 339 341 343 344 344 345 344 346 346 347 346 346 347 346 347 347 347 348 351 352 353 350 350 350 352 351 348 346 343 337 334 334
300 297 297 300 304 310 308 310 320 326 327 327 328 328 330 331 335 338 340 343 342 343 343 342 344 344 345 345 344 345 344 345 347 350 351 351 352 355 353 352 351 351 350 349 347 338 336 332 332
298 296 295 299 303 306 306 309 321 324 326 328 328 329 329 331 333 335 337 340 340 340 342 342 343 344 344 346 347 347 347 345 348 351 350 351 353 355 353 351 350 351 347 346 344 338 333 332 332
295 296 295 297 305 311 309 306 316 323 325 327 330 331 332 332 331 332 335 338 341 340 341 343 343 344 345 346 347 346 346 346 345 347 349 349 352 354 356 353 349 350 348 345 342 336 334 332 331
291 299 300 299 296 292 309 298 307 318 320 323 324 328 330 331 333 332 334 336 339 341 342 343 344 345 346 346 345 344 344 343 344 345 348 351 352 353 354 352 350 349 347 344 340 336 334 331 331
297 302 299 299 296 293 297 298 302 315 316 320 323 325 328 331 332 330 332 336 338 341 341 342 343 345 345 346 346 344 344 344 344 346 347 347 351 353 353 352 351 348 346 345 340 337 334 329 330
303 298 295 293 292 288 294 296 295 306 315 320 324 327 328 329 331 332 332 335 337 341 342 342 342 343 345 345 345 345 344 342 342 342 344 346 348 350 352 352 351 350 347 344 340 338 336 332 333
299 292 285 284 285 288 294 296 299 309 316 320 322 324 328 330 331 332 332 331 335 338 340 340 342 341 344 344 345 345 345 344 344 343 344 344 346 348 350 351 349 347 347 345 340 335 335 335 333
295 292 285 281 281 290 292 291 297 309 317 320 322 324 325 327 331 332 333 333 333 337 340 340 341 341 344 345 345 346 347 346 346 345 345 345 346 349 352 351 351 348 346 344 339 335 333 335 334
292 291 294 286 286 284 289 294 303 308 309 315 318 320 321 323 327 330 332 333 333 335 338 339 340 341 343 345 346 347 347 347 346 346 345 345 348 349 350 351 351 348 346 342 339 335 334 334 334
296 298 290 285 283 281 286 289 294 303 306 310 313 318 321 322 323 328 331 332 333 334 338 340 341 341 343 346 346 347 347 348 347 347 344 344 346 348 348 350 350 348 345 341 338 336 335 334 332
293 291 289 292 286 284 282 288 297 303 306 308 311 317 320 322 323 326 329 332 333 334 336 338 340 341 342 346 347 347 347 348 348 346 345 345 346 346 347 348 348 347 344 341 337 336 335 334 334
302 297 290 290 285 286 286 289 300 303 307 310 311 315 319 323 324 326 328 330 331 331 333 336 339 341 342 344 347 347 348 348 347 347 347 347 345 345 345 347 348 347 345 342 339 336 336 334 334

GFSSGP_sfc_thetae_045.txt.gz
Theta_e
355 357 354 347 324 323 317 319 327 324 325 332 333 329 327 328 323 320 342 347 348 349 355 356 362 364 363 365 366 364 363 362 364 363 363 363 361 361 361 360 360 360 359 359 359 358 358 357 356
355 351 347 336 320 312 316 324 323 327 330 333 332 331 328 325 334 337 341 349 350 351 353 357 363 364 363 364 365 365 361 362 362 363 362 361 361 360 360 359 358 358 357 357 358 358 357 356 356
354 351 330 325 323 314 317 324 327 330 332 330 329 334 331 329 337 340 347 349 350 351 353 361 364 365 362 363 363 364 362 362 362 363 362 361 360 360 359 358 359 358 359 358 357 356 355 355 355
350 346 339 324 316 322 323 327 329 328 331 332 332 327 336 340 340 344 349 350 349 350 353 362 363 362 362 363 363 363 362 363 363 362 361 361 360 359 359 358 359 358 360 358 357 356 355 355 354
349 338 323 319 317 323 328 331 330 327 328 330 331 326 329 340 346 347 348 349 347 349 355 359 364 364 363 362 363 361 361 361 361 361 361 360 359 359 358 359 359 360 359 357 356 356 356 354 354
331 334 319 314 317 323 329 332 331 329 330 330 329 329 332 344 343 346 348 349 350 350 355 357 362 363 363 362 362 361 361 361 360 361 361 359 359 358 357 357 359 359 359 357 355 355 355 355 355
327 324 317 317 317 322 328 334 330 329 328 328 333 326 332 338 344 347 348 350 351 353 355 357 357 360 361 361 361 361 361 361 360 360 360 359 358 356 356 356 357 357 356 356 356 356 354 355 356
332 327 317 319 318 320 331 332 334 330 328 336 336 326 327 337 345 347 348 349 350 353 355 357 357 357 359 359 361 360 360 360 360 360 359 358 358 357 357 359 357 358 356 356 356 355 355 356 357
334 324 316 318 319 323 333 330 333 336 331 332 335 334 338 343 345 345 344 346 349 351 353 354 355 357 359 359 358 360 360 360 360 359 358 359 363 362 359 358 359 358 357 358 357 356 357 354 357
331 323 318 324 326 327 331 332 332 330 328 330 333 337 340 342 342 341 340 341 344 347 350 352 352 354 357 355 360 360 358 358 359 360 361 362 361 361 358 360 360 360 359 358 358 358 357 356 357
328 320 323 324 327 330 332 331 334 329 325 330 331 335 338 339 340 340 340 341 343 346 348 351 354 356 356 356 357 359 356 357 358 362 361 360 360 361 359 360 360 361 357 360 359 360 360 358 359
320 325 326 326 328 328 330 334 330 330 327 333 337 338 338 338 338 339 339 341 344 345 348 352 356 358 358 356 357 358 355 356 355 356 360 358 356 358 361 360 362 361 362 363 360 360 362 361 360
322 325 328 329 329 327 333 330 331 330 335 338 338 338 337 338 338 340 342 343 344 344 347 351 356 358 359 359 358 358 357 354 354 356 356 355 355 361 361 363 361 361 362 363 362 360 360 360 359
326 327 327 326 326 329 330 330 331 332 336 335 336 336 337 338 338 340 341 341 342 344 346 351 354 357 359 358 360 358 357 355 356 354 354 357 355 360 360 361 360 361 361 362 362 365 361 359 356
320 315 317 321 325 325 332 325 327 333 335 333 334 336 337 338 340 340 341 342 343 344 347 350 353 356 358 359 357 357 355 353 352 352 356 356 357 361 363 360 359 358 362 362 362 363 361 350 342
312 315 310 318 324 325 327 317 329 334 333 331 333 334 336 338 340 342 343 344 346 345 347 350 350 353 356 358 357 355 353 352 352 352 354 357 359 362 363 359 359 362 361 365 365 359 356 342 339
306 305 308 312 321 321 324 317 326 335 333 332 332 334 335 337 340 342 345 346 347 349 349 349 352 352 355 357 356 355 354 352 352 353 357 360 363 362 361 360 359 363 359 360 357 357 353 343 342
302 303 306 308 313 317 320 318 322 333 333 332 332 334 335 335 337 342 345 347 349 350 352 353 353 354 356 355 355 353 351 351 355 356 357 361 363 364 363 356 357 361 358 355 353 357 350 346 345
305 305 307 310 312 314 314 315 319 330 332 332 333 333 334 335 340 343 345 347 348 350 351 353 353 356 354 351 349 348 345 350 354 357 361 361 362 364 364 358 359 358 364 360 361 356 351 345 346
304 303 305 308 308 309 311 312 319 327 330 333 332 333 334 335 338 341 344 346 347 348 351 353 354 356 355 352 353 350 351 352 355 358 361 363 362 364 363 361 359 361 357 360 358 353 346 342 344
302 301 304 305 307 313 312 310 318 326 331 333 334 335 334 336 336 339 342 344 347 348 351 354 356 358 356 357 354 354 355 355 353 354 357 360 362 363 364 359 359 362 360 355 358 353 348 339 344
299 305 304 305 304 301 314 303 315 322 326 329 332 334 334 335 338 339 340 343 345 349 350 355 355 358 357 360 355 356 349 348 351 355 357 358 362 362 363 364 363 362 359 359 357 353 348 344 339
302 306 304 304 304 304 305 304 309 320 321 325 330 333 335 337 337 338 339 343 345 348 348 351 355 357 358 358 358 354 354 352 354 355 360 363 363 362 362 363 364 362 359 360 358 352 348 343 341
308 305 304 303 303 297 303 303 306 313 320 325 329 332 335 337 338 340 342 343 344 347 348 349 354 356 358 358 358 357 356 356 352 354 353 354 355 357 363 363 363 363 361 360 357 355 351 347 342
306 302 295 294 294 295 305 301 305 312 320 324 328 331 333 336 338 340 341 340 345 346 349 351 353 353 356 356 357 357 357 358 358 357 353 355 352 353 360 363 363 361 363 361 359 355 351 348 343
303 302 296 290 292 296 302 299 305 313 316 323 326 330 333 335 337 339 343 343 343 346 348 350 351 352 354 355 356 358 359 356 356 357 354 353 353 354 362 361 363 363 362 361 359 353 350 350 346
302 300 305 298 297 295 300 304 309 313 315 317 324 327 330 333 336 337 339 342 343 344 348 350 351 352 354 355 356 357 358 358 356 360 361 355 361 356 359 361 361 362 362 361 359 353 350 347 347
304 306 296 299 291 290 296 298 301 310 312 317 320 325 328 332 334 336 340 342 344 344 347 351 352 352 354 355 356 355 356 358 359 360 359 360 362 360 359 361 362 363 362 360 358 355 353 348 345
300 301 301 301 298 293 292 297 309 312 316 316 318 324 326 328 330 333 338 343 345 346 344 348 350 352 353 354 355 356 356 357 359 358 359 360 362 362 361 361 361 361 360 360 357 356 352 348 347
305 303 302 297 296 297 298 298 309 313 316 318 319 322 325 328 330 332 333 338 341 344 344 345 348 349 351 353 355 355 357 358 357 358 359 361 360 362 362 362 360 360 360 359 356 354 351 349 346

GFSSGP_sfc_thetae_048.txt.gz
Theta_e
355 356 355 349 327 327 322 322 330 328 329 335 336 333 329 334 326 324 346 346 349 352 353 358 362 362 364 365 366 365 364 363 363 363 364 362 361 362 361 361 361 361 360 359 359 358 358 358 358
355 352 352 341 325 321 321 327 326 330 334 337 336 335 332 328 336 338 345 347 350 352 357 360 361 364 364 365 365 365 362 363 364 364 362 362 361 360 359 359 359 358 358 359 359 358 357 356 356
354 352 338 330 324 320 321 327 330 334 336 334 332 338 335 331 340 343 348 350 353 353 355 360 363 366 364 363 363 363 362 363 364 362 362 361 361 360 360 360 359 359 358 357 358 357 357 356 356
351 346 341 326 321 325 326 330 333 332 334 335 336 331 338 343 343 348 349 351 351 353 356 361 365 363 363 363 363 363 364 363 362 362 361 361 360 360 361 359 359 359 359 359 358 357 356 355 354
351 342 328 324 322 327 332 334 333 330 332 333 335 329 332 341 347 350 349 349 351 351 355 360 365 365 365 364 363 362 363 363 363 362 361 360 360 360 360 359 360 360 358 358 358 357 356 355 355
339 338 322 321 321 327 333 335 334 331 333 333 332 330 333 346 345 348 350 349 351 351 352 357 364 364 363 364 363 362 361 361 361 361 361 360 359 359 358 359 360 359 358 357 356 356 355 356 356
335 329 322 322 322 325 331 337 332 331 331 331 337 330 337 341 346 348 350 349 350 351 351 355 358 362 363 363 362 362 362 361 360 361 361 359 358 357 357 357 358 357 356 356 356 356 355 355 357
339 331 322 321 320 322 334 335 337 332 331 340 340 330 332 342 347 348 349 349 350 351 351 354 357 358 360 360 361 361 361 361 361 360 359 359 358 358 359 359 359 357 356 355 356 356 355 354 358
340 326 320 320 322 326 336 332 336 338 334 335 338 338 342 346 345 345 346 345 346 349 351 351 353 356 358 357 359 360 361 361 360 361 359 359 361 362 361 358 359 358 357 357 357 357 358 355 359
334 327 321 328 329 329 334 333 335 332 332 332 336 341 344 345 343 342 343 344 347 348 349 350 351 353 356 352 360 358 357 356 358 361 362 364 363 364 360 360 358 357 358 357 357 358 359 359 355
333 325 327 327 330 333 334 334 337 331 327 333 334 338 342 344 344 344 344 346 348 349 348 349 352 354 354 353 355 355 354 356 358 363 363 364 364 364 364 362 360 361 358 359 359 359 358 355 354
326 330 329 329 331 330 331 336 334 333 330 337 340 342 341 342 342 342 343 345 347 349 349 350 353 356 356 354 353 354 351 353 353 356 361 363 359 363 366 361 361 363 362 360 360 360 359 360 358
327 329 331 332 331 330 333 332 333 333 336 339 341 341 340 341 342 344 345 346 348 348 349 352 355 358 358 358 354 354 352 350 351 355 358 359 360 364 363 366 363 362 361 361 359 361 360 359 356
327 329 330 330 329 329 331 332 335 336 339 338 338 339 340 341 342 343 343 344 347 348 349 353 355 358 359 358 361 358 356 352 353 352 355 359 359 364 363 362 362 362 364 361 361 358 358 357 356
328 323 326 325 326 328 333 328 330 338 339 337 337 339 339 341 343 343 344 344 347 347 349 351 354 357 360 360 361 359 354 352 350 350 356 359 361 363 368 364 360 362 363 362 362 361 360 351 348
316 317 314 323 325 328 330 319 331 339 338 336 337 337 338 341 342 345 345 346 347 348 349 352 352 355 359 361 360 356 353 351 350 350 354 359 361 365 366 361 362 363 364 362 358 358 356 349 345
313 311 314 318 326 325 326 321 330 338 337 336 336 337 337 339 342 344 345 346 347 348 350 352 354 353 357 361 359 358 358 353 350 352 355 361 363 365 366 360 364 368 362 361 361 358 356 350 348
309 310 315 316 321 323 322 322 325 334 335 336 337 338 337 337 339 344 345 346 348 349 351 353 353 356 359 357 359 355 352 351 351 354 356 363 366 367 367 363 365 364 360 359 362 356 358 353 349
313 312 312 317 321 319 319 320 322 327 333 334 336 337 337 337 340 343 345 346 347 349 351 353 354 361 358 355 352 350 347 350 351 356 363 366 367 368 370 363 364 363 359 357 358 357 355 353 352
310 309 310 316 317 315 317 317 321 324 331 334 336 337 338 339 339 341 344 345 346 349 352 355 357 360 361 356 355 352 351 349 352 357 363 366 366 369 368 370 362 365 360 358 358 357 354 352 348
309 308 309 311 315 316 315 313 317 323 328 333 336 339 340 339 338 340 342 344 346 347 351 354 360 362 362 362 356 354 352 353 352 356 358 364 366 367 369 367 366 365 361 356 359 358 357 347 349
305 311 310 309 309 307 316 307 317 320 324 329 333 336 338 340 341 340 341 344 344 347 351 356 360 362 363 362 359 361 347 345 349 355 357 358 364 365 365 367 366 369 360 361 360 359 357 354 343
306 311 309 309 308 308 310 307 312 320 319 325 331 335 338 340 341 340 340 342 346 348 350 354 360 364 365 364 364 357 356 347 352 355 366 370 369 366 363 366 365 366 364 364 364 361 360 352 346
310 308 308 308 307 301 307 308 309 314 319 323 329 334 337 339 341 343 342 343 345 349 351 354 360 367 366 364 362 366 364 358 353 358 356 357 358 359 366 364 367 369 367 365 364 364 362 357 353
308 305 299 297 298 298 309 307 310 316 320 324 326 330 336 340 340 342 344 342 344 346 349 353 362 365 366 363 363 363 364 365 365 362 357 361 354 354 362 366 365 365 369 367 367 365 361 359 354
306 305 300 295 297 300 308 303 309 319 321 322 327 329 336 339 341 342 344 345 345 346 353 356 361 363 362 362 366 368 369 358 358 363 357 356 355 355 362 362 365 367 366 367 367 363 360 359 356
306 303 308 303 304 301 305 309 314 317 318 320 322 325 328 334 340 342 344 346 347 349 353 359 362 365 365 362 368 368 367 367 360 367 369 360 367 358 361 362 364 365 366 367 368 362 361 359 358
309 310 301 303 296 295 301 303 305 312 314 319 320 322 327 330 336 341 344 346 348 350 352 357 362 365 365 364 365 363 366 368 368 369 368 369 368 368 362 362 362 364 366 367 368 364 363 360 355
306 305 306 306 303 298 297 302 313 313 316 317 320 323 326 329 334 340 343 345 348 350 350 353 357 361 361 363 365 366 365 364 366 365 369 370 371 372 367 367 363 362 365 367 367 366 363 360 358
309 307 307 301 300 303 302 304 313 314 316 319 320 323 326 330 332 338 341 344 345 347 349 350 352 354 357 362 365 365 367 367 365 366 368 370 370 373 372 369 367 364 364 368 366 363 361 359 357

GFSSGP_sfc_thetae_051.txt.gz
Theta_e
354 355 353 346 330 329 319 322 326 327 328 336 337 333 333 335 330 323 344 347 346 349 353 358 363 364 365 367 367 366 365 363 363 363 363 362 362 362 362 361 362 360 360 360 359 359 358 358 357
352 353 350 340 326 316 321 326 323 330 335 339 337 335 333 329 339 341 341 348 350 350 355 360 363 365 366 365 366 365 363 363 363 363 362 361 361 360 359 359 358 359 360 360 359 358 358 357 357
356 353 339 333 327 317 317 326 329 333 336 335 334 337 336 333 342 344 345 352 351 355 358 362 363 366 364 363 364 364 365 364 363 362 361 361 360 360 361 360 360 359 358 358 358 358 357 356 356
351 347 341 326 318 325 324 329 332 332 335 337 335 331 340 344 345 348 350 352 350 354 358 362 365 363 364 362 362 363 363 363 363 362 361 361 361 360 360 360 361 360 359 359 358 357 355 355 355
350 343 328 322 320 327 329 332 332 330 332 334 335 331 333 343 349 349 350 351 351 353 356 360 366 366 364 363 364 364 364 363 362 361 361 361 361 360 361 361 361 359 359 358 358 358 357 357 356
337 340 324 315 320 328 331 333 332 332 333 335 335 334 336 345 344 346 349 349 352 351 353 357 365 365 366 363 363 363 363 363 361 361 360 360 360 359 360 360 360 359 358 357 357 357 357 356 357
335 332 323 323 320 325 328 334 331 331 332 334 338 331 339 343 346 348 349 350 349 348 350 356 358 362 365 363 362 362 361 361 361 360 360 359 359 359 358 359 359 358 358 358 356 356 356 356 358
338 333 323 321 319 320 330 333 332 332 333 341 343 333 333 343 347 348 349 347 346 347 350 354 356 358 360 360 362 362 362 361 360 360 360 359 359 360 360 360 359 358 357 357 356 355 355 357 359
343 328 322 318 321 322 332 328 335 337 335 337 339 341 345 347 346 345 344 344 346 345 348 350 352 355 357 356 359 361 362 362 361 360 360 361 362 361 361 363 359 359 359 359 358 359 359 358 360
334 327 321 326 326 326 330 327 329 331 332 333 337 344 346 346 343 341 341 341 344 344 346 348 350 352 354 351 358 356 356 356 361 360 363 359 363 362 357 362 361 360 360 359 361 362 362 360 358
332 324 329 327 329 332 329 328 331 329 328 333 335 340 343 344 342 342 342 344 347 347 345 346 350 354 353 356 353 353 353 354 359 363 363 363 362 361 359 359 357 360 360 358 361 357 355 357 353
325 331 330 329 332 331 328 330 329 329 329 336 340 343 343 343 343 344 343 345 347 347 347 348 351 356 356 353 352 351 350 353 354 359 364 363 359 358 360 357 360 364 362 361 361 353 359 356 355
326 328 331 332 332 331 332 329 330 330 333 337 341 343 342 343 344 346 346 347 348 347 347 349 352 357 357 358 353 351 350 350 351 357 360 358 357 361 356 361 357 357 362 359 359 360 357 357 355
328 329 331 332 330 331 328 330 334 334 337 337 338 340 342 343 344 345 345 346 347 348 347 349 352 357 358 358 362 355 353 351 351 352 357 361 358 362 361 359 360 360 358 356 359 359 355 357 355
329 324 329 330 330 328 331 326 328 336 338 337 336 339 340 343 344 344 345 345 347 348 349 350 353 356 358 359 359 358 354 351 350 350 358 359 361 362 365 358 360 362 364 362 363 359 362 348 349
323 325 319 327 328 328 328 320 329 339 337 336 336 336 339 341 343 345 346 347 348 349 350 352 351 354 357 360 360 356 352 351 350 349 353 360 362 365 367 363 360 368 362 358 356 355 348 349 344
316 313 315 320 327 326 326 318 326 339 337 336 337 335 336 339 342 345 345 346 347 349 350 351 353 352 356 362 360 359 363 353 350 349 352 363 363 364 365 361 358 368 357 361 356 354 356 349 344
310 311 315 316 323 325 323 321 326 335 335 336 337 337 336 337 339 344 345 346 347 349 351 354 353 361 366 361 363 356 352 352 351 350 353 364 363 366 367 362 364 365 358 359 359 358 353 349 344
316 314 313 319 323 323 321 322 326 331 332 334 337 338 337 337 341 343 344 345 346 347 350 355 358 366 360 354 352 352 348 351 349 350 361 362 364 367 365 361 363 361 361 358 358 355 355 349 348
316 314 314 319 322 323 320 320 325 327 330 332 335 337 339 339 339 341 343 344 345 347 353 359 361 367 364 357 359 353 354 349 349 351 364 364 365 368 368 369 362 354 355 361 358 357 351 345 344
316 312 313 314 319 322 318 317 320 325 327 332 334 339 340 340 339 339 341 343 344 347 353 357 363 366 366 365 361 360 357 355 349 351 355 361 365 366 369 368 362 365 363 359 361 358 357 346 344
307 314 314 313 314 310 318 307 317 321 322 327 332 336 338 341 341 340 339 341 343 346 350 359 366 368 367 369 360 361 349 345 347 350 353 359 366 365 365 368 365 365 361 367 362 357 358 355 343
309 314 313 313 311 312 313 310 315 321 320 323 329 333 336 340 342 341 339 341 344 345 347 355 366 368 369 369 366 357 356 347 349 350 364 366 372 370 363 368 367 366 360 368 363 363 362 355 349
314 311 312 312 310 303 310 311 312 316 321 324 328 331 335 339 341 343 343 341 343 345 346 350 363 369 372 372 368 368 362 357 346 352 352 355 357 360 370 365 371 372 368 368 366 367 364 361 355
310 307 301 300 301 301 311 309 312 319 322 324 327 330 334 338 340 342 342 340 342 344 346 350 362 367 371 371 369 366 368 366 363 364 355 360 353 353 365 372 373 365 374 369 372 371 367 362 358
308 307 301 296 298 302 310 305 310 319 323 325 328 330 333 337 340 341 344 342 343 347 351 354 361 366 370 370 371 372 370 360 358 361 357 355 354 355 371 373 369 370 371 369 374 364 362 366 359
308 305 310 305 307 303 306 311 316 319 320 322 323 328 330 335 338 341 343 345 344 348 354 357 361 366 370 369 371 372 371 369 361 364 368 358 368 356 363 366 368 370 370 372 374 362 367 365 363
311 313 303 305 300 299 304 307 308 314 317 321 322 324 329 334 338 340 342 345 348 347 353 358 361 367 368 369 370 370 371 372 369 368 369 367 367 371 369 368 367 368 371 372 374 367 369 369 360
308 308 308 307 305 300 300 305 315 316 319 319 321 324 327 331 336 339 340 345 350 350 349 355 360 363 367 369 370 371 370 371 372 368 370 370 375 375 371 373 369 369 369 372 373 371 369 368 366
312 309 310 304 303 305 305 306 316 317 318 320 321 324 327 330 332 336 340 344 346 349 349 351 354 357 365 367 369 369 371 371 370 371 370 374 372 376 376 372 373 369 369 371 372 368 363 367 365

GFSSGP_sfc_thetae_054.txt.gz
Theta_e
353 353 352 346 327 327 318 321 329 326 328 335 336 334 331 334 329 320 343 345 344 347 353 358 365 367 367 366 365 365 365 364 363 364 363 362 362 364 363 363 361 361 361 361 360 359 358 358 358
351 351 349 340 322 312 317 326 324 328 333 337 336 334 333 329 336 336 339 344 347 347 351 357 363 366 365 367 367 366 364 364 364 365 364 363 363 362 359 359 360 361 360 360 359 359 358 358 357
352 352 338 331 325 315 315 327 328 332 336 335 334 339 336 332 338 339 343 343 349 349 357 362 364 365 367 366 366 366 365 364 365 364 363 362 362 362 361 360 359 359 359 359 359 358 358 357 357
347 347 341 324 318 323 323 327 331 331 335 337 336 331 339 343 341 342 347 350 347 352 356 361 364 365 365 366 366 366 363 365 365 363 361 361 361 361 361 361 361 360 359 358 358 357 357 356 356
349 344 328 322 319 324 329 332 333 330 332 335 336 330 333 342 345 347 348 347 348 351 356 360 365 366 365 366 366 364 365 364 364 362 361 361 362 361 362 361 361 360 359 359 358 358 358 358 357
338 340 317 314 319 325 328 333 331 332 334 336 334 333 335 346 343 347 348 349 351 351 354 358 364 367 366 366 365 366 364 363 363 362 361 360 361 361 362 362 361 359 358 358 358 358 358 358 358
333 331 322 317 319 323 326 333 328 330 332 334 338 330 336 341 345 348 349 351 350 349 353 357 356 362 365 366 363 364 363 362 361 361 360 360 360 360 361 360 360 359 359 358 357 357 357 358 359
334 329 324 321 318 320 329 330 331 333 332 341 341 330 329 339 345 349 349 348 348 347 351 356 357 362 359 358 363 362 362 362 361 361 361 360 360 360 360 364 362 359 358 358 357 357 358 356 359
338 325 320 321 322 324 329 327 334 337 337 339 341 339 340 343 346 345 346 343 344 347 349 351 352 359 358 359 359 362 362 361 361 361 361 361 361 360 360 364 364 360 359 358 358 359 356 357 359
330 322 322 329 326 325 326 329 330 329 331 335 338 342 343 344 344 340 341 339 340 343 346 349 349 352 355 350 359 360 358 358 360 361 358 360 363 363 358 361 366 364 363 361 359 359 357 358 356
330 322 327 328 328 330 326 326 330 328 326 336 335 338 341 341 341 341 340 343 343 342 344 346 351 354 352 353 356 356 355 358 360 364 355 361 359 360 361 359 358 361 362 359 355 354 353 358 357
325 327 326 328 330 328 324 326 326 328 330 339 341 341 341 339 340 340 340 342 344 343 344 347 354 358 358 357 353 354 353 355 358 364 371 370 364 359 351 355 359 355 359 354 353 352 355 355 353
325 327 331 331 333 327 328 327 326 327 333 339 342 341 340 340 341 342 343 344 348 344 345 348 356 361 368 364 356 353 358 356 355 363 367 364 355 356 360 357 354 359 354 353 351 359 356 350 351
328 327 329 330 329 332 328 328 327 327 333 336 339 339 340 340 342 344 344 345 346 348 347 350 355 360 364 367 372 363 367 358 362 361 362 369 363 361 352 362 356 358 358 356 358 364 360 362 358
326 322 325 328 329 328 329 324 326 329 332 332 336 338 340 342 343 344 346 346 347 349 348 350 352 357 362 365 366 367 365 354 358 362 366 366 368 370 366 360 357 362 363 365 362 363 355 347 353
320 321 316 324 329 330 328 318 324 333 333 331 334 336 338 341 341 347 347 347 349 346 349 352 348 354 359 362 365 362 360 358 360 358 359 365 368 373 371 358 359 362 361 354 361 353 356 354 348
319 313 317 320 327 327 324 320 326 330 330 332 333 334 336 339 342 344 344 347 347 348 351 352 353 353 357 363 363 361 363 365 362 360 361 365 367 370 367 356 352 353 357 359 360 350 360 351 350
312 312 317 317 324 326 321 323 324 328 329 328 333 334 335 336 338 344 344 345 347 350 354 353 354 360 359 360 363 360 359 361 360 362 361 366 368 368 367 361 355 362 361 355 358 357 358 354 349
316 313 313 317 321 322 320 322 323 325 325 327 333 333 333 335 340 343 344 346 347 350 353 353 357 362 359 357 355 356 351 357 359 361 364 368 371 371 371 367 363 363 362 363 363 360 359 344 350
315 313 312 316 322 320 319 322 323 323 327 330 332 334 335 335 337 342 344 345 345 348 351 354 356 361 361 358 358 356 358 355 354 358 364 368 367 372 370 368 363 368 356 360 364 361 349 354 350
314 313 313 312 320 322 320 316 322 327 332 334 334 337 337 337 336 339 342 343 345 347 351 354 357 363 362 361 361 363 362 362 355 354 356 362 367 370 371 368 366 366 367 360 363 361 358 343 348
307 316 316 314 315 310 320 307 320 322 323 328 332 334 336 338 339 338 340 342 343 347 351 355 358 360 361 363 357 358 349 347 349 354 356 360 365 367 370 369 368 369 367 360 360 363 363 359 347
310 315 316 315 311 312 313 311 313 321 319 322 328 333 334 339 339 339 339 342 344 347 350 353 358 359 362 359 362 355 354 350 355 354 358 364 367 367 367 369 369 369 365 364 359 363 363 363 353
314 311 312 312 310 304 309 310 312 315 320 323 326 331 335 336 340 341 341 343 343 346 349 353 357 358 361 362 359 363 355 355 348 354 354 358 360 364 367 368 368 368 366 367 365 365 365 363 361
311 306 300 299 301 301 310 308 313 320 323 324 326 330 334 339 340 341 341 340 342 344 346 350 357 359 361 362 361 359 364 356 356 359 353 356 356 357 361 365 369 366 368 370 368 367 367 365 362
308 306 301 295 297 301 309 305 310 321 324 327 329 330 332 335 340 342 343 341 342 343 347 349 355 358 361 361 364 363 362 362 354 356 356 353 358 357 366 364 364 367 368 366 370 368 365 365 362
307 304 309 303 305 302 305 309 315 319 320 323 323 329 331 333 338 341 344 343 342 344 346 348 353 357 360 362 364 365 362 360 361 356 360 362 361 358 376 366 365 367 369 368 366 365 364 366 363
310 312 302 304 297 297 302 306 308 314 318 321 321 322 329 333 337 340 343 344 343 344 347 349 353 356 361 363 364 364 366 361 360 364 357 357 364 373 375 367 367 366 366 368 366 365 366 363 362
307 307 307 306 304 298 298 304 317 318 319 320 321 325 327 332 335 339 342 346 345 345 346 348 349 357 360 363 365 364 365 366 363 359 362 360 363 364 367 372 366 364 365 365 366 365 364 363 362
311 308 309 303 302 304 304 305 317 319 322 322 323 326 327 330 335 339 343 345 346 346 346 348 350 352 360 364 365 364 366 366 365 362 362 364 364 370 366 368 368 364 363 364 365 363 360 363 361

GFSSGP_sfc_thetae_057.txt.gz
Theta_e
353 351 350 345 324 324 317 320 328 326 327 335 336 333 330 333 327 318 340 341 343 347 354 359 364 364 363 365 365 364 363 363 364 362 363 363 362 363 362 362 362 361 362 361 359 358 358 358 358
349 348 349 338 322 309 313 325 324 328 333 335 335 334 331 326 334 335 335 341 345 350 354 359 365 365 364 364 365 365 363 362 364 365 363 361 360 360 361 362 361 361 360 360 359 359 358 358 356
348 350 336 327 321 313 315 325 327 332 336 335 332 336 334 329 336 336 340 342 346 348 355 359 366 367 365 365 365 366 364 362 363 362 361 362 362 361 360 359 360 360 360 360 359 358 358 357 357
345 344 338 322 317 322 323 326 331 332 335 336 334 329 336 338 337 340 341 343 347 353 357 362 364 366 366 365 366 363 363 363 363 362 362 361 361 361 362 362 360 359 359 359 358 358 357 357 356
348 338 323 319 319 323 329 332 331 330 332 333 334 328 329 337 340 340 340 345 349 352 357 359 366 367 366 366 364 364 363 363 362 363 362 361 361 362 361 361 360 360 360 359 358 358 358 357 359
334 333 317 312 317 324 328 332 333 332 334 333 331 330 332 337 337 342 345 346 351 353 356 357 363 366 367 364 363 365 363 361 363 364 362 361 362 363 365 361 360 360 359 359 359 359 359 360 359
332 327 317 317 318 322 327 332 331 332 332 331 336 329 332 334 342 344 345 347 351 353 354 355 356 358 364 365 364 364 362 362 362 362 361 360 360 361 362 362 362 360 359 358 358 359 362 361 359
336 329 318 322 319 320 328 329 336 334 331 339 339 328 326 337 342 344 346 346 347 351 352 351 353 355 355 358 363 363 362 362 361 361 360 360 359 360 360 364 365 359 358 358 357 359 361 362 360
341 323 316 320 320 322 329 328 334 339 335 337 338 337 337 341 344 343 343 344 344 348 348 350 354 353 351 353 357 362 362 363 362 360 361 361 354 354 356 360 364 360 361 359 358 362 361 361 359
331 315 321 328 328 325 328 328 331 333 333 331 334 339 341 341 342 340 340 339 338 342 346 347 352 351 350 354 353 353 356 355 355 355 353 354 354 353 358 361 365 363 360 360 360 360 359 355 351
327 320 327 326 329 330 324 325 330 331 328 331 330 334 338 340 339 339 340 339 338 342 345 345 349 350 349 350 352 352 352 352 355 344 346 353 357 355 354 355 355 353 356 342 353 351 348 353 352
322 328 328 327 329 326 323 327 327 331 334 337 336 337 339 338 337 339 338 338 338 340 342 343 345 348 346 348 349 351 350 351 353 352 349 350 352 354 350 352 355 349 352 350 352 347 351 351 352
321 326 328 328 328 328 330 325 325 334 339 340 338 338 338 338 338 340 340 340 339 338 340 342 346 349 348 347 347 347 348 349 353 356 354 354 352 348 352 351 349 347 349 350 349 350 351 349 346
321 326 327 328 327 330 328 327 327 335 339 337 337 336 338 338 339 338 339 338 338 338 340 345 345 351 351 350 351 352 347 348 355 354 353 351 352 352 352 353 352 353 351 347 346 351 349 349 347
319 318 326 326 327 326 330 323 324 331 337 335 335 336 337 338 339 338 340 339 342 340 345 344 347 350 347 348 349 351 349 346 344 354 353 352 353 353 354 347 353 354 354 350 352 355 350 345 344
314 315 312 320 325 327 327 315 326 329 330 332 335 336 337 337 339 340 341 341 343 342 345 346 348 349 349 349 350 353 350 348 342 352 352 350 352 356 352 349 349 350 355 352 352 346 344 342 343
311 307 309 314 323 325 323 315 323 329 330 331 333 335 336 337 339 340 341 343 342 342 343 346 347 347 350 350 353 350 350 351 348 346 350 351 353 358 353 348 348 350 351 347 348 346 346 345 346
304 306 309 312 319 322 319 318 320 325 330 330 329 330 335 336 337 341 343 345 343 343 344 343 346 348 349 351 352 349 349 351 345 347 350 354 355 357 355 351 349 349 354 349 350 346 347 344 335
312 311 309 315 321 320 318 318 322 327 328 328 328 328 330 334 339 341 344 345 344 344 344 344 345 349 348 350 348 348 344 346 343 345 353 356 357 357 356 352 350 352 350 350 348 345 343 340 333
310 308 308 313 317 318 319 317 322 323 324 325 327 330 331 333 334 338 338 340 341 344 342 345 345 350 349 352 349 347 347 346 345 346 346 357 358 359 357 354 352 353 350 351 348 346 342 342 335
308 307 308 309 313 317 319 315 318 322 325 328 330 332 333 332 332 335 336 338 340 343 344 343 347 352 350 351 351 348 349 345 343 343 342 354 355 358 357 356 354 352 351 348 347 347 343 338 334
303 311 312 312 310 303 314 304 313 320 322 323 328 330 329 331 333 335 336 337 339 342 346 344 349 351 352 351 350 347 343 340 342 341 345 351 355 358 359 357 355 352 353 350 349 351 346 341 337
305 311 310 310 308 308 308 305 312 319 316 320 326 330 328 332 333 334 336 338 339 343 345 346 347 353 352 352 348 347 343 342 340 343 342 347 353 356 362 358 355 354 352 351 350 350 349 348 339
313 309 307 307 306 299 302 306 305 313 316 321 327 331 332 333 334 335 338 338 338 343 346 348 347 349 351 350 350 346 344 341 340 339 342 347 355 356 357 360 357 357 355 352 352 351 349 345 348
309 302 294 293 295 296 301 302 305 314 317 324 328 330 332 334 334 333 335 336 338 340 343 347 347 347 352 350 348 349 347 345 341 339 341 346 350 354 355 357 357 356 355 355 354 353 351 349 346
305 303 293 287 289 295 300 296 303 313 318 322 329 332 334 334 335 334 334 336 337 339 343 346 348 347 350 353 350 347 350 350 346 347 345 343 348 352 355 357 359 357 356 356 356 353 355 352 349
302 300 302 292 295 292 296 301 308 312 312 316 321 329 331 333 335 335 335 336 336 338 341 344 347 348 350 351 353 352 348 352 349 344 348 350 346 352 355 356 355 359 357 355 353 357 354 354 352
305 305 297 297 287 289 295 297 301 305 309 311 313 322 326 332 335 336 336 335 337 338 341 343 348 349 351 351 353 354 354 350 353 350 346 346 348 352 352 356 356 358 359 358 354 355 357 353 353
303 300 301 296 294 289 289 296 306 308 311 311 314 316 325 328 335 336 337 336 338 338 340 342 344 350 351 354 352 355 357 356 351 353 352 348 347 350 359 359 357 357 357 358 356 352 354 354 353
307 303 300 296 291 293 292 296 311 310 314 314 315 316 320 328 336 337 338 337 337 337 338 340 344 348 352 353 355 353 356 359 355 350 351 351 349 352 352 360 359 358 357 356 356 355 356 354 353

GFSSGP_sfc_thetae_060.txt.gz
Theta_e
353 352 349 345 322 321 316 319 328 326 327 332 332 330 328 330 325 313 338 340 345 348 355 358 364 364 362 363 363 363 362 363 362 362 362 362 362 362 362 362 361 361 359 358 358 359 358 358 353
349 348 346 337 321 308 313 325 324 328 332 334 335 333 330 325 334 333 333 342 347 353 356 357 364 364 362 362 363 362 362 362 363 362 361 361 361 362 362 362 361 361 361 359 359 358 357 357 356
348 348 334 327 320 312 314 323 328 332 334 334 331 335 332 328 334 334 338 344 350 354 357 358 365 364 361 361 363 362 362 362 361 360 360 360 359 358 359 361 361 361 360 359 358 357 357 357 357
343 344 338 322 317 322 323 327 330 331 334 336 334 327 333 338 334 337 342 347 350 354 358 364 364 361 362 362 363 363 362 361 361 362 362 361 361 360 361 359 359 359 359 358 357 356 356 356 357
346 338 322 317 318 324 328 332 331 329 331 332 333 325 327 336 340 340 341 350 351 353 357 360 365 365 365 362 363 362 363 362 361 362 362 362 362 361 361 360 360 359 359 358 356 355 354 355 356
335 331 317 313 317 324 327 332 332 332 332 331 329 328 327 337 336 338 343 350 354 354 356 359 365 366 365 363 363 362 362 361 362 362 362 362 363 362 361 360 360 360 359 358 358 357 356 355 355
330 326 317 317 319 322 327 333 329 331 330 329 335 325 326 331 336 339 345 351 353 355 354 355 357 358 363 363 363 363 361 361 362 361 361 361 361 362 361 361 360 359 358 357 357 358 356 356 355
334 327 318 319 315 320 329 332 335 333 330 338 336 322 320 330 340 342 349 349 351 352 353 352 351 353 356 357 363 362 361 361 361 360 360 359 359 360 360 362 363 360 359 359 357 357 357 357 355
340 325 315 319 321 323 330 329 336 338 333 336 337 331 330 339 341 342 344 346 347 350 349 351 351 352 353 354 358 362 362 361 361 360 360 361 352 353 355 359 360 359 359 358 357 356 358 357 356
330 321 321 327 327 325 329 330 332 331 331 332 333 333 337 340 338 338 339 341 343 344 346 350 351 349 349 355 352 352 354 355 354 354 354 352 351 352 355 358 361 360 359 359 360 359 358 356 350
327 321 325 328 330 330 328 329 335 330 327 331 328 332 337 336 338 338 338 341 341 343 346 350 351 347 348 349 350 351 351 352 352 351 347 349 354 353 355 352 356 353 352 337 346 346 348 349 349
317 325 327 327 329 328 325 328 332 333 331 337 335 336 337 336 337 338 338 339 340 343 344 348 350 347 346 348 350 350 350 350 350 348 344 350 349 351 352 350 351 351 351 345 348 347 347 349 350
317 322 328 330 328 327 329 327 331 332 335 337 337 337 336 336 337 340 340 339 340 341 342 344 348 347 346 345 345 347 347 349 351 352 347 352 348 346 348 349 347 347 348 347 347 347 349 349 349
316 318 326 327 323 326 327 329 333 332 336 334 335 335 336 337 337 339 338 337 338 340 341 343 344 346 345 344 341 344 344 346 350 353 352 352 345 347 348 347 347 348 348 347 347 346 348 345 345
312 309 318 326 323 326 329 322 327 334 334 332 333 334 336 336 338 337 337 337 338 339 341 341 343 346 345 344 345 348 348 346 351 352 351 349 348 350 348 347 348 350 349 346 346 347 347 344 341
308 308 304 319 323 328 327 314 328 335 332 330 332 334 335 336 337 338 339 338 338 338 338 341 345 348 346 347 346 349 346 343 346 351 351 351 351 352 349 349 350 350 351 350 348 346 341 339 341
302 299 304 310 323 325 324 318 324 335 332 330 331 333 334 335 337 338 340 340 340 339 340 341 343 346 343 345 346 347 348 347 343 348 348 349 353 354 348 347 348 348 348 346 346 342 342 343 343
297 301 304 308 320 324 321 318 322 327 332 331 332 333 333 334 336 338 340 341 341 341 343 342 342 345 345 346 345 346 345 346 345 343 347 348 351 353 349 347 346 346 349 345 347 341 346 342 333
306 305 305 310 321 322 319 317 321 324 326 330 331 332 332 333 337 339 340 341 341 341 343 342 342 343 345 343 344 342 340 343 343 342 347 350 352 355 351 348 347 345 348 346 346 342 340 336 330
305 304 306 311 315 317 319 318 322 322 322 328 331 332 333 334 335 337 339 340 340 339 342 342 343 343 345 345 344 345 343 342 344 341 348 351 352 354 353 350 348 346 348 347 346 344 339 338 331
304 303 305 305 311 319 317 315 316 320 326 328 330 331 333 334 334 336 337 339 340 339 340 340 344 344 345 346 344 344 345 341 341 340 339 350 354 356 355 353 350 350 348 346 345 343 340 335 332
300 309 309 308 306 302 316 302 313 318 320 323 324 327 329 331 336 336 337 339 340 340 342 341 345 345 346 348 345 344 344 343 340 338 340 345 353 354 355 353 351 349 349 346 345 347 342 335 330
304 310 308 307 302 300 308 305 309 318 315 318 322 326 329 332 333 335 337 340 342 342 341 343 346 346 346 349 347 344 341 341 339 339 339 340 349 353 357 354 352 350 349 349 347 347 345 342 337
311 305 304 301 298 293 300 304 303 311 315 318 321 325 329 332 333 335 336 339 339 342 342 341 344 347 347 348 347 345 343 339 338 336 338 338 345 349 355 355 352 351 350 349 348 347 347 345 342
307 297 292 289 291 291 299 298 304 317 320 321 321 323 328 332 331 333 334 335 337 340 341 340 343 345 348 347 347 346 345 342 340 338 337 338 346 348 349 355 352 352 352 350 349 348 347 344 343
302 301 293 287 286 293 297 295 303 315 324 324 325 325 327 332 331 331 334 335 336 338 341 342 340 343 346 348 347 346 344 345 343 339 339 338 346 351 352 354 356 354 353 351 350 348 349 348 345
301 298 303 291 289 289 293 299 304 307 311 316 323 326 326 331 332 332 334 336 336 339 341 342 341 341 346 347 348 347 348 346 344 342 340 341 343 351 351 353 355 355 354 352 352 349 349 350 347
307 303 294 290 290 286 290 293 299 302 305 307 320 324 327 332 333 334 334 336 337 339 341 343 343 342 343 348 347 346 345 349 351 344 341 345 344 346 350 351 353 355 354 353 350 351 351 351 350
304 302 295 296 290 290 286 293 301 303 306 307 314 326 329 332 333 334 334 336 337 338 340 342 344 343 343 345 348 348 347 345 347 349 344 343 343 346 347 351 352 352 355 353 350 349 352 350 350
305 301 299 294 289 289 290 295 305 307 308 309 310 324 331 333 334 335 335 335 336 336 338 341 343 344 345 346 346 348 349 349 346 345 351 347 343 343 346 354 352 352 353 355 353 350 352 353 350

GFSSGP_sfc_thetae_063.txt.gz
Theta_e
352 352 348 344 321 320 315 319 327 326 327 330 330 328 326 329 323 311 336 340 346 349 353 359 362 362 362 361 362 361 361 362 362 362 362 362 362 362 361 362 361 357 357 359 359 359 355 353 355
349 348 345 335 319 307 314 323 323 327 332 331 333 332 328 324 332 333 333 342 348 352 354 356 362 363 361 362 362 362 362 363 363 362 362 363 361 361 361 361 361 360 359 359 358 358 356 354 355
348 347 335 327 319 312 313 322 326 331 334 333 330 333 330 326 332 333 339 347 352 353 355 357 363 363 361 362 362 361 362 360 360 359 358 359 360 361 361 361 360 360 359 359 358 358 357 355 354
342 341 338 321 317 320 322 327 331 331 333 334 332 325 332 338 333 337 345 351 352 353 356 361 362 360 360 362 362 362 360 360 361 361 361 361 359 359 359 359 360 359 359 358 357 357 357 356 355
343 336 321 314 317 323 328 330 332 329 330 330 331 323 326 334 338 343 346 352 351 353 355 356 363 361 361 362 362 361 360 360 362 361 362 361 362 362 360 360 359 358 358 357 357 357 356 356 355
334 332 315 312 317 323 328 333 332 331 331 328 325 324 327 335 338 340 348 350 354 354 356 355 361 362 362 363 361 362 360 361 361 361 361 362 361 361 361 360 360 359 359 359 358 357 357 356 356
331 323 317 317 318 321 327 334 329 331 329 328 331 322 326 332 337 344 349 351 353 355 355 353 355 359 362 363 362 362 361 361 361 361 361 361 362 361 360 360 359 359 358 358 358 358 358 357 357
335 326 316 319 315 319 328 331 333 332 330 336 332 321 321 331 338 345 349 350 351 352 352 351 351 352 354 356 362 361 361 361 361 360 360 360 360 360 360 361 362 359 358 358 358 358 357 358 357
339 321 313 317 320 323 330 328 335 338 332 335 334 329 332 335 338 345 345 346 349 350 348 348 349 351 353 354 356 361 361 361 360 358 359 358 350 352 355 357 358 357 357 357 358 357 357 359 357
328 317 320 326 327 324 328 332 331 330 330 329 326 330 334 335 339 340 340 340 344 346 347 347 348 349 351 356 352 352 354 354 353 353 353 351 350 349 354 356 360 358 358 358 359 357 358 354 348
328 320 326 326 329 329 326 328 334 330 326 329 322 327 333 335 339 339 340 341 342 345 348 348 348 348 348 350 349 349 350 351 351 351 349 349 351 350 353 351 353 351 353 338 344 345 346 349 348
316 326 329 328 328 329 326 330 331 332 331 334 328 334 335 334 336 338 340 341 342 343 345 348 347 345 345 346 348 348 349 349 349 349 343 346 347 347 349 349 348 350 348 344 345 345 345 345 348
312 317 323 328 326 326 329 325 330 331 336 332 331 335 334 334 336 339 341 342 341 341 343 348 348 344 344 344 346 346 347 348 348 350 340 348 347 347 347 346 348 346 347 346 344 345 349 346 347
312 314 316 321 324 326 327 330 330 332 335 330 330 332 334 335 337 338 339 339 340 341 341 347 347 345 343 342 342 344 345 346 347 350 348 348 346 346 347 346 345 345 346 346 345 343 347 344 344
308 305 309 313 324 327 329 322 326 333 333 330 330 331 334 336 338 337 337 337 339 341 341 342 345 345 342 342 340 342 344 346 347 350 351 350 344 346 347 345 345 347 347 346 344 344 345 343 340
303 303 298 307 323 327 325 312 328 332 331 329 331 332 333 335 336 339 338 338 340 340 339 340 346 344 342 342 341 342 346 345 344 351 350 349 347 349 346 346 347 349 347 345 343 343 340 337 338
296 295 300 305 323 324 324 317 329 332 330 328 330 331 332 333 336 338 339 338 338 339 339 338 341 343 343 342 343 344 346 341 343 348 349 348 350 351 347 347 347 348 347 343 345 341 339 339 340
291 297 299 303 313 322 320 317 327 329 329 328 329 331 332 333 334 338 339 338 338 338 338 339 340 343 343 344 342 344 344 345 343 345 345 348 352 351 346 345 346 346 346 343 345 341 344 339 327
301 302 301 306 314 319 318 317 322 329 328 327 328 329 331 332 336 338 339 340 337 337 337 338 338 342 342 341 340 339 339 341 342 342 346 346 351 351 348 346 344 342 345 343 344 341 338 334 328
297 297 299 306 319 317 318 316 320 327 328 329 329 329 331 332 334 336 337 339 338 338 338 338 339 341 343 343 343 341 339 340 342 341 343 347 349 352 350 347 345 342 345 345 344 341 337 336 328
297 297 299 302 315 319 317 315 317 322 325 330 332 332 332 332 332 335 336 337 339 337 340 339 339 340 343 343 341 342 341 339 339 338 338 347 350 352 352 350 347 344 346 344 343 342 338 333 330
295 304 305 305 304 302 315 299 311 317 319 320 325 331 332 333 334 334 336 336 337 338 341 341 340 340 342 342 341 340 339 337 337 337 338 344 350 351 353 352 349 348 348 345 343 345 339 333 327
301 307 305 304 302 300 309 302 308 316 315 317 322 328 332 334 335 334 335 337 338 339 339 341 341 341 342 344 342 341 336 338 338 337 337 337 347 350 354 352 349 347 347 347 344 344 342 339 332
310 304 302 299 301 295 299 304 300 309 314 318 322 326 329 333 335 336 338 338 338 340 340 340 340 342 342 344 343 341 339 337 337 337 336 335 339 348 351 353 350 348 347 346 346 345 344 343 338
306 295 290 288 290 291 297 297 302 313 319 320 321 324 328 330 332 334 336 336 338 339 339 340 339 340 343 343 344 342 341 339 339 337 337 335 337 342 347 351 350 348 348 348 347 345 344 343 343
301 300 290 284 285 292 296 292 300 312 321 323 325 325 327 329 331 332 334 337 338 339 340 339 339 340 343 343 344 344 343 341 341 340 337 337 338 343 346 350 352 350 350 349 348 345 345 344 342
299 297 301 290 289 287 292 296 304 308 311 320 322 323 323 326 330 332 334 336 337 339 340 339 339 341 343 343 345 345 344 343 342 339 339 338 339 345 347 349 351 351 351 350 349 347 345 346 344
302 301 294 290 289 285 288 291 297 301 303 316 319 321 323 325 329 332 333 334 336 338 340 341 339 341 343 345 345 345 345 344 344 341 338 337 339 342 347 348 349 352 352 351 349 348 347 346 346
296 298 294 296 291 291 286 293 298 302 305 306 314 321 323 325 327 332 332 334 336 337 339 340 340 339 341 344 345 345 345 345 345 342 342 342 341 340 342 347 348 349 352 351 349 348 350 347 347
298 295 299 293 289 288 289 295 304 304 305 306 307 314 320 327 328 332 332 333 335 335 337 339 340 340 340 343 344 344 344 344 346 347 343 342 342 343 344 344 348 349 350 352 350 348 350 349 348

GFSSGP_sfc_thetae_066.txt.gz
Theta_e
352 351 348 343 322 320 315 319 326 325 324 328 330 327 326 329 323 313 334 339 346 348 353 357 362 361 360 363 361 362 362 362 362 362 362 361 361 361 360 360 358 357 360 358 358 354 353 355 355
349 349 344 335 318 305 313 322 323 327 330 329 332 330 328 324 331 332 333 342 348 350 354 355 363 362 361 362 362 361 362 362 362 362 362 361 361 361 361 361 358 359 359 359 357 356 354 354 355
349 348 334 327 317 309 313 322 326 330 331 330 330 332 330 325 333 333 337 347 350 351 353 355 362 362 362 362 361 362 362 362 360 360 361 361 361 361 361 361 361 360 359 359 358 357 356 355 356
342 340 336 320 316 320 322 327 330 330 333 333 330 325 331 336 333 336 346 351 351 352 355 359 360 360 361 360 361 360 359 360 359 359 358 358 361 360 360 361 360 359 359 359 358 357 355 355 354
342 337 320 313 317 323 327 331 332 329 330 329 330 323 325 334 339 344 348 351 350 352 355 356 363 360 362 361 361 360 360 361 362 361 361 360 360 359 360 360 359 358 358 358 358 357 356 355 355
333 332 314 311 317 323 328 332 332 330 330 327 324 324 327 336 340 344 350 350 353 352 353 355 360 360 362 362 361 360 360 361 361 362 361 361 361 360 360 360 360 359 359 358 358 358 357 356 355
331 321 315 317 318 321 326 333 330 331 328 325 329 322 327 334 339 347 349 352 354 354 352 351 352 356 362 361 363 360 361 362 361 362 362 361 361 360 360 360 360 359 359 358 358 357 358 357 356
334 325 316 318 315 318 329 331 333 332 329 333 331 321 322 333 343 348 349 350 351 351 352 350 352 353 355 356 363 360 361 361 360 360 360 361 360 360 360 359 361 357 358 358 358 358 357 359 359
339 321 311 315 319 320 330 328 334 337 330 333 331 329 331 336 346 345 344 347 349 349 348 349 349 352 353 354 357 360 361 360 360 358 359 357 353 354 356 357 357 357 358 357 358 357 358 359 358
326 318 317 323 325 321 328 331 330 330 330 325 326 331 335 338 342 339 338 338 342 346 347 347 349 351 352 356 354 353 355 355 354 354 355 354 353 354 355 357 357 357 358 358 358 358 358 353 353
327 320 325 326 328 328 329 330 333 329 326 324 323 328 333 336 339 336 337 338 340 345 348 346 348 349 351 352 351 351 351 353 353 354 353 352 353 353 354 354 354 354 350 343 349 346 350 351 352
316 323 328 328 329 326 323 330 330 331 330 331 329 331 333 335 336 336 337 339 341 343 347 347 347 348 348 348 349 349 350 351 351 352 349 348 350 351 350 352 351 353 352 349 350 349 349 349 351
315 316 322 328 327 326 328 328 330 330 332 330 331 332 332 335 337 340 340 341 343 342 345 346 347 346 346 345 348 348 349 350 350 351 345 351 350 350 352 351 351 351 351 350 348 349 351 350 350
310 314 316 318 318 322 323 327 329 331 328 328 329 331 333 336 337 339 340 340 341 342 343 346 347 345 344 343 345 346 347 348 350 351 350 347 351 349 351 351 350 348 349 349 348 348 350 349 350
307 303 305 308 314 323 330 323 325 330 327 327 329 332 333 335 338 338 340 339 340 341 342 344 346 344 342 342 343 344 346 347 347 350 352 351 350 348 351 350 349 350 351 350 347 350 351 348 343
301 301 297 306 309 326 323 311 327 330 325 325 329 331 332 334 336 339 341 340 341 341 340 342 348 345 342 342 342 342 345 346 346 348 352 353 352 349 351 350 347 351 352 349 349 349 347 343 344
293 293 297 302 313 323 321 314 327 331 327 324 327 329 331 333 336 339 339 340 340 340 339 338 343 342 342 342 342 342 344 346 345 348 351 352 352 353 350 350 349 352 350 349 350 347 344 344 346
290 292 296 302 309 321 318 316 325 328 328 326 327 328 330 331 334 338 338 340 340 340 340 339 340 341 342 342 343 344 346 347 343 347 350 351 352 354 351 351 350 351 351 348 349 348 346 343 335
297 299 300 305 309 317 316 315 324 327 327 327 328 328 329 330 335 338 339 339 339 339 338 338 337 339 341 340 339 341 341 345 345 345 349 350 352 355 350 349 349 348 350 348 350 346 345 339 334
296 294 294 302 310 313 312 315 323 325 326 328 328 329 329 331 333 336 337 337 337 337 337 338 338 339 343 343 343 342 341 343 346 345 348 349 352 355 352 350 349 347 349 348 349 348 344 342 334
293 293 294 299 309 317 314 312 315 325 327 328 329 331 331 331 331 334 336 336 337 335 336 336 338 339 343 343 343 343 342 342 343 343 343 347 350 354 354 352 350 348 349 348 349 348 345 340 337
288 298 299 301 300 301 314 299 310 316 323 326 328 328 330 332 333 334 335 336 337 337 338 338 338 339 343 343 342 342 340 337 339 341 343 346 350 352 355 354 352 351 350 349 349 349 346 342 338
294 302 299 301 299 300 302 299 302 314 315 321 326 329 331 332 333 334 335 337 339 339 339 339 339 339 341 343 343 341 341 339 339 340 342 342 349 351 354 355 354 352 351 351 349 349 347 343 337
306 301 299 298 299 294 298 303 301 307 314 318 323 328 332 333 334 335 337 338 338 340 339 341 339 339 340 342 343 341 341 338 339 338 338 339 341 349 352 355 354 353 352 352 351 351 349 347 344
303 295 288 286 290 291 297 296 303 308 317 320 321 323 328 334 334 334 334 335 337 338 338 340 340 339 340 341 342 341 341 340 340 340 338 337 339 342 348 353 354 352 353 352 352 351 350 349 348
298 296 289 283 283 291 294 292 300 309 312 321 323 325 327 331 335 335 336 336 336 338 338 339 339 339 341 341 342 343 342 341 342 342 341 341 339 342 347 350 354 354 354 353 353 350 349 350 349
295 295 299 290 288 286 291 295 302 307 308 316 319 323 325 328 332 335 337 338 337 338 338 338 338 339 341 342 343 343 343 342 342 342 343 342 342 344 346 349 352 354 353 354 353 351 350 351 350
296 299 292 288 287 285 288 291 297 301 306 307 317 320 323 327 330 332 335 337 339 339 340 340 340 339 341 343 343 344 344 344 344 342 341 342 342 344 347 349 350 353 354 354 353 352 352 351 350
293 292 292 294 292 290 285 292 298 302 306 306 313 320 323 325 327 330 333 336 338 340 340 340 339 339 340 342 343 344 344 345 345 343 342 342 343 342 344 348 350 351 353 354 353 353 353 351 351
295 293 290 288 288 288 291 294 304 303 304 306 308 321 324 325 326 329 332 335 335 337 339 340 340 340 341 343 343 344 345 346 344 344 344 344 342 342 344 346 349 350 352 354 353 352 353 352 351

GFSSGP_sfc_thetae_072.txt.gz
Theta_e
354 354 354 349 328 326 319 322 329 328 327 333 333 329 329 333 328 324 348 352 353 352 356 359 364 363 362 363 363 363 363 364 362 361 361 362 362 361 361 358 358 360 358 355 355 356 357 357 357
354 353 352 337 325 317 320 326 325 329 332 335 335 334 331 330 338 340 345 352 354 354 356 357 364 364 363 364 364 364 363 364 362 362 361 362 362 361 359 358 360 360 357 356 354 356 356 359 357
354 350 338 332 327 322 320 328 331 334 334 331 334 338 335 333 340 343 350 352 354 353 356 359 364 364 363 362 363 363 363 362 362 361 360 360 360 360 359 360 358 359 358 358 357 355 356 358 358
349 347 343 326 321 326 325 331 332 332 334 336 336 332 338 342 343 347 352 353 354 354 354 361 363 363 362 364 363 362 362 362 362 360 361 361 360 360 361 361 360 359 358 358 356 357 356 355 354
349 343 328 324 322 326 331 335 337 330 333 335 336 331 332 341 346 350 352 352 351 350 355 358 365 364 363 362 360 360 359 360 360 361 361 361 360 361 361 361 360 358 358 357 356 356 356 356 356
337 339 324 318 319 328 334 337 338 336 336 335 334 333 332 344 345 349 352 351 348 349 351 356 362 364 363 360 362 362 362 362 362 362 362 361 361 362 361 361 359 357 357 358 357 356 356 356 356
333 332 324 322 321 325 331 339 336 336 335 334 339 332 334 339 346 349 350 349 347 349 351 355 359 362 361 361 361 361 362 362 362 361 362 361 361 361 362 361 360 359 358 358 357 356 354 356 356
340 336 323 324 321 325 334 335 339 338 335 342 341 331 330 341 345 348 348 347 347 348 351 353 359 361 359 359 362 362 362 362 363 362 361 362 362 361 361 361 360 359 358 358 357 357 356 357 359
343 330 323 323 323 328 334 331 337 343 337 337 338 337 341 344 346 345 344 344 346 347 350 351 353 360 359 357 361 361 363 362 362 361 361 363 359 360 360 359 359 359 358 358 357 356 356 359 359
332 327 325 330 332 330 334 336 338 336 335 334 335 340 344 345 342 342 341 340 343 345 347 348 351 356 356 354 359 360 358 358 360 361 363 359 361 360 358 359 358 359 359 359 358 357 356 358 354
329 323 331 332 334 332 335 336 340 335 332 336 334 337 342 343 343 342 342 343 344 346 346 347 353 357 355 358 356 356 357 358 360 363 362 360 359 359 358 357 356 357 358 356 356 356 356 355 355
321 328 333 333 335 331 332 338 335 337 337 342 340 340 341 342 342 342 342 344 344 346 345 348 354 357 357 356 354 355 354 355 355 359 364 362 358 360 359 358 357 362 362 357 361 357 359 359 358
320 324 329 334 335 332 333 333 333 335 341 343 341 340 340 341 341 343 343 345 345 343 345 350 355 358 358 359 355 354 355 355 356 359 361 362 362 361 361 361 360 363 361 357 358 358 358 359 357
315 319 324 328 330 330 329 332 334 337 341 340 339 339 340 340 341 342 342 343 344 345 346 351 354 358 359 358 360 357 358 359 358 359 360 364 365 366 359 358 360 359 360 358 358 359 358 358 358
315 312 316 319 327 325 331 326 330 339 340 338 338 339 339 341 342 341 343 344 345 346 347 350 353 355 358 358 359 356 357 357 357 359 365 363 365 366 362 358 360 358 361 363 359 358 360 352 353
308 310 308 317 324 326 330 321 334 339 338 337 338 338 338 340 341 343 344 344 346 346 348 351 349 350 356 357 356 355 356 356 357 358 360 364 366 366 363 359 360 366 363 358 355 354 352 349 351
306 302 305 317 326 326 328 324 336 339 338 336 338 337 338 339 341 343 344 345 345 347 349 349 350 348 354 357 355 355 358 357 358 359 360 364 366 367 364 361 358 362 359 354 352 352 354 349 348
302 302 306 313 321 326 326 326 334 336 336 336 337 337 338 338 340 344 345 346 345 348 350 351 350 351 355 353 354 353 354 356 357 358 359 364 365 366 367 363 360 359 354 353 354 355 355 352 349
306 305 305 311 322 323 323 326 331 335 335 335 337 337 337 338 343 345 346 346 344 347 349 350 350 352 351 349 347 349 350 354 356 359 362 366 366 366 366 360 360 360 358 357 360 357 355 347 352
305 304 305 311 319 321 322 322 329 335 334 336 337 337 337 339 341 343 345 346 344 346 349 350 351 353 354 348 350 351 353 354 356 359 363 365 365 367 364 366 363 364 356 358 358 359 350 347 349
304 303 305 306 314 319 320 319 321 329 335 335 338 340 339 338 339 341 344 345 346 345 348 350 353 353 354 355 351 355 357 357 356 357 358 361 364 365 366 363 363 364 367 355 358 358 356 345 349
301 306 304 306 307 307 318 309 319 323 329 333 335 337 338 339 341 342 343 344 346 346 349 351 353 354 353 357 357 361 351 349 349 353 355 357 363 363 364 365 362 363 363 359 358 357 358 357 343
303 307 305 304 305 308 313 311 316 324 324 329 334 336 338 340 340 341 343 346 348 349 348 351 353 356 358 359 360 355 356 349 351 351 360 365 364 365 362 365 366 366 360 361 361 358 360 357 352
307 304 304 304 302 298 307 309 312 318 324 329 334 337 339 340 341 343 344 347 348 349 348 349 353 358 357 357 355 360 361 358 351 354 352 353 355 357 363 363 366 366 361 362 362 366 361 361 358
306 302 297 294 294 294 306 305 311 319 327 329 332 336 339 341 343 343 343 344 347 348 349 349 357 359 358 355 355 357 359 361 359 358 353 356 350 351 358 365 365 362 367 364 364 364 363 360 359
305 305 298 293 294 296 303 301 308 319 322 328 330 333 338 340 342 344 345 345 346 348 349 351 357 359 357 357 360 363 364 354 355 358 354 353 351 351 358 361 363 365 364 365 367 365 360 364 359
306 301 308 302 304 300 301 304 313 318 320 323 325 328 332 337 340 342 345 347 347 348 351 354 358 361 361 355 362 363 364 362 356 366 361 356 360 354 357 359 361 361 363 365 367 361 363 364 365
307 311 301 303 295 295 300 302 303 311 317 321 323 324 328 333 338 341 344 346 348 349 350 352 356 359 358 357 358 357 360 361 362 360 361 362 359 360 358 358 357 359 362 364 366 362 364 366 362
304 303 306 306 303 298 297 301 312 313 317 319 322 324 326 328 332 339 343 346 349 350 351 351 352 354 355 358 360 362 358 358 359 357 359 361 362 362 363 360 359 357 359 363 365 364 362 362 365
304 305 305 300 301 304 303 302 315 315 317 321 322 324 326 329 333 337 342 347 348 349 350 351 352 352 354 359 362 360 361 363 357 358 359 361 362 364 363 363 362 360 359 363 364 362 359 361 363

GFSSGP_sfc_thetae_078.txt.gz
Theta_e
353 351 352 348 328 328 321 322 330 326 327 333 334 332 329 333 329 323 345 350 351 351 354 356 362 362 362 363 363 364 362 364 362 361 360 361 362 360 359 361 360 356 357 358 358 359 358 359 361
351 349 350 341 323 316 317 329 325 328 331 336 336 335 333 331 339 340 344 350 350 351 353 355 363 365 363 364 365 364 362 361 361 363 363 362 361 358 361 361 359 357 356 357 360 359 359 360 360
354 352 337 332 325 315 319 328 328 332 336 334 335 339 336 333 340 342 348 350 351 352 355 360 366 366 364 363 365 364 363 363 362 362 362 362 358 361 360 360 360 360 357 356 358 360 359 359 359
348 347 342 326 321 326 327 331 332 332 336 337 336 332 339 344 342 346 349 350 349 352 356 362 367 365 365 364 364 364 362 362 362 361 361 361 360 361 361 361 359 359 359 358 358 357 357 356 357
347 342 327 326 323 329 332 334 333 330 333 335 337 331 333 342 348 349 349 349 349 350 355 359 366 366 365 365 364 363 362 362 363 363 362 362 361 361 360 360 359 359 358 358 357 357 357 357 356
337 340 324 321 324 328 332 335 334 332 334 336 334 333 334 345 346 348 349 349 349 348 350 356 364 365 364 361 360 361 362 362 363 363 362 363 361 361 360 358 358 359 358 358 358 358 358 357 356
331 331 324 323 324 327 332 338 333 334 333 334 339 331 337 341 347 348 348 348 346 347 353 357 359 361 363 363 363 363 362 362 363 362 361 362 361 362 361 360 359 358 358 358 357 357 358 357 357
333 330 322 325 322 322 335 336 339 333 332 342 343 332 331 340 347 349 348 343 343 348 352 357 360 357 360 359 362 362 362 363 362 362 362 362 362 362 361 364 362 359 358 357 357 357 359 360 358
337 322 318 323 323 326 335 334 338 338 335 339 341 340 342 344 346 346 346 341 345 345 350 349 352 355 360 360 360 362 362 363 363 362 362 363 358 359 358 363 361 359 358 358 357 358 357 357 358
328 322 324 330 330 325 330 334 328 334 336 336 339 342 344 344 343 342 337 337 339 344 348 349 349 351 357 355 361 362 359 359 361 361 360 355 357 365 355 360 362 360 359 358 358 355 351 354 353
328 321 326 327 330 332 331 332 340 334 331 335 335 338 341 342 342 341 337 338 341 344 346 348 353 356 353 357 360 361 357 362 363 365 362 362 360 355 356 359 356 358 359 354 355 352 350 352 354
322 326 329 329 331 333 333 336 333 334 335 340 341 342 341 340 340 338 336 337 343 344 346 347 354 355 361 358 359 353 356 360 356 361 371 355 362 350 351 355 361 359 355 354 352 351 353 356 352
321 323 325 330 330 336 332 329 331 329 339 341 342 341 340 340 340 339 339 339 343 344 345 350 356 351 350 368 356 353 355 355 358 360 355 352 356 358 358 361 352 353 354 351 349 353 352 351 352
321 321 322 327 331 335 330 331 333 335 341 341 340 338 340 339 340 340 339 340 342 345 346 352 353 361 365 363 368 360 361 355 359 359 359 358 359 363 365 360 354 351 355 353 352 349 353 353 356
317 315 317 322 326 329 334 326 329 337 340 338 338 338 339 340 339 340 341 341 343 345 348 351 352 357 363 362 368 369 348 358 359 363 363 357 356 366 361 361 362 354 355 363 360 352 352 352 344
311 312 308 316 320 327 329 321 331 337 337 336 338 338 339 340 340 342 344 343 344 345 349 351 348 353 359 367 366 365 352 366 357 358 361 354 360 370 364 363 364 365 354 359 358 351 349 352 343
309 303 307 311 320 320 323 322 336 335 334 335 336 337 338 338 341 344 344 345 344 347 349 350 353 352 356 364 361 363 360 362 367 355 354 369 368 369 370 358 366 371 361 362 359 345 344 354 349
303 303 305 308 315 318 316 323 329 329 328 331 336 337 337 337 339 345 344 345 344 346 350 353 354 357 360 359 365 361 363 356 355 357 359 367 368 368 369 365 368 368 359 358 352 352 355 345 347
308 306 305 309 315 315 315 321 323 324 324 327 333 335 337 337 342 344 345 346 344 345 349 354 355 358 357 355 353 356 355 361 356 358 367 369 367 368 368 366 368 367 348 354 362 363 359 353 344
309 305 305 309 312 314 319 321 322 322 321 325 330 335 336 339 339 343 345 345 344 344 349 352 355 358 356 357 357 360 360 359 365 365 367 366 369 369 364 359 366 368 360 365 359 353 351 355 351
307 305 305 306 310 313 316 319 318 322 327 332 335 338 338 339 338 341 343 344 344 344 349 350 357 358 357 361 358 362 362 362 361 361 361 366 368 369 360 366 368 369 367 360 365 363 356 352 350
303 309 308 307 306 302 311 302 321 324 327 332 334 332 336 337 342 341 341 344 344 345 350 352 357 358 356 362 356 360 353 353 357 348 360 363 368 367 368 369 368 371 365 360 361 362 350 353 350
306 310 308 306 305 305 306 306 312 328 323 322 325 331 335 335 341 341 343 344 345 347 348 352 354 359 355 356 361 356 356 353 361 359 360 363 371 371 363 367 370 371 366 365 364 365 360 352 355
311 308 308 307 304 297 303 304 308 321 319 317 326 334 335 336 338 342 346 346 346 347 347 352 353 356 356 355 357 359 355 360 357 360 356 359 360 366 370 367 370 370 362 367 366 368 366 366 364
309 305 297 296 296 295 304 302 308 319 329 325 324 334 337 337 338 341 343 344 346 346 346 349 352 352 354 355 353 360 356 357 364 360 357 353 356 356 363 371 369 367 368 367 370 370 369 368 364
306 305 298 293 294 297 304 300 304 315 320 334 337 335 339 340 337 341 344 346 347 348 347 348 352 352 354 356 351 355 362 354 356 363 354 359 353 355 363 365 367 370 368 368 368 366 366 367 365
306 303 308 302 303 299 302 306 310 314 317 326 328 332 334 332 341 342 345 346 348 349 350 348 352 353 355 353 355 352 360 361 353 364 369 356 363 362 363 365 367 367 368 367 369 363 364 367 367
307 310 301 303 295 295 300 304 304 310 313 323 327 326 330 331 336 343 343 346 349 350 352 352 354 355 356 354 355 353 352 358 359 354 365 364 370 370 365 365 365 366 369 369 369 363 366 366 363
305 304 305 305 303 296 296 301 314 313 315 316 327 328 329 333 336 339 345 347 349 351 351 353 353 355 357 357 355 354 354 354 354 358 359 362 364 370 369 369 367 365 365 368 368 365 365 363 364
307 305 305 300 300 303 303 303 318 317 315 317 320 329 330 332 336 334 342 347 348 349 351 353 354 355 357 359 357 354 355 354 353 351 362 363 367 372 374 368 370 364 364 365 365 362 358 363 363

GFSSGP_sfc_thetae_081.txt.gz
Theta_e
353 351 347 345 327 324 318 320 329 324 325 330 333 332 331 334 328 318 342 346 349 350 356 357 363 361 362 364 365 364 363 363 361 361 361 363 360 361 361 358 356 359 358 358 361 359 360 361 362
347 346 347 336 321 312 313 326 326 327 330 335 336 335 331 328 336 336 339 347 350 351 352 355 363 363 362 364 364 364 363 362 362 362 363 362 360 361 361 359 356 357 358 360 358 360 360 361 361
349 349 335 328 322 314 317 326 326 331 335 334 333 336 334 330 338 340 345 348 349 349 353 356 364 366 364 364 365 365 363 362 362 361 362 359 361 361 361 361 359 356 358 360 359 359 360 359 358
346 344 337 322 319 320 325 328 332 332 335 336 334 329 337 342 340 344 347 347 347 353 356 363 366 364 364 365 364 364 363 362 362 361 362 360 361 361 361 360 360 359 359 359 358 357 356 357 357
346 338 324 320 323 327 330 332 332 329 333 333 334 329 332 340 345 345 346 348 349 350 355 361 366 366 364 364 363 362 362 362 362 363 361 362 361 361 361 360 359 359 358 358 358 357 357 356 356
332 334 319 315 322 328 332 334 332 332 335 332 332 331 333 342 342 344 346 348 350 349 356 357 365 366 366 364 362 362 362 362 362 364 362 362 362 361 359 359 360 359 358 358 359 358 357 356 357
329 326 320 319 322 325 328 334 330 332 331 331 336 328 334 338 343 344 345 348 348 350 352 356 358 359 360 362 361 362 363 362 363 363 362 361 361 361 360 359 359 359 359 358 357 356 357 356 355
333 328 321 319 320 317 330 330 336 334 332 339 339 328 328 338 344 344 345 344 346 351 351 354 352 354 355 357 364 362 362 363 362 361 362 362 362 361 361 363 362 359 358 357 357 357 359 357 358
334 318 316 320 321 319 328 330 338 341 337 337 339 337 340 343 343 342 339 342 346 349 350 352 350 352 352 355 359 363 363 363 362 362 362 362 352 354 356 360 362 359 358 357 358 359 358 356 355
326 317 321 329 330 324 332 333 333 334 333 335 335 340 342 343 341 336 335 338 341 344 347 351 347 351 353 356 355 354 357 356 356 356 350 339 349 353 355 359 362 359 359 358 359 355 355 340 344
324 317 327 328 330 329 328 330 334 332 329 335 332 335 339 339 339 338 337 337 339 343 344 346 346 352 349 351 354 355 353 354 355 353 349 347 353 347 351 350 352 351 358 350 352 348 346 345 344
318 324 326 328 330 331 329 334 333 334 335 339 337 337 337 337 338 337 335 336 339 342 342 345 347 349 348 352 354 354 352 354 353 353 352 353 349 338 344 347 351 352 350 345 339 344 348 349 352
318 320 326 329 331 333 334 332 329 327 336 340 339 338 337 336 337 335 336 337 336 341 344 347 350 348 349 351 353 351 351 354 349 352 347 349 348 344 347 348 349 347 348 348 346 346 349 351 349
319 320 321 328 330 333 330 332 331 332 337 338 337 336 337 336 337 333 336 335 335 343 345 346 345 345 345 354 353 350 351 352 352 350 350 352 348 350 351 351 347 347 341 347 348 344 347 347 348
313 308 311 318 325 331 334 325 324 332 337 336 336 336 336 336 338 332 335 335 335 344 347 347 349 351 349 351 351 349 352 358 354 354 352 351 347 353 351 348 346 347 345 347 348 344 346 341 345
307 304 300 310 316 324 331 319 331 336 335 334 334 336 335 336 337 335 337 337 337 343 343 345 350 350 347 350 350 348 350 353 354 355 351 348 343 354 355 354 350 353 351 349 347 344 342 343 340
304 294 299 304 312 316 321 322 330 337 335 334 333 334 335 335 334 336 337 338 338 343 342 341 346 348 347 350 349 351 352 350 352 354 352 349 355 358 358 355 352 355 349 351 348 340 341 341 341
298 296 297 300 308 312 312 325 330 333 334 333 333 334 334 333 335 337 337 338 339 344 343 343 347 347 347 349 347 351 347 351 352 351 349 357 356 356 355 355 353 352 349 349 347 341 343 339 342
305 303 300 303 307 308 311 324 328 331 326 330 333 333 332 333 336 339 338 339 340 343 342 343 345 346 351 347 346 346 345 348 345 352 353 357 358 355 354 355 352 352 342 344 350 349 345 344 340
303 301 301 304 307 305 318 321 324 326 323 329 326 326 331 334 335 340 338 337 339 340 344 343 347 347 349 347 347 346 345 349 349 353 358 357 357 356 354 349 352 350 347 348 344 345 342 343 339
302 299 300 300 305 304 315 315 314 321 324 325 331 331 330 333 334 337 337 336 338 338 342 346 348 347 349 346 347 348 349 346 350 348 353 353 358 357 354 354 353 352 352 347 349 347 344 338 341
295 305 305 303 299 293 302 299 313 317 320 324 328 330 331 332 336 337 336 336 335 340 343 348 349 348 347 349 343 343 344 342 347 351 351 354 355 356 356 353 354 354 352 347 348 352 344 341 338
301 307 304 302 298 293 298 292 310 317 317 321 325 322 329 332 336 336 336 338 337 342 341 347 350 348 347 349 344 344 343 344 347 344 348 351 354 357 358 356 355 355 352 351 351 350 347 345 342
308 303 301 299 295 288 294 293 303 313 316 318 328 328 332 335 337 337 338 339 339 342 342 343 349 346 345 346 349 344 342 344 348 346 348 351 354 356 354 355 356 357 354 352 351 351 350 351 350
303 297 289 287 288 288 294 293 296 321 324 323 327 331 331 334 337 337 336 337 338 339 343 342 347 346 345 344 345 350 344 344 347 348 351 348 348 349 353 355 355 354 352 353 354 353 354 353 350
298 295 290 284 286 290 296 290 297 309 329 327 328 329 327 333 337 337 338 338 339 339 342 344 343 347 345 343 343 346 348 345 347 351 348 349 349 349 350 358 357 355 356 354 356 352 354 354 352
298 295 300 292 295 292 295 298 303 306 309 325 322 326 329 335 333 337 339 339 340 340 340 344 343 344 346 346 342 344 351 344 345 347 349 348 348 350 350 356 357 357 355 355 355 352 353 353 352
298 302 293 293 286 286 293 295 296 300 304 322 326 327 332 336 335 337 336 340 341 342 341 344 345 344 347 347 345 343 346 351 348 346 352 349 345 349 353 354 358 355 356 353 355 352 354 352 350
297 297 296 296 294 290 287 293 303 310 307 316 324 328 332 333 336 338 339 338 334 343 343 342 346 345 346 345 348 343 343 350 349 347 343 352 350 356 357 356 355 355 355 356 354 351 353 354 352
298 296 297 293 291 294 293 296 311 313 317 314 323 327 329 332 333 334 336 335 334 333 344 342 347 346 347 347 347 347 343 346 349 346 346 352 349 352 356 356 356 355 353 353 354 353 352 351 352

GFSSGP_sfc_thetae_084.txt.gz
Theta_e
355 352 348 344 327 322 315 320 328 324 325 330 328 329 328 332 327 314 338 345 347 345 355 359 364 362 363 365 364 363 364 361 361 362 362 360 361 360 356 357 359 357 359 360 359 360 361 362 363
350 347 345 337 320 311 313 325 323 326 329 333 335 334 331 327 335 334 339 348 349 352 353 357 363 364 364 364 364 363 363 361 361 362 362 360 360 361 357 356 356 359 358 359 358 360 361 361 361
346 346 334 328 319 311 316 325 325 330 336 334 331 336 332 327 335 336 344 349 350 351 353 355 364 365 361 362 363 363 362 361 362 362 359 361 360 360 358 356 357 359 359 359 360 360 359 359 359
343 342 337 321 313 321 322 329 330 331 333 335 333 327 335 340 338 342 348 349 348 350 353 361 363 363 364 364 363 363 362 363 362 362 359 361 361 361 360 359 357 358 359 358 357 359 358 357 357
344 336 322 319 321 326 328 332 333 330 331 332 333 328 331 339 344 346 345 349 349 351 356 360 366 366 365 364 364 363 363 362 362 361 361 362 361 360 360 359 359 358 357 358 357 357 357 356 357
333 332 319 314 319 327 331 334 333 331 333 332 330 330 330 341 341 343 349 349 351 353 356 358 365 366 365 363 363 363 363 363 363 363 362 362 361 359 361 359 360 359 358 358 357 357 357 356 357
327 324 319 318 318 320 326 334 331 331 331 330 335 327 333 337 342 347 348 348 351 356 354 356 357 361 364 363 363 363 363 363 363 363 362 362 360 359 359 359 359 358 358 357 356 356 357 358 358
332 326 319 320 317 318 326 330 337 332 330 339 338 326 327 337 343 347 346 345 350 351 355 354 352 352 352 354 363 363 363 363 363 363 361 362 361 361 360 362 361 358 357 357 357 356 358 358 361
336 319 314 320 320 321 327 328 337 341 334 336 338 336 337 341 343 342 341 344 346 349 351 350 350 351 353 355 358 362 363 363 362 361 361 358 353 353 355 359 360 358 357 356 357 358 358 358 358
325 313 318 329 329 326 328 326 331 332 332 332 336 338 340 340 339 337 339 340 342 346 348 348 349 350 352 357 354 354 357 356 355 354 350 344 348 352 355 357 359 358 357 357 354 354 353 344 346
320 317 329 330 330 331 328 330 332 331 327 333 332 334 337 338 336 336 339 341 342 346 348 347 348 350 350 353 352 352 353 353 353 351 338 346 348 346 351 352 352 351 355 349 347 346 344 345 344
313 322 328 331 332 329 329 333 330 334 334 338 339 338 338 336 335 336 337 339 342 344 347 346 347 350 345 350 352 351 352 351 351 351 348 349 345 340 344 349 350 349 347 342 340 342 346 345 347
315 319 324 330 330 332 332 332 333 331 337 341 340 339 338 337 335 338 339 340 342 341 344 344 347 347 347 350 351 349 349 351 350 348 350 348 347 345 345 347 346 348 346 345 344 343 345 347 348
317 317 318 329 330 332 330 331 328 331 339 337 337 336 336 337 335 336 335 337 339 340 341 343 346 347 349 350 350 349 348 351 349 346 346 350 347 345 339 345 346 344 342 343 346 343 344 346 346
317 307 307 325 330 330 334 326 323 335 337 334 335 334 335 336 337 333 335 334 339 341 344 345 345 345 346 348 351 347 348 350 348 348 347 349 350 346 346 344 344 343 339 342 344 343 344 342 342
307 301 296 311 328 331 329 317 330 335 337 332 333 334 335 335 333 334 335 336 341 343 343 344 346 346 346 346 348 344 350 352 351 350 351 347 348 350 347 345 344 345 343 343 344 341 341 339 337
300 296 297 301 327 328 326 320 328 336 336 331 332 333 333 333 332 334 335 338 343 343 343 344 347 344 347 345 348 348 350 352 352 350 348 341 351 356 352 351 345 348 344 344 344 341 339 338 336
296 295 294 296 303 325 322 323 326 332 334 333 332 333 333 333 334 334 335 339 343 343 344 343 346 343 348 344 345 348 345 349 350 349 350 352 355 355 354 349 349 350 346 346 343 338 340 339 338
301 299 298 303 306 302 318 323 326 326 332 328 331 332 332 334 334 335 335 338 342 342 340 343 342 341 346 343 341 344 341 345 346 347 351 354 353 354 353 351 350 347 343 345 344 343 339 340 337
302 299 298 301 305 300 320 321 327 327 330 326 326 331 332 333 334 334 335 338 340 339 340 342 343 341 345 344 343 343 344 346 345 349 350 354 355 352 351 350 346 344 340 344 342 341 339 340 337
299 296 298 298 302 317 319 317 322 328 330 331 331 334 334 333 333 332 334 335 340 339 339 342 343 344 345 344 344 344 345 345 345 346 351 353 355 353 348 351 350 349 347 344 344 343 341 335 339
294 303 303 301 296 291 307 294 312 319 319 324 331 331 332 332 334 335 333 333 337 340 341 344 344 345 345 343 342 341 341 338 345 345 349 350 355 353 352 351 351 350 349 345 346 347 341 339 336
301 305 301 300 295 292 293 292 303 315 314 317 323 329 331 334 335 334 334 334 337 340 341 345 344 345 346 344 342 341 339 340 345 346 347 349 351 352 353 350 351 350 348 346 348 348 346 342 340
306 300 298 294 292 287 291 291 295 311 315 318 321 328 331 333 335 336 337 335 336 339 342 345 343 344 346 344 340 340 339 340 342 341 344 347 348 351 352 352 351 351 350 348 347 348 346 348 347
300 293 287 286 286 286 290 290 293 315 319 321 321 324 329 333 334 335 335 334 334 336 339 345 343 342 344 346 343 340 341 340 343 341 344 345 347 349 349 351 352 352 350 350 350 350 350 349 347
294 293 288 283 284 287 292 288 295 305 322 324 326 328 325 328 332 335 337 336 334 337 337 343 344 341 342 344 344 345 341 341 344 345 346 348 348 348 350 350 352 352 348 350 351 350 350 350 349
296 290 295 289 289 287 290 296 302 313 313 320 323 327 328 333 334 335 337 337 336 337 338 339 344 342 342 342 342 342 346 341 342 346 347 348 348 347 348 353 352 351 351 349 351 348 348 350 350
293 296 291 289 284 283 289 291 293 306 311 316 321 325 330 330 334 336 337 337 338 338 340 340 342 344 343 342 341 341 343 346 341 344 346 345 346 346 347 351 354 352 351 351 351 348 349 349 348
292 290 289 291 289 285 285 290 306 308 314 314 319 323 328 330 334 337 338 339 339 339 340 341 340 342 344 344 341 340 341 344 345 343 343 349 343 346 349 349 354 352 352 350 349 350 348 348 347
294 290 288 285 287 289 288 291 309 313 316 317 321 324 327 332 335 337 340 339 336 336 339 341 343 341 343 345 344 340 340 342 346 346 342 344 346 352 352 350 353 353 351 350 349 348 350 349 349

GFSSGP_sfc_thetae_087.txt.gz
Theta_e
354 351 347 341 325 322 314 317 325 323 322 326 325 326 326 330 325 312 333 340 343 342 353 358 363 362 362 363 360 362 361 359 361 360 359 360 359 356 357 357 358 360 360 360 360 361 362 362 360
350 348 344 336 320 310 312 323 323 326 327 326 326 332 330 326 334 331 337 343 343 346 354 357 363 363 363 364 362 362 360 360 360 361 359 360 359 356 357 357 357 357 360 357 359 360 362 360 358
348 346 333 326 317 311 313 324 326 328 329 328 331 335 331 327 333 332 343 343 348 351 353 356 362 364 363 363 363 362 361 360 360 360 360 360 359 356 355 356 359 358 357 359 359 360 359 358 358
340 341 336 321 314 318 321 327 330 329 333 334 332 326 334 338 332 342 346 348 349 350 352 360 361 360 362 363 363 362 360 361 360 359 359 359 359 359 355 357 359 358 359 359 359 357 357 358 357
344 333 321 319 319 323 327 329 332 329 332 331 332 327 327 337 345 346 346 348 347 348 353 356 364 363 363 362 362 362 362 361 360 360 360 359 359 358 359 357 358 358 357 356 356 356 356 356 357
330 331 318 313 318 322 328 335 331 331 332 330 329 328 329 342 342 344 347 347 349 352 355 358 363 362 364 364 363 362 362 362 360 361 360 360 360 359 358 358 358 358 358 357 356 355 355 357 358
327 322 319 318 318 320 323 332 329 330 330 328 333 326 332 337 342 346 348 349 352 354 354 356 357 360 362 362 362 362 362 362 362 360 359 360 359 359 359 359 359 358 357 357 356 356 357 357 358
331 325 317 320 319 318 326 331 334 332 329 337 337 325 326 335 345 346 346 347 351 351 353 353 353 353 352 356 363 362 362 363 362 362 361 360 359 358 359 361 361 358 357 357 356 357 356 358 361
335 319 311 318 320 322 330 326 334 339 333 336 338 334 336 342 345 341 342 346 347 350 349 349 349 348 350 352 358 362 363 363 362 360 361 359 353 353 353 356 359 358 358 358 357 357 358 360 358
324 314 317 326 328 326 329 327 329 332 331 332 333 336 339 342 340 337 339 339 343 346 348 347 347 349 351 356 353 354 356 355 354 354 349 347 350 352 354 356 359 358 358 359 356 357 347 348 345
320 316 325 329 330 330 327 326 334 332 327 330 329 333 337 339 338 337 338 340 340 346 348 346 347 349 350 352 351 352 352 352 351 350 342 345 349 349 351 351 351 349 355 346 341 344 343 343 346
311 319 328 329 332 328 327 332 330 332 333 338 336 336 336 336 336 337 337 338 341 344 346 344 347 348 346 350 349 350 351 351 350 346 342 346 340 343 344 346 347 347 346 340 338 341 344 344 344
312 316 326 331 331 330 334 329 328 333 338 341 338 337 335 335 335 339 339 340 342 341 344 343 345 346 345 347 348 348 348 349 349 347 346 348 340 341 344 345 344 344 344 342 341 342 343 344 346
316 316 316 329 328 330 329 330 331 333 340 338 336 334 335 334 334 337 338 338 341 342 342 342 344 346 346 347 347 347 347 350 348 348 348 346 344 343 343 344 343 343 342 341 343 342 342 344 346
316 311 313 325 328 326 333 323 324 335 338 337 336 335 336 336 335 336 337 338 340 340 342 341 344 346 345 346 348 347 347 350 347 346 344 348 345 344 338 343 343 342 338 341 343 341 342 342 343
304 301 295 317 329 331 329 316 329 335 335 333 334 335 335 336 334 337 337 339 340 339 340 341 347 346 344 345 347 347 347 347 347 346 346 348 349 345 342 342 342 343 339 340 342 339 338 337 336
299 296 297 308 328 328 325 318 328 335 333 331 332 333 333 334 333 335 336 337 340 339 341 342 343 344 344 345 346 345 348 348 348 349 347 345 347 350 346 344 342 344 341 339 342 341 338 336 335
295 295 293 296 321 326 321 320 326 331 333 330 331 331 332 333 332 335 334 338 340 342 342 342 343 343 345 344 345 346 346 348 349 347 346 341 349 353 349 348 344 345 341 341 341 337 336 337 335
300 297 296 301 304 309 320 319 324 327 330 329 330 329 331 332 331 334 334 339 341 341 341 342 342 341 344 340 341 341 341 345 346 347 349 351 350 351 349 347 346 347 343 343 342 339 335 338 335
300 298 297 301 303 299 310 318 322 326 327 330 329 330 331 331 330 331 332 339 340 340 341 343 343 341 344 341 340 344 341 344 344 346 348 352 352 351 350 348 346 342 341 342 342 339 337 338 335
297 295 297 297 302 321 318 317 319 323 328 331 328 332 333 332 328 330 331 337 339 339 339 342 342 341 343 342 341 343 342 344 342 345 346 350 354 351 350 349 344 341 343 339 340 342 338 332 336
293 302 302 300 294 290 307 298 314 321 322 326 329 327 332 333 331 330 331 336 338 339 340 342 341 340 342 342 340 340 340 337 341 344 346 350 353 351 348 350 349 346 345 343 343 344 338 336 333
300 304 300 298 292 290 292 291 299 319 317 320 326 329 331 334 333 330 331 335 338 339 339 341 341 340 341 342 341 340 339 339 342 343 344 347 350 351 351 349 348 347 347 344 346 345 343 341 337
305 299 296 292 290 285 289 289 291 311 317 320 324 326 332 332 333 333 333 334 337 339 340 341 341 340 341 341 339 339 339 339 340 341 342 344 347 348 349 349 349 348 345 346 346 346 343 344 344
297 291 286 285 284 284 287 289 291 305 317 322 322 324 329 334 332 334 332 332 334 337 338 341 341 340 342 341 339 338 339 338 340 340 343 343 345 347 348 348 348 348 348 347 347 346 345 345 344
292 291 287 282 282 285 289 288 295 311 314 318 320 325 328 330 333 334 334 333 333 336 338 341 340 340 342 342 340 338 337 339 340 341 341 345 347 348 350 348 350 350 349 348 348 348 348 348 346
292 288 292 287 285 286 288 292 301 313 314 317 318 321 324 327 331 334 336 334 333 335 338 340 340 340 342 342 342 339 338 337 339 343 344 344 345 349 349 348 349 350 348 346 348 347 346 348 347
292 293 288 287 283 282 287 289 296 308 311 316 320 322 323 326 329 332 336 336 334 335 337 341 342 340 341 343 343 343 342 341 339 341 345 344 345 344 346 349 349 349 349 346 347 346 346 345 346
289 287 286 287 287 284 284 292 307 311 312 314 317 322 322 326 328 331 334 337 336 335 337 337 342 341 340 341 342 342 342 342 340 340 342 345 345 343 344 346 350 349 348 349 347 346 346 346 345
293 287 285 283 283 285 286 292 309 312 313 315 315 317 321 325 328 334 336 337 337 335 336 336 338 342 341 341 340 339 339 340 343 341 340 341 345 344 344 346 346 350 350 348 347 346 349 346 345

GFSSGP_sfc_thetae_090.txt.gz
Theta_e
352 350 345 341 323 322 313 316 324 321 320 324 325 323 323 327 323 310 331 337 342 342 352 358 363 361 362 361 361 360 359 359 361 358 358 358 356 356 356 360 361 360 361 360 361 360 361 360 361
349 347 343 335 318 310 312 323 321 325 324 325 326 331 329 325 332 328 334 340 342 348 353 357 364 363 363 362 362 360 359 360 359 359 359 359 355 356 358 356 359 360 359 360 360 361 359 359 359
348 346 332 324 317 311 313 324 326 326 325 324 329 333 331 326 330 331 339 341 346 351 354 356 362 364 363 362 362 360 359 360 359 359 358 359 356 355 355 357 358 358 359 360 360 359 359 359 358
339 338 335 321 315 318 320 325 327 326 330 333 332 326 331 337 330 340 341 346 349 351 353 360 363 363 363 362 362 361 360 360 360 359 359 358 357 355 357 357 358 359 358 359 358 359 357 357 357
342 334 319 318 317 320 325 331 331 327 331 330 332 324 323 336 342 342 344 348 348 348 353 356 362 361 363 363 362 360 360 360 359 359 358 357 358 358 356 357 358 356 357 358 357 357 357 357 357
330 331 317 314 317 322 326 331 332 330 330 330 326 326 329 341 340 342 346 347 349 350 353 355 361 362 362 361 361 360 361 360 359 359 359 359 359 358 357 357 357 357 356 356 356 356 357 359 360
327 323 318 318 318 320 323 331 331 330 329 328 333 325 333 336 341 344 345 348 351 354 354 356 356 359 362 361 362 361 361 360 360 359 359 359 359 358 358 358 358 358 357 356 355 357 358 360 360
330 325 317 318 318 318 326 329 334 333 328 335 335 323 326 335 344 346 347 349 350 352 353 353 354 355 354 357 360 362 361 361 361 359 359 358 358 358 358 359 360 357 356 355 356 356 357 359 360
334 318 311 317 320 321 330 328 333 338 332 336 338 333 335 342 344 342 344 346 348 350 350 350 351 350 352 355 359 361 362 362 362 359 359 358 355 354 354 357 358 358 357 356 355 355 358 358 359
322 313 316 325 327 325 328 327 330 332 331 330 331 336 341 342 339 338 338 338 341 345 348 348 348 348 351 356 355 355 357 356 356 355 351 351 352 354 354 357 358 358 359 356 357 353 355 350 350
322 317 322 329 330 330 328 326 333 330 327 330 328 333 338 338 337 338 337 337 339 345 348 347 346 349 351 352 352 353 353 353 353 351 347 350 351 353 354 353 352 354 352 343 346 344 347 349 350
310 320 325 329 333 329 326 331 325 329 332 336 335 338 337 335 336 337 337 339 341 344 346 346 347 349 349 351 351 351 352 352 352 348 344 348 347 348 350 350 351 351 348 341 344 346 347 348 349
311 314 322 330 329 329 332 330 330 331 338 338 337 338 336 336 336 338 338 340 341 343 344 344 346 347 346 349 349 350 351 352 351 347 347 347 345 345 348 348 348 348 348 345 345 347 348 348 350
314 314 316 328 327 331 328 328 330 334 339 336 334 334 335 335 336 337 337 337 340 342 343 343 345 347 346 347 348 349 349 351 351 350 349 349 345 345 347 346 346 347 346 346 348 347 347 348 348
314 308 313 323 326 326 332 324 326 335 338 333 332 333 334 335 336 336 338 338 340 341 342 340 344 346 345 346 348 348 349 351 350 349 349 349 347 347 346 347 346 346 343 345 347 346 347 347 345
302 300 294 317 326 329 327 317 328 336 336 332 332 332 332 333 335 338 338 338 340 340 340 341 347 346 345 345 347 349 349 350 350 348 347 349 349 347 342 347 347 346 343 346 346 344 343 342 342
299 295 294 313 327 327 326 319 329 334 334 333 331 331 332 333 333 337 338 339 340 339 340 340 344 344 345 345 347 348 349 349 349 348 348 349 349 350 345 345 347 347 343 345 348 345 343 342 341
295 294 294 297 318 323 322 318 327 332 332 332 332 331 332 332 331 336 337 339 340 339 340 341 343 344 344 346 346 346 348 349 350 350 349 349 347 354 349 348 347 347 344 343 346 344 343 343 341
299 297 295 299 314 319 319 317 322 328 330 329 330 331 331 332 333 336 336 338 340 339 339 340 341 342 343 342 343 343 344 347 350 350 351 346 349 352 350 350 348 349 346 346 346 345 341 343 341
299 297 296 299 304 303 302 310 321 325 328 329 329 329 331 332 332 333 334 335 338 339 339 340 341 341 344 342 344 345 344 347 348 350 350 354 355 352 349 350 349 349 347 348 347 346 343 344 340
296 295 295 297 301 317 314 309 315 323 327 330 331 332 331 331 332 329 331 333 338 338 339 340 342 341 345 342 343 343 345 346 346 348 348 352 353 354 354 352 349 346 348 345 346 346 345 339 342
293 302 301 299 293 289 304 289 306 317 320 324 329 328 330 331 332 329 330 333 337 339 341 342 342 341 344 342 342 343 341 341 344 346 349 351 356 352 352 353 350 347 349 347 347 348 346 343 340
300 302 300 298 292 289 293 289 293 314 315 320 324 329 329 332 331 329 330 333 338 340 340 342 343 342 343 343 342 342 341 342 346 346 348 350 353 354 352 353 352 350 349 350 351 349 349 346 344
303 297 294 290 288 285 288 288 289 307 310 318 323 327 330 331 334 331 332 333 338 340 340 341 340 340 341 343 340 340 341 341 342 345 345 347 350 353 351 352 352 352 351 349 350 352 350 349 351
296 290 284 284 284 284 286 288 296 306 312 314 315 321 329 333 334 333 330 331 336 338 339 340 340 339 340 341 341 339 341 342 343 343 345 345 347 350 352 352 351 352 352 351 352 352 351 351 351
291 290 286 281 281 285 288 286 298 313 316 320 323 322 323 330 334 334 332 332 334 337 338 339 339 339 340 341 341 339 340 342 342 344 345 346 347 350 353 351 352 353 353 353 352 352 352 353 351
290 286 288 285 283 286 287 295 302 314 314 316 317 320 322 325 332 334 335 332 333 337 338 339 340 340 341 341 341 339 338 340 341 344 345 347 349 351 353 352 350 354 354 352 353 351 352 353 353
291 291 287 286 282 281 286 293 298 307 310 314 314 317 321 324 329 334 335 335 333 336 338 340 341 340 341 342 342 341 339 339 341 343 345 346 348 350 352 352 352 352 354 352 352 352 352 351 351
288 286 286 286 285 283 283 292 307 309 312 312 314 317 321 325 329 330 334 337 336 337 337 339 340 341 341 342 343 343 341 340 339 341 345 348 349 349 348 351 352 352 353 353 351 351 351 350 351
290 286 284 285 283 283 287 291 310 312 314 314 313 316 320 323 326 328 332 336 337 336 337 337 340 341 341 342 343 343 343 343 341 340 342 345 347 349 349 348 350 353 352 353 352 351 353 351 350

GFSSGP_sfc_thetae_093.txt.gz
Theta_e
354 351 347 342 324 322 314 318 325 321 322 327 327 324 323 326 323 319 338 342 345 348 354 354 361 361 361 361 360 359 359 361 360 358 357 357 357 357 360 360 360 361 361 362 362 361 361 361 362
352 347 344 336 318 312 314 324 323 325 327 328 329 328 330 327 333 331 335 343 346 350 354 356 363 363 361 362 360 359 359 361 360 360 359 357 357 357 357 359 359 358 361 361 361 360 360 361 361
350 347 336 330 319 314 316 324 327 326 327 327 331 335 333 330 332 333 341 345 349 353 357 359 362 363 362 362 361 359 360 359 360 359 359 357 356 357 356 357 358 358 359 361 360 360 360 359 358
343 343 339 325 318 320 320 327 327 324 329 336 334 327 331 337 333 341 344 347 350 354 356 361 363 363 362 362 361 359 361 360 359 358 358 359 355 358 356 357 358 358 359 359 359 359 359 359 359
346 340 323 321 319 322 328 332 329 324 327 332 333 324 324 339 344 342 345 348 349 351 357 360 364 364 363 362 362 360 360 360 359 358 358 358 356 358 357 358 358 358 359 358 358 358 358 358 359
336 336 320 318 319 323 329 332 332 331 331 330 328 326 329 343 338 343 347 348 350 352 355 357 362 362 363 363 360 360 361 359 360 359 359 358 358 359 358 357 357 356 357 358 357 358 359 360 360
331 328 320 320 320 321 325 333 331 332 330 329 334 326 333 337 340 345 348 350 351 354 355 357 359 361 361 360 361 360 361 360 360 360 360 359 358 358 359 358 359 357 357 356 358 359 359 361 360
337 331 320 321 320 320 327 331 334 334 328 338 337 326 326 336 343 346 349 350 352 353 355 359 361 362 361 361 361 360 361 360 360 359 359 359 359 358 358 358 358 357 356 357 357 358 359 359 361
335 324 317 319 321 324 331 329 335 339 333 337 337 333 336 341 344 344 346 348 350 351 354 356 358 359 361 359 362 362 361 361 361 359 359 359 360 359 357 358 359 357 356 356 356 358 358 359 360
329 323 320 327 328 326 329 329 332 332 331 331 333 338 340 341 340 341 342 343 345 348 354 357 357 358 360 359 362 363 362 362 362 362 362 361 362 359 357 358 359 359 356 356 356 358 354 355 356
328 322 325 329 331 331 328 329 333 331 328 331 330 333 337 337 339 340 341 343 345 349 353 355 357 357 358 358 360 360 360 360 363 362 360 361 360 359 358 360 358 357 352 355 350 350 353 355 356
318 322 328 330 333 330 326 332 329 331 333 337 337 336 336 336 338 339 340 342 344 348 351 354 356 356 359 361 358 358 357 358 357 358 358 361 358 358 360 358 359 359 352 352 354 352 356 356 357
319 320 322 331 333 331 332 329 328 331 337 338 337 336 335 336 339 341 342 342 344 345 349 352 354 356 358 359 358 358 356 357 358 356 357 360 357 357 358 359 357 358 356 352 355 357 357 358 356
320 321 321 331 332 331 329 329 331 334 339 336 335 334 336 339 340 341 341 341 343 346 348 352 351 357 358 358 359 358 357 358 356 355 358 357 358 356 354 355 355 357 358 356 358 358 358 357 356
318 314 319 322 329 329 332 323 325 336 338 334 336 336 338 339 341 341 343 342 344 346 350 351 350 354 357 358 358 357 357 357 357 360 360 359 358 357 357 353 353 356 357 355 359 359 359 357 353
310 309 307 324 327 329 330 318 329 337 337 333 335 336 337 339 340 343 344 343 344 344 348 350 348 352 355 356 356 356 357 359 362 361 360 359 359 358 356 356 354 355 353 355 356 357 354 353 351
308 307 303 318 328 328 328 321 332 338 336 333 333 335 337 338 341 344 345 345 343 345 348 348 350 352 354 357 355 357 360 359 363 362 360 357 359 358 354 355 356 355 353 354 356 356 354 352 350
305 303 304 309 324 327 324 322 330 335 335 333 334 335 336 336 339 343 345 346 346 346 349 350 350 354 356 356 356 356 358 359 361 361 361 358 360 359 357 355 356 355 351 353 356 356 354 353 351
307 306 304 306 321 324 320 321 326 333 334 334 333 334 335 336 340 343 345 346 346 346 347 350 351 355 355 353 351 352 353 356 362 360 360 359 357 361 361 357 356 356 353 354 357 355 352 353 354
307 306 304 306 312 319 309 311 324 330 333 335 334 334 336 337 338 340 343 344 345 345 346 350 351 355 355 354 356 357 357 358 361 359 360 359 360 364 362 360 358 358 354 359 357 357 352 354 353
307 306 304 303 305 319 319 315 322 327 333 336 337 338 338 337 337 339 341 342 344 345 346 349 352 354 356 357 357 356 357 357 356 356 357 362 360 361 363 361 360 361 359 355 359 357 355 349 352
306 308 306 305 303 300 315 300 316 323 325 331 334 336 336 338 339 340 340 340 342 345 348 350 352 353 355 358 356 357 352 357 353 357 358 359 363 362 362 362 361 360 359 358 357 357 357 353 348
306 309 307 305 304 301 307 302 306 323 319 320 330 335 337 337 339 339 339 341 343 345 346 349 352 353 355 356 358 355 355 354 355 356 360 361 364 364 359 363 362 360 357 360 360 360 359 357 353
309 304 302 302 302 297 299 300 305 310 314 319 324 328 336 338 336 340 342 343 342 345 346 347 351 353 354 355 355 357 357 356 353 355 354 356 363 361 364 362 362 363 360 360 360 363 360 360 362
306 303 296 295 294 295 298 303 308 316 319 320 322 326 330 334 339 339 340 340 342 343 345 346 350 352 353 353 354 354 356 358 358 359 355 356 355 357 362 363 362 363 364 362 361 363 363 361 361
303 303 297 291 292 295 298 300 307 317 321 323 325 326 329 331 333 340 340 341 340 343 345 346 349 351 351 351 355 357 356 352 354 358 355 355 355 357 365 364 363 363 363 362 363 360 361 363 361
299 299 300 297 295 296 298 304 312 317 318 320 320 322 323 332 331 337 341 341 341 343 346 347 350 353 352 351 355 354 355 354 354 359 360 356 361 358 362 364 363 362 364 363 364 358 362 362 363
300 299 297 299 292 292 298 301 303 310 313 316 316 319 323 327 334 334 341 341 342 344 346 348 349 351 353 351 353 351 352 353 354 356 358 358 360 361 361 362 362 363 363 364 364 361 362 362 360
298 298 297 299 296 294 293 300 311 311 313 312 313 316 321 325 327 334 339 343 342 343 345 346 347 348 349 351 353 353 351 351 353 352 355 358 360 362 362 362 363 362 362 364 364 362 361 361 361
297 294 294 297 295 296 301 299 314 313 313 316 313 314 317 322 325 327 331 332 340 342 343 345 345 346 348 351 353 351 352 352 351 351 352 356 358 361 362 362 361 361 362 364 362 360 359 359 358

GFSSGP_sfc_thetae_096.txt.gz
Theta_e
353 350 352 347 327 323 316 321 327 326 327 331 332 328 327 329 327 323 342 345 349 350 354 357 363 362 361 361 360 359 361 360 359 358 358 357 358 361 361 360 360 362 362 362 362 362 363 363 363
351 346 350 343 323 314 320 327 325 328 330 332 330 331 329 330 335 336 339 347 350 351 354 355 363 363 363 361 359 359 361 360 360 360 358 358 357 359 360 359 360 361 362 362 361 361 361 362 363
350 350 339 333 324 321 320 328 329 330 331 332 329 338 335 333 335 337 344 348 350 353 356 360 361 363 362 361 360 359 361 360 360 360 358 358 359 357 358 360 359 360 361 361 361 360 360 360 362
348 348 343 326 319 325 325 330 330 328 331 337 336 331 336 341 336 342 346 348 350 353 356 360 362 363 362 362 360 360 361 360 359 358 359 356 359 358 360 359 359 360 360 360 360 360 360 360 360
350 344 329 322 323 326 331 331 330 327 332 334 335 328 330 338 344 344 346 348 350 351 357 360 364 362 362 361 361 360 361 359 359 359 359 356 359 358 359 360 360 360 359 359 359 359 359 360 361
339 341 324 317 323 328 334 336 329 328 335 333 332 329 334 343 341 344 347 348 350 351 355 359 363 363 362 362 361 360 361 360 360 359 359 359 359 358 359 358 358 358 359 358 359 360 361 360 361
332 332 324 323 324 326 327 337 333 333 332 331 336 329 336 337 342 345 347 349 350 352 356 358 359 363 362 362 361 360 360 360 360 360 360 359 358 359 358 358 358 358 358 358 360 360 361 360 361
338 334 323 325 322 323 328 333 336 335 332 340 340 329 330 337 343 345 347 348 350 353 356 357 358 359 361 361 361 361 360 360 360 361 359 359 360 359 358 359 359 358 358 358 360 360 360 362 361
340 327 321 322 323 326 334 331 337 342 336 337 338 336 337 340 344 344 344 346 349 352 353 355 358 360 359 359 361 361 361 361 360 360 359 359 361 356 356 360 358 358 358 357 359 360 360 361 360
334 327 323 329 331 329 333 333 335 335 334 334 336 338 339 340 341 340 341 343 346 349 349 354 355 357 358 356 363 363 360 361 361 362 360 358 360 359 356 360 359 358 357 358 358 356 355 359 354
332 328 329 332 334 334 330 330 334 333 330 333 335 335 337 338 339 340 343 346 346 348 349 352 357 358 357 364 360 358 357 358 360 362 359 358 356 357 357 357 353 354 358 353 354 355 356 356 355
326 329 330 333 334 331 328 331 329 333 334 339 341 338 337 336 337 340 343 345 347 348 350 354 356 359 359 359 356 355 356 356 355 359 361 357 355 356 356 352 354 352 354 356 359 354 358 358 358
325 325 326 331 335 333 333 330 329 333 339 341 340 337 336 336 339 342 344 346 348 348 350 353 355 356 362 360 355 356 356 356 358 357 360 357 353 355 354 356 353 353 353 355 358 358 357 359 355
329 326 324 329 331 334 329 328 332 337 338 338 336 335 335 336 339 343 343 343 343 346 349 352 351 356 358 359 360 358 359 360 358 357 360 361 356 355 355 355 354 355 356 356 360 361 358 357 355
325 319 320 324 329 329 333 326 326 340 339 336 334 334 335 338 342 342 343 342 343 346 350 351 350 356 359 359 359 358 359 357 357 364 362 361 359 359 359 355 355 355 357 360 360 361 361 355 352
320 318 315 323 327 331 331 319 329 336 336 335 333 333 335 340 342 343 343 342 343 345 350 351 349 354 358 359 358 356 359 361 363 364 361 362 364 362 361 357 355 357 356 358 358 358 356 351 348
318 313 312 318 327 329 329 321 330 340 337 337 335 334 336 339 342 342 343 344 343 346 350 350 352 352 356 360 359 360 363 360 359 367 360 363 364 362 359 357 360 360 356 356 356 356 357 350 350
313 313 311 315 324 329 325 323 331 336 337 336 338 337 338 338 339 342 346 346 343 345 349 351 352 356 359 358 359 358 360 368 360 361 362 363 363 364 359 357 360 357 354 354 357 359 355 352 351
317 314 311 316 327 326 323 323 330 336 336 335 336 338 337 339 340 343 348 348 345 344 348 351 353 359 357 355 353 354 354 364 359 360 364 364 362 363 364 357 360 357 355 358 359 355 354 349 355
315 311 311 312 322 323 312 314 321 333 333 337 337 335 336 338 338 342 347 348 347 345 349 352 355 360 360 357 358 358 357 358 358 361 363 361 362 363 362 362 357 358 355 361 360 360 348 351 353
315 312 310 310 312 316 316 318 324 328 333 335 337 338 339 338 339 339 343 347 348 346 348 352 355 360 361 361 362 364 365 367 360 363 358 360 362 361 361 360 361 362 361 353 359 358 358 345 353
309 315 311 309 308 308 319 304 318 326 329 332 336 336 339 339 340 341 343 346 347 348 349 352 357 359 360 364 361 361 352 349 353 357 358 358 360 361 360 360 361 362 359 360 359 359 358 357 346
311 315 313 310 308 308 310 308 316 325 322 325 334 337 340 343 341 341 342 346 348 350 349 351 356 359 360 363 363 361 357 350 353 356 367 362 362 361 360 361 362 365 359 362 361 363 363 355 352
314 312 311 310 309 301 310 308 311 317 319 324 329 333 338 339 342 342 345 346 347 349 350 351 355 359 361 361 362 363 359 357 355 356 369 362 357 358 362 364 365 367 363 363 362 364 364 363 359
311 308 300 300 299 299 308 306 313 319 322 324 327 330 333 338 339 341 344 344 346 348 350 351 354 358 361 359 360 361 362 363 360 361 351 359 354 355 365 367 367 362 365 366 364 365 364 363 360
308 308 301 295 297 300 306 304 309 321 325 327 325 327 332 336 338 339 341 346 346 348 351 353 354 357 359 360 360 362 363 358 357 358 352 354 354 356 367 362 364 363 362 365 366 361 358 362 360
308 304 309 303 306 301 304 312 318 320 322 324 321 323 326 335 337 338 345 346 347 348 350 353 355 358 360 358 361 361 362 361 357 360 360 355 360 357 364 363 360 360 362 365 366 360 362 363 363
307 310 302 303 297 296 301 306 308 313 315 319 318 318 323 328 337 339 341 346 347 349 350 353 356 356 358 358 358 359 361 362 361 359 360 360 361 362 362 365 364 362 362 363 364 362 364 363 359
304 304 306 306 304 299 298 303 313 313 315 315 315 317 320 324 328 334 331 341 348 349 348 351 354 355 355 357 358 359 359 360 361 357 359 360 364 365 364 366 365 363 362 364 366 363 360 362 361
303 303 305 301 301 304 304 304 315 314 316 316 315 316 317 321 323 327 331 334 338 345 348 350 351 352 354 356 357 357 358 360 357 358 358 359 361 365 364 364 367 365 365 366 364 358 358 360 359

GFSSGP_sfc_thetae_099.txt.gz
Theta_e
353 350 351 347 327 327 322 322 329 326 327 332 332 329 330 334 328 322 344 348 351 350 354 359 364 361 361 361 359 359 359 359 358 358 358 359 361 361 361 361 363 363 363 362 363 362 364 363 362
350 347 349 342 325 319 321 329 325 330 331 334 332 332 332 330 336 337 341 349 350 350 352 357 365 363 362 360 359 360 360 360 360 358 358 357 360 360 360 361 362 363 363 362 363 363 363 364 363
356 348 340 335 325 318 321 327 328 331 332 331 332 336 338 329 336 340 347 349 350 351 354 361 364 364 362 360 360 361 360 359 360 358 358 360 358 360 360 360 362 362 362 363 361 361 361 362 360
346 345 342 330 321 327 328 328 330 329 333 334 336 331 338 340 339 344 348 350 350 352 355 361 363 362 362 361 360 360 360 360 359 358 357 358 359 360 360 360 361 361 361 362 361 361 361 361 361
347 346 330 323 323 330 332 331 329 329 333 333 335 331 331 339 344 346 348 349 348 351 355 358 365 363 361 361 361 360 360 359 359 359 357 360 359 359 360 360 361 360 360 360 360 360 361 360 361
339 340 324 319 323 331 333 332 331 332 335 335 334 332 334 344 342 345 348 348 348 350 354 358 362 362 362 361 360 361 360 360 360 359 359 360 360 359 360 360 360 360 360 360 361 361 362 362 362
333 334 323 322 324 328 333 335 330 333 334 333 338 331 336 339 344 346 348 349 349 353 352 357 359 362 362 361 361 361 361 360 360 360 359 359 359 359 359 359 360 360 361 361 362 361 362 362 361
340 333 323 325 324 325 333 337 338 335 333 339 341 330 329 339 344 346 347 348 348 350 352 355 356 358 361 361 361 361 360 360 360 360 359 360 360 359 359 362 360 360 360 361 360 361 362 361 359
344 327 320 322 323 329 334 332 339 344 336 337 340 337 338 342 344 344 344 345 347 348 349 351 356 357 360 358 361 361 361 360 361 358 358 358 357 356 356 360 359 359 358 360 360 360 361 361 360
334 323 325 331 331 331 335 335 337 335 335 336 337 338 339 341 342 341 340 341 343 345 348 352 354 355 357 354 361 361 358 360 360 359 361 357 360 358 352 358 359 358 359 358 357 358 361 362 356
333 323 332 333 333 334 333 334 334 335 331 335 332 334 338 340 341 340 340 342 345 346 349 353 357 358 357 359 358 356 358 355 358 360 359 363 354 356 351 354 354 355 358 353 355 354 354 355 349
326 331 331 334 334 334 332 334 330 335 335 340 337 338 338 338 338 339 340 342 345 346 350 353 358 361 359 356 355 355 355 356 354 354 358 357 357 359 363 350 351 355 355 355 356 354 358 352 352
328 328 330 336 335 334 333 328 330 333 339 343 343 338 336 337 338 340 342 344 345 346 348 351 356 361 359 362 354 352 354 356 353 355 359 359 354 353 353 355 351 352 353 354 356 356 356 355 351
330 328 328 332 334 334 330 329 332 336 341 341 340 335 336 336 338 340 341 343 345 347 348 351 352 360 359 359 361 358 357 357 361 356 357 357 356 355 352 354 351 351 352 355 361 358 355 354 351
330 325 325 329 332 330 334 327 327 337 339 337 336 335 336 337 339 339 342 343 345 347 349 350 352 355 358 358 358 363 356 356 360 357 362 360 358 357 359 357 362 352 357 359 358 361 359 357 347
325 324 317 325 327 331 331 320 333 338 337 334 334 334 335 336 338 341 342 343 345 346 349 350 350 354 356 359 359 359 361 358 358 358 358 361 362 362 363 354 352 356 355 353 355 359 352 347 346
322 315 315 319 329 329 326 322 331 335 337 333 333 333 334 337 339 341 341 342 344 348 350 349 352 353 355 359 358 358 363 359 358 360 361 363 363 362 362 358 360 360 355 357 356 355 351 349 346
314 315 317 318 324 328 324 322 330 333 335 332 333 333 335 337 339 340 340 342 343 347 350 352 351 357 360 358 362 359 356 360 361 358 358 363 363 363 362 359 361 359 359 352 355 362 352 355 348
318 316 315 320 326 325 321 322 328 335 335 335 333 332 333 335 340 341 342 343 342 346 349 352 354 360 358 354 351 355 354 360 361 359 361 362 362 362 364 357 358 360 360 356 358 352 355 347 349
318 315 315 322 327 323 319 319 326 331 332 335 337 335 335 337 337 340 342 344 341 344 348 352 356 360 358 354 360 362 358 358 364 359 362 365 361 361 360 364 357 364 356 360 358 358 351 348 349
317 314 314 314 323 319 315 316 321 328 332 336 338 338 339 337 336 338 341 343 344 343 348 352 357 360 361 367 364 361 363 360 357 358 358 360 361 360 362 360 364 362 360 354 358 357 361 349 347
311 317 316 315 314 310 318 305 318 325 330 334 337 338 337 337 339 339 340 343 343 344 348 353 357 361 361 363 364 362 352 350 354 362 356 358 362 363 361 362 361 362 360 363 358 354 361 361 346
312 318 315 314 312 315 312 311 312 323 323 329 335 338 338 338 340 337 339 344 345 346 346 351 357 361 364 364 366 358 358 354 358 357 363 364 364 361 360 362 362 362 360 366 366 361 365 353 354
318 315 316 314 311 305 314 311 310 317 321 328 334 337 339 339 340 342 342 345 344 346 347 349 356 363 363 363 362 363 358 360 353 355 356 356 355 358 362 361 362 364 359 363 361 364 364 366 365
315 312 303 302 302 302 314 311 314 322 325 326 328 331 337 341 344 344 341 342 345 345 346 349 360 363 362 360 362 362 362 361 360 359 356 352 353 351 363 366 364 362 365 364 365 367 365 362 360
312 311 304 297 299 302 311 309 314 325 325 326 326 329 334 338 343 344 344 345 345 346 347 349 360 363 361 361 363 368 365 358 355 360 355 355 351 354 366 362 362 364 363 363 366 361 358 367 360
311 307 312 306 308 303 308 315 320 324 325 324 322 324 327 336 342 343 343 346 345 348 349 352 359 365 362 361 367 367 367 365 359 364 363 356 361 361 365 360 363 363 362 364 367 362 361 363 363
310 314 305 306 300 298 306 310 311 316 318 320 318 319 324 332 339 342 341 343 347 348 349 352 356 361 361 363 362 361 363 365 364 361 361 364 364 361 355 363 359 361 363 363 367 364 365 364 360
308 307 309 309 307 301 301 308 320 318 316 318 317 318 321 325 330 336 340 341 347 345 345 351 354 358 360 361 363 365 362 363 364 360 360 361 365 363 364 365 363 362 360 362 366 366 364 363 364
309 308 309 303 303 306 305 303 318 320 320 319 317 317 319 322 327 332 334 334 329 332 338 350 343 354 355 359 361 360 362 362 361 362 360 361 364 367 364 365 365 364 363 367 363 359 357 359 358

GFSSGP_sfc_thetae_102.txt.gz
Theta_e
353 350 351 345 325 326 319 322 328 323 324 328 332 331 328 330 326 320 345 348 348 350 355 357 363 363 362 360 360 359 359 359 358 359 362 362 362 364 365 365 366 366 365 363 363 364 363 364 361
349 346 349 339 322 316 319 326 323 326 328 332 333 332 329 325 334 337 342 348 348 348 351 354 363 363 361 360 362 360 360 359 358 358 358 361 361 362 362 363 364 365 365 364 363 363 364 363 362
352 351 337 328 323 319 319 325 326 328 330 331 332 335 330 328 336 340 346 347 346 349 355 360 364 364 361 361 361 361 360 360 358 360 361 359 361 361 361 362 363 363 363 362 361 362 361 360 359
347 345 340 326 321 326 326 327 327 327 331 335 334 327 333 340 339 342 346 346 348 352 356 363 365 363 361 362 360 361 360 359 358 359 359 360 359 360 361 361 362 362 362 362 361 361 362 361 359
346 343 326 323 325 327 330 328 330 327 329 332 331 326 329 339 344 344 346 348 348 351 355 359 365 364 362 361 361 361 360 359 360 359 359 360 360 360 361 362 361 362 361 361 362 362 362 361 359
337 340 323 320 325 327 329 331 333 331 333 332 328 328 331 342 341 344 346 349 350 348 354 357 363 364 362 360 362 361 360 360 360 360 361 360 361 361 361 361 361 361 362 362 362 362 362 361 358
333 332 322 322 325 326 327 334 333 332 331 329 334 327 333 337 342 344 347 350 349 351 354 357 358 361 362 361 362 361 361 361 360 361 362 362 361 361 360 361 361 361 362 362 362 362 362 360 357
339 335 323 325 324 325 334 335 339 335 331 338 337 327 327 338 342 344 344 349 348 349 352 357 359 359 358 358 361 361 361 361 361 359 360 361 361 360 360 363 363 361 361 360 361 362 362 359 357
341 323 320 322 325 329 336 332 339 343 335 337 338 334 337 341 342 342 343 344 346 348 350 352 355 357 360 358 359 361 362 361 360 359 360 361 357 356 357 363 362 360 360 360 360 361 361 359 358
332 321 322 331 332 331 333 332 335 335 334 335 331 336 338 339 340 339 339 339 342 346 348 353 354 355 357 352 360 360 358 359 363 358 360 354 355 354 355 359 361 359 358 358 359 361 362 361 354
331 323 331 333 335 334 334 335 338 334 331 333 329 332 336 337 338 337 339 342 342 348 350 351 356 358 356 355 357 359 358 358 359 354 363 363 358 352 350 356 354 357 358 355 354 358 357 359 356
324 331 333 335 335 333 333 336 334 335 335 335 335 336 336 335 335 336 337 342 345 349 350 355 358 364 362 348 354 357 355 359 355 358 365 362 358 356 359 356 357 352 362 350 359 348 351 355 350
327 329 334 334 335 334 334 331 333 334 339 339 336 336 335 334 335 338 340 341 349 346 352 355 359 360 362 351 353 349 353 355 353 362 360 362 350 362 357 358 355 352 361 354 357 354 359 356 351
327 329 330 333 333 332 328 329 330 335 340 339 335 334 335 334 335 339 342 341 344 347 348 353 357 359 364 359 352 348 352 353 355 358 365 359 359 354 358 361 357 359 355 356 354 351 354 349 354
328 324 326 331 330 330 332 325 326 338 339 338 334 334 333 334 337 339 342 342 344 345 350 350 353 358 362 366 359 353 353 354 359 356 369 367 363 365 350 359 355 360 363 361 364 358 364 354 352
321 324 316 329 331 332 329 319 328 337 336 334 333 332 333 334 335 339 342 344 346 347 351 352 348 353 360 367 362 351 355 345 347 358 360 367 368 368 367 363 355 363 363 350 360 357 353 357 352
320 313 315 319 330 329 327 321 328 335 336 331 331 331 331 333 336 339 341 342 344 349 352 351 354 352 358 365 361 358 353 355 358 361 366 364 367 366 364 362 365 365 359 358 350 347 356 356 346
311 314 317 317 325 328 324 322 328 331 333 331 331 331 331 333 334 339 339 342 344 349 353 356 355 360 366 362 371 360 366 357 358 354 360 364 363 363 357 364 365 367 362 353 349 357 355 357 342
316 316 315 319 329 326 323 323 324 329 334 330 329 330 331 333 337 338 339 341 344 348 351 356 359 363 361 360 359 362 360 365 361 354 361 360 365 365 359 358 364 367 350 357 361 358 358 357 356
312 313 315 321 327 324 322 319 325 329 330 333 330 331 332 333 334 338 338 340 343 348 352 355 360 362 364 360 360 358 350 360 362 362 366 366 366 367 361 363 362 362 360 365 362 365 355 355 355
311 313 312 318 322 320 319 315 316 324 326 331 335 334 335 336 334 336 339 339 341 346 350 354 361 361 364 367 360 350 354 362 362 358 361 363 364 365 367 365 366 355 363 360 366 364 361 353 352
309 319 316 320 315 310 322 307 317 323 325 329 333 337 335 336 337 336 339 339 340 345 350 356 362 361 362 357 366 364 360 349 362 360 361 362 362 366 366 366 368 367 364 365 366 357 360 364 354
312 318 316 315 314 314 314 311 315 322 319 326 331 336 338 337 336 337 339 340 343 345 348 354 361 362 365 367 365 362 346 335 351 349 366 365 365 361 363 368 368 366 351 357 367 366 367 362 355
317 315 316 314 311 306 313 312 313 315 320 328 334 336 338 339 338 339 339 341 340 344 346 352 357 362 364 366 362 364 351 345 350 351 363 361 362 364 364 365 369 367 355 363 367 368 368 366 362
313 311 303 302 301 300 315 312 316 321 323 325 330 332 336 340 339 340 341 341 340 343 345 351 356 360 363 362 363 363 362 349 348 358 358 355 358 359 362 366 369 368 371 366 369 370 368 367 365
311 311 304 297 298 301 314 309 315 325 326 327 329 331 335 339 341 341 342 342 343 343 346 351 357 360 362 362 365 367 365 360 355 358 356 348 352 350 361 364 366 368 365 365 367 367 365 367 364
310 307 313 306 307 302 310 315 320 323 323 324 324 327 330 335 341 340 343 343 342 345 344 352 357 360 362 361 364 367 368 368 363 369 370 362 351 353 366 363 366 367 365 367 367 365 365 365 368
311 314 304 306 298 298 307 310 311 316 318 319 319 321 325 331 335 340 341 340 347 348 348 352 359 361 363 363 365 364 366 367 368 373 368 373 359 353 351 342 363 368 368 369 366 364 365 364 365
307 306 308 308 306 300 302 307 320 319 319 317 318 319 321 326 330 333 336 338 343 344 340 342 347 359 361 363 364 364 364 366 368 366 368 367 373 354 337 336 345 365 366 367 368 364 363 360 363
309 308 309 303 303 306 305 305 320 321 321 320 318 317 320 324 328 331 333 333 333 339 340 338 338 342 347 353 361 362 366 366 364 365 366 368 368 372 358 350 360 360 366 365 366 361 361 360 361

GFSSGP_sfc_thetae_105.txt.gz
Theta_e
353 351 347 343 323 322 316 322 323 322 324 330 332 329 327 330 325 317 343 347 349 352 357 359 364 362 362 360 359 359 358 359 361 363 364 363 363 365 366 365 364 364 366 364 363 363 361 362 362
349 345 346 336 318 313 314 325 319 327 332 333 330 329 327 325 336 338 339 347 350 352 352 357 363 363 360 362 361 360 359 359 358 361 362 361 363 365 364 364 363 366 366 364 364 363 362 360 361
349 348 334 327 319 313 314 323 321 329 333 329 328 330 330 329 338 338 343 348 350 348 351 356 364 363 362 361 361 361 361 359 360 359 360 362 361 363 363 364 363 363 362 363 362 360 359 359 360
345 343 338 324 316 325 325 322 325 328 328 330 329 325 334 340 337 340 344 345 349 352 356 362 364 361 362 361 361 361 360 358 359 359 360 360 361 362 362 363 363 363 362 362 362 361 360 359 359
345 339 323 321 322 326 324 326 329 326 327 328 330 325 328 337 342 342 344 351 349 353 357 358 365 363 362 361 361 361 359 358 361 360 360 361 361 362 363 362 362 362 362 362 362 362 359 359 358
333 336 320 316 322 327 330 333 331 328 328 328 328 327 328 338 339 342 347 348 352 351 355 356 363 364 362 362 360 360 360 359 361 362 361 363 362 362 364 361 361 363 362 362 362 361 360 358 356
330 328 320 322 322 325 331 337 333 326 326 327 332 324 329 334 341 346 347 348 349 352 353 355 356 358 361 362 361 361 360 361 361 361 361 363 361 361 363 362 362 363 362 361 361 361 359 358 355
336 330 322 324 321 324 334 336 337 331 328 334 334 324 324 334 344 345 345 346 348 350 351 353 354 354 354 355 362 361 361 361 361 360 360 362 360 361 362 364 364 362 361 361 361 360 358 357 357
339 322 317 321 323 327 336 333 340 341 332 333 334 332 334 340 343 342 341 344 344 349 351 352 352 351 352 353 357 360 361 361 360 360 359 360 350 351 355 361 363 361 361 360 360 359 357 356 357
328 319 319 329 331 330 334 334 336 334 332 333 330 335 336 340 341 339 339 339 341 343 348 350 351 351 352 355 353 352 356 353 352 351 350 350 349 348 354 358 361 360 360 360 359 359 359 359 351
326 320 323 325 333 334 331 334 338 334 326 327 327 331 333 337 338 336 337 340 341 345 347 350 349 351 350 353 353 352 351 351 351 351 349 349 347 350 350 351 351 350 357 352 357 357 356 355 353
327 330 330 334 335 333 333 335 333 333 333 333 332 333 333 334 336 337 337 340 344 344 345 348 352 344 342 345 349 350 351 349 349 347 352 345 348 345 345 348 348 348 351 344 348 343 345 347 351
325 328 331 335 334 334 336 332 332 332 339 335 334 334 331 331 334 337 340 343 346 345 348 348 344 343 340 335 344 347 347 348 348 350 351 349 348 344 346 346 348 346 347 345 344 350 345 344 344
325 331 331 333 332 332 331 332 331 335 341 333 332 331 330 330 334 338 341 341 341 345 348 351 342 342 340 335 344 342 347 348 349 348 353 352 347 347 347 348 347 349 351 351 343 345 346 346 343
326 322 327 329 328 328 331 323 326 338 339 335 331 331 331 330 335 335 341 342 344 347 349 349 346 344 339 341 348 344 346 349 350 350 354 351 349 349 345 347 350 351 349 345 344 345 352 349 345
310 320 315 325 328 329 328 316 328 337 336 335 333 331 330 331 337 337 337 337 342 343 343 346 352 349 349 347 345 341 344 344 343 354 351 354 354 354 349 351 349 347 347 344 348 343 340 345 346
307 306 314 321 329 326 325 318 328 334 334 333 331 329 328 330 335 337 339 338 343 343 342 342 348 348 350 347 346 340 341 346 346 354 354 352 352 354 351 351 353 349 350 348 343 345 342 343 341
301 305 316 318 325 326 323 322 326 331 332 331 329 327 327 329 332 337 339 340 344 343 341 345 345 349 347 351 349 347 347 348 349 350 353 353 355 355 348 353 349 352 346 344 343 343 351 346 339
307 310 313 320 327 322 320 320 321 329 331 331 328 324 326 328 332 335 337 341 343 344 340 348 347 351 347 349 349 349 348 349 347 346 355 354 355 353 347 347 350 348 347 346 342 347 346 346 345
306 307 316 323 327 322 321 319 324 328 330 331 331 325 327 327 329 332 334 340 341 342 343 348 351 350 346 350 351 351 346 351 351 353 353 355 354 354 351 349 349 352 347 347 347 349 346 346 341
304 301 314 317 319 323 318 314 317 325 328 329 330 333 330 329 328 330 332 338 341 342 345 349 350 350 352 350 347 345 345 349 349 350 352 354 354 354 355 354 352 348 351 347 348 347 345 340 341
297 313 319 315 312 307 317 301 313 319 321 324 327 332 330 330 331 330 331 336 339 342 347 351 350 349 352 353 347 338 342 342 345 349 353 353 355 355 352 354 352 352 348 348 350 353 350 348 343
303 321 318 315 310 312 311 305 311 318 317 321 326 326 330 332 333 332 332 335 340 343 345 352 351 349 350 353 350 347 339 336 342 346 350 352 354 355 354 353 353 351 347 347 347 351 350 351 349
313 310 314 313 310 303 310 307 308 314 318 320 324 325 332 333 335 335 336 334 339 342 346 350 351 350 353 351 350 346 333 332 340 344 348 349 350 351 354 354 352 351 351 348 351 351 351 350 351
309 301 295 296 299 299 310 306 309 319 318 320 320 325 336 337 335 335 335 335 338 340 344 347 352 350 351 352 351 347 343 344 345 345 346 347 347 348 349 353 354 352 351 351 353 352 350 351 351
303 300 296 295 293 294 306 303 311 321 326 328 329 332 334 337 337 338 339 338 337 339 343 346 349 351 351 351 351 349 347 344 337 343 349 346 347 347 347 355 354 353 355 355 352 349 351 353 349
304 299 305 298 298 294 305 313 320 322 322 324 325 328 329 331 335 340 338 342 341 340 342 345 348 351 354 353 353 351 351 346 344 344 350 346 348 352 353 354 354 354 353 353 353 351 349 350 351
303 304 296 296 290 289 302 308 308 313 316 318 319 322 326 330 333 335 338 341 344 343 344 343 344 342 350 353 354 354 353 353 354 353 351 349 350 347 345 346 350 353 355 354 351 350 352 352 349
301 298 299 298 296 291 297 301 318 315 315 315 317 320 324 327 331 332 332 334 338 340 339 340 338 335 335 335 344 352 353 353 354 353 350 350 349 347 341 342 339 345 353 353 353 351 350 350 350
302 299 299 294 293 300 303 302 320 318 316 316 315 319 323 328 329 331 331 332 333 336 336 337 339 336 335 336 342 350 352 353 354 354 354 352 347 347 344 338 339 344 352 352 351 349 351 350 348

GFSSGP_sfc_thetae_108.txt.gz
Theta_e
351 350 348 341 322 320 316 319 326 323 323 327 328 326 325 328 323 314 343 347 351 352 357 360 364 363 362 361 360 361 362 361 361 363 364 365 363 363 364 363 363 363 364 362 362 362 361 360 360
349 347 346 336 318 312 315 324 322 325 327 330 330 330 328 325 336 337 339 349 353 355 355 357 363 362 360 359 358 358 358 360 362 361 363 364 363 364 363 363 363 363 364 363 362 361 360 359 358
347 345 333 326 316 313 314 324 324 327 329 328 326 333 331 330 338 339 344 351 352 351 354 356 363 362 361 361 362 360 358 358 360 361 362 362 363 363 363 363 363 363 365 361 361 360 360 359 358
344 343 336 322 314 321 322 325 325 325 329 332 331 327 335 340 338 343 348 349 348 350 354 361 361 361 361 362 361 361 359 361 359 361 361 362 363 363 363 363 362 362 362 361 359 359 360 360 361
346 338 320 320 319 321 326 325 325 323 327 329 331 326 328 337 344 346 346 348 348 352 355 356 364 362 361 361 361 360 357 359 360 360 360 362 362 363 362 362 362 362 362 361 360 360 360 360 360
333 335 318 315 320 327 330 328 327 326 328 329 328 327 327 339 340 343 348 350 352 353 355 357 362 362 362 361 361 360 359 361 360 360 361 361 362 363 362 361 362 362 362 361 360 359 359 358 361
330 326 320 322 321 324 330 332 326 327 327 326 331 324 329 334 342 347 349 352 353 354 353 354 355 358 361 361 361 360 360 360 360 360 361 362 362 362 362 363 363 362 361 360 359 357 357 358 359
336 329 317 321 321 323 332 329 329 328 327 334 333 323 323 335 345 347 348 349 349 352 354 353 352 352 353 354 361 361 361 360 360 360 361 361 362 361 361 364 365 361 360 359 358 357 356 356 358
339 321 314 317 321 325 335 329 336 341 330 331 333 331 335 342 344 342 343 345 346 349 350 352 351 351 351 353 357 360 361 360 359 360 360 357 350 353 355 361 363 360 360 359 359 357 355 355 357
327 316 319 326 328 328 333 332 332 330 327 329 330 337 340 341 340 339 340 340 342 345 348 350 350 349 351 356 353 351 355 351 350 350 350 349 347 350 354 358 362 361 360 359 358 357 357 357 352
324 317 325 324 327 328 333 332 337 328 327 327 327 333 337 338 338 339 338 341 342 347 348 350 349 350 349 351 350 351 350 349 349 348 347 346 347 350 349 351 351 350 357 351 355 353 353 352 353
320 329 330 333 335 331 331 335 331 332 331 332 332 335 337 337 337 337 337 339 341 344 347 349 348 345 342 347 348 348 347 349 348 348 346 343 344 344 346 346 347 346 348 344 348 344 347 345 346
325 329 331 334 335 335 336 332 330 330 334 335 334 337 336 334 335 339 340 342 343 342 346 346 345 339 335 341 344 345 346 347 347 345 349 346 345 341 344 346 346 345 343 344 343 345 342 342 339
316 331 332 333 332 334 331 330 331 331 335 334 331 330 334 334 336 338 341 341 341 344 344 343 344 342 334 335 342 340 344 346 347 348 348 347 345 342 344 343 344 344 347 346 342 343 345 344 339
332 324 325 330 330 330 331 323 325 337 339 330 329 330 330 335 338 339 342 341 344 346 345 342 341 342 335 337 343 342 347 346 347 349 350 347 344 345 344 345 345 345 344 339 340 346 344 344 344
318 321 317 327 326 330 325 315 328 336 335 329 329 329 329 336 339 340 342 341 346 346 345 344 346 340 336 340 344 340 343 344 343 348 348 348 346 344 348 346 344 345 345 343 346 340 338 343 343
299 306 313 317 327 325 323 316 327 335 335 332 331 328 328 333 337 340 343 344 345 346 346 344 344 343 344 346 342 338 341 341 343 349 351 350 352 353 348 350 346 347 347 343 341 342 340 340 338
295 304 312 317 324 324 320 318 327 333 333 330 330 332 329 331 333 338 341 344 343 344 340 347 345 345 345 345 343 343 343 344 347 349 349 352 352 350 348 352 348 347 343 341 340 341 345 342 338
300 306 316 321 325 323 318 318 324 329 330 326 330 331 327 331 334 336 340 341 341 339 341 342 343 344 346 344 342 341 341 345 345 345 352 350 353 348 346 347 347 346 343 341 344 348 343 342 342
300 301 311 320 323 321 319 317 323 327 328 329 329 329 325 331 331 334 339 339 339 337 343 343 345 343 344 348 347 348 347 347 346 345 351 352 353 349 346 346 346 347 344 344 344 346 344 341 338
298 297 312 316 321 322 318 315 317 325 328 330 332 332 333 329 329 332 336 338 338 340 344 346 346 342 344 347 347 344 345 346 346 347 347 351 352 352 352 349 347 347 347 343 344 346 345 341 341
293 303 317 315 312 304 317 302 311 319 323 327 330 330 332 328 330 332 335 337 337 342 345 347 347 346 348 346 342 340 342 340 344 345 347 350 351 351 352 351 349 348 346 345 347 352 347 344 343
299 320 317 314 311 309 310 305 304 318 318 322 327 329 331 332 329 330 335 337 339 343 346 346 346 345 349 349 343 341 340 340 342 345 348 348 349 351 351 351 351 347 344 345 347 348 346 348 347
319 316 313 312 307 299 308 305 307 311 316 322 327 329 332 331 335 331 337 338 339 343 347 346 344 344 347 348 347 342 335 337 339 343 345 346 347 349 350 350 350 349 347 345 349 348 347 347 349
307 304 293 295 296 295 306 307 307 316 320 323 325 328 330 331 333 336 334 335 337 340 345 348 344 344 348 347 348 342 334 336 342 342 344 344 345 346 349 350 349 347 348 348 350 348 347 347 347
300 300 294 290 291 296 306 303 313 318 322 323 326 330 332 335 336 339 339 336 337 340 344 348 345 345 348 347 347 343 342 345 345 344 344 345 346 345 348 351 351 351 349 349 349 347 348 348 348
299 300 302 297 298 297 306 312 318 321 320 325 325 329 329 332 337 338 341 342 338 339 342 346 348 346 345 349 348 345 344 342 337 340 346 348 345 346 352 352 351 352 351 350 350 348 347 347 348
304 305 297 296 289 290 300 306 307 314 318 321 321 323 327 332 335 337 339 339 341 341 344 346 344 340 338 340 343 348 346 345 341 341 344 345 345 349 348 347 351 351 351 350 350 346 349 348 347
299 297 298 296 293 289 294 302 317 316 317 316 318 323 325 329 330 332 335 338 338 339 340 338 336 333 332 336 339 342 346 351 350 348 348 348 346 344 340 346 344 347 350 351 349 346 349 346 346
300 297 296 292 292 296 298 304 317 317 317 317 319 321 326 328 329 330 332 334 336 336 337 337 335 336 337 339 341 343 346 349 349 350 348 348 346 344 339 341 337 340 346 349 349 348 349 346 346

GFSSGP_sfc_thetae_111.txt.gz
Theta_e
351 350 348 341 319 318 315 317 325 319 319 324 325 324 324 327 322 311 340 345 351 352 355 357 362 361 361 361 361 361 360 360 360 360 362 362 363 363 363 363 362 363 363 362 361 361 360 359 359
348 348 347 334 316 311 312 322 319 323 326 325 327 329 327 325 336 338 340 350 352 353 355 356 362 362 360 359 359 361 361 361 360 361 362 362 363 363 363 363 363 363 363 362 361 360 359 359 358
347 348 332 323 316 312 313 322 322 326 327 325 328 333 331 330 337 338 345 351 354 352 354 356 360 360 358 357 357 357 359 361 360 361 361 362 362 363 363 362 363 363 363 361 360 358 357 357 357
344 338 334 319 314 321 322 322 324 325 329 332 332 326 334 341 338 343 350 352 351 351 353 358 362 361 360 360 359 357 357 358 361 360 360 363 363 362 362 361 362 361 360 360 360 360 358 357 359
346 336 319 318 318 322 326 326 325 323 326 329 330 325 327 338 345 347 348 349 349 350 353 355 362 360 361 359 359 359 359 359 359 361 360 361 363 362 363 361 361 361 360 359 360 360 359 358 359
333 333 318 314 318 326 326 327 327 327 328 328 327 326 327 341 342 344 346 346 352 352 352 355 360 361 361 359 360 357 360 359 360 360 360 362 362 362 361 361 362 361 360 360 359 359 359 360 361
330 326 316 319 319 321 324 329 326 326 326 326 331 323 329 336 341 344 346 349 352 353 352 352 354 358 360 359 359 359 361 360 360 359 361 361 361 361 361 362 362 360 359 359 358 358 358 360 361
335 326 317 319 319 320 327 329 331 328 325 333 332 322 323 333 344 348 349 350 350 351 352 351 351 352 352 354 359 360 361 360 359 360 361 361 360 360 361 364 363 360 358 357 357 357 358 358 359
339 319 314 317 321 323 331 327 336 336 328 331 332 331 333 343 346 344 344 345 347 350 349 348 349 350 350 352 356 359 360 359 360 358 360 356 350 352 354 360 361 359 358 358 357 356 357 357 357
327 314 318 326 329 326 330 331 331 327 326 327 328 334 340 342 341 340 339 340 342 345 347 348 348 348 350 355 351 351 353 349 350 350 348 347 347 349 354 356 359 359 358 358 357 356 356 357 348
325 316 325 326 331 332 329 330 333 326 323 326 326 332 338 338 338 339 340 340 341 346 348 348 347 348 348 350 348 349 348 347 347 347 346 346 347 348 349 348 348 349 355 349 352 351 351 351 351
318 325 327 331 330 327 329 332 328 328 329 333 335 337 337 335 337 338 339 340 342 345 346 347 347 347 347 348 347 347 347 346 345 345 344 343 343 345 346 346 346 345 346 344 346 343 345 344 348
320 326 331 334 332 332 334 331 330 329 333 336 337 337 335 335 337 338 340 342 343 343 346 346 346 342 344 344 345 344 346 347 345 345 345 343 343 341 343 344 344 344 342 342 342 342 345 339 336
316 328 332 333 333 333 328 328 328 330 336 334 334 334 335 335 336 337 338 339 341 344 345 345 342 338 338 339 342 341 343 344 346 343 346 344 344 340 341 343 343 343 344 344 340 342 345 338 337
329 322 328 330 331 329 331 324 322 331 331 331 333 333 334 334 337 337 340 340 341 344 345 344 341 335 334 338 342 340 345 345 345 349 346 344 344 343 341 342 342 343 343 338 342 345 338 341 340
320 319 315 327 327 329 325 314 326 336 333 329 331 333 332 333 336 339 342 341 343 344 342 341 344 339 333 336 342 342 342 343 344 347 348 346 345 344 344 343 343 345 342 342 342 338 338 341 341
299 303 311 316 328 327 322 315 325 334 330 328 327 329 332 332 336 339 342 343 344 344 342 341 339 335 335 342 341 337 341 341 342 347 346 347 347 348 345 345 344 345 344 341 340 341 341 338 336
294 302 310 313 321 324 319 317 326 331 328 326 330 327 330 333 335 339 341 345 345 344 343 342 341 341 343 342 338 339 340 340 344 347 347 347 351 348 349 346 346 344 341 340 339 340 343 341 339
298 297 307 320 324 322 319 317 323 328 329 328 329 330 330 332 337 340 341 345 342 341 340 342 341 342 343 341 337 337 337 340 344 345 348 349 350 347 348 347 345 345 343 340 345 344 341 340 339
298 297 310 319 322 321 319 318 322 326 326 328 327 329 328 332 335 337 339 341 339 339 341 340 342 342 343 344 345 343 343 344 344 344 348 349 350 346 346 344 343 343 343 342 343 344 340 338 337
295 297 302 314 320 322 319 315 319 324 327 328 329 332 332 329 330 334 336 338 337 337 340 340 342 342 343 347 345 343 345 345 344 343 346 348 350 348 347 346 345 346 345 341 343 345 343 340 341
290 300 304 316 311 305 317 302 314 318 321 324 326 328 329 329 331 334 335 335 335 338 342 343 343 340 344 346 343 341 340 338 341 342 345 347 349 350 351 350 347 348 346 344 345 350 345 343 341
297 307 303 314 307 306 308 304 303 317 317 321 323 326 331 329 330 333 335 336 336 341 342 344 343 343 344 344 342 340 340 340 343 344 345 345 347 349 350 349 348 344 343 344 346 345 345 346 345
318 314 311 308 305 297 305 306 304 312 316 320 325 328 332 331 332 330 336 338 336 342 343 344 342 343 346 346 342 340 339 339 339 341 343 344 345 347 347 349 349 346 343 343 347 347 345 346 346
313 301 294 295 294 294 302 306 307 315 321 324 325 328 332 332 331 336 332 336 336 340 342 343 340 340 344 345 343 341 338 338 340 341 343 342 343 344 347 347 346 345 346 345 348 346 345 346 344
306 300 294 289 291 294 304 300 308 319 322 324 329 330 332 332 334 335 335 335 337 339 343 343 340 339 343 344 345 343 338 336 341 343 343 344 344 345 347 348 348 348 348 347 348 346 346 346 346
298 297 300 295 293 296 302 311 317 320 320 323 325 328 329 333 335 335 339 339 337 337 342 344 342 341 344 344 345 342 339 342 342 343 344 345 345 346 346 349 350 349 349 349 347 346 345 345 345
300 302 294 292 288 289 298 302 307 312 316 320 320 323 326 330 336 337 339 341 340 338 341 347 345 342 341 344 344 345 343 343 339 340 342 345 344 344 345 348 350 349 348 348 347 346 345 345 345
298 295 294 294 291 290 292 299 315 315 316 317 321 324 326 329 332 335 338 340 339 339 339 339 337 336 336 339 340 340 343 346 343 341 342 343 344 344 346 345 348 348 348 348 346 344 344 344 343
297 295 294 291 290 297 296 302 317 319 318 318 319 324 327 329 330 333 334 337 337 337 336 335 334 334 337 338 339 340 341 343 345 347 349 348 344 344 342 341 342 344 345 347 348 346 347 345 343

GFSSGP_sfc_thetae_114.txt.gz
Theta_e
351 350 348 340 319 316 314 317 321 315 315 321 320 323 322 327 321 309 339 345 349 350 354 356 362 360 359 359 359 359 359 359 360 362 362 362 362 362 362 362 363 363 362 361 361 360 360 360 361
348 348 346 333 314 310 311 321 315 318 322 321 326 329 327 325 335 337 339 348 352 352 353 355 361 361 360 360 360 360 359 359 361 361 362 360 362 361 362 362 362 362 361 361 360 360 359 358 359
348 347 329 319 316 309 311 320 321 323 322 322 328 333 331 327 336 338 345 351 353 352 354 356 360 359 359 358 359 359 359 360 361 361 361 361 363 363 363 362 363 361 362 360 359 359 358 359 358
342 338 333 318 312 320 319 321 323 321 323 332 331 325 334 338 337 343 349 352 351 351 353 358 359 358 358 357 357 358 360 359 360 360 361 361 362 362 362 362 362 361 360 360 359 359 358 357 357
344 335 319 318 318 322 323 325 325 321 326 329 329 324 328 339 345 348 349 351 349 349 352 356 362 360 360 360 357 357 357 360 359 360 360 361 360 361 361 362 360 360 360 360 359 359 359 358 358
332 331 317 313 318 324 324 327 327 326 328 328 325 325 328 343 343 346 348 347 351 350 351 355 359 360 360 359 358 358 359 358 360 359 360 362 360 361 360 362 361 359 359 359 359 359 359 359 358
329 324 316 318 318 321 323 330 326 325 325 325 330 323 331 336 342 344 344 349 351 352 351 353 354 357 360 359 357 358 358 359 360 360 361 362 360 361 362 361 360 360 359 358 358 358 360 360 360
332 325 317 320 318 319 328 330 331 329 325 332 332 322 325 334 342 345 348 348 349 350 350 351 352 352 352 353 359 358 358 359 359 360 360 360 360 361 360 362 361 359 358 357 357 358 358 359 359
335 318 315 318 319 321 330 326 333 333 327 330 331 330 334 342 345 344 345 346 347 350 348 349 349 350 352 353 356 358 359 359 360 360 360 355 353 355 357 361 360 359 358 357 357 357 357 357 358
326 314 318 326 327 323 331 329 328 327 325 326 328 335 341 343 341 339 339 339 343 346 347 347 348 349 351 356 352 352 354 351 352 351 349 350 351 353 356 359 360 359 359 358 357 356 355 355 350
325 316 326 327 330 329 330 329 330 326 323 324 326 333 338 339 339 339 339 340 342 346 348 347 348 349 350 350 349 349 348 348 348 348 348 349 349 351 351 351 352 352 355 350 352 351 350 352 353
319 324 327 328 333 329 328 330 326 328 330 330 333 337 338 336 336 337 338 340 341 344 346 347 347 347 348 349 348 347 347 346 346 347 347 346 346 348 348 347 348 349 348 347 350 346 348 347 349
318 321 329 333 332 330 332 329 328 326 332 334 337 337 336 336 336 339 340 341 343 343 345 346 346 345 346 346 346 346 347 347 347 347 346 347 346 345 346 347 347 348 347 347 347 347 349 343 341
317 326 331 332 329 332 328 328 327 329 333 333 334 333 334 335 337 337 338 339 342 344 345 346 345 343 344 344 345 344 347 348 347 347 348 347 346 344 347 347 346 348 348 348 346 348 348 344 343
327 322 329 330 330 327 329 324 322 332 332 332 332 333 334 335 337 336 339 339 342 344 345 344 342 339 341 342 343 343 348 348 347 347 348 346 348 347 346 347 346 349 348 347 350 346 346 348 345
320 317 313 326 327 329 325 315 326 332 332 330 332 332 333 334 336 338 340 340 342 344 343 344 344 335 337 339 344 344 346 346 348 350 349 348 348 349 348 348 348 350 349 347 345 347 346 346 346
303 304 310 318 327 325 322 314 325 333 330 329 331 332 332 331 335 338 341 341 343 344 342 342 341 336 334 339 343 342 345 346 346 350 349 349 349 350 350 348 349 351 349 348 345 347 348 345 343
296 301 305 310 321 324 320 317 324 329 329 329 330 332 330 330 334 339 341 343 344 343 342 342 340 336 337 342 339 340 343 344 346 350 350 351 352 352 351 350 351 349 348 345 346 349 348 347 344
297 295 298 319 323 321 318 318 322 326 327 327 329 328 329 330 336 339 341 344 344 343 341 340 338 339 342 340 336 338 339 342 346 349 351 351 352 352 351 349 350 349 349 348 351 350 347 346 343
297 295 308 319 323 320 319 318 322 326 326 327 329 330 328 330 333 337 339 342 342 341 341 340 341 341 343 343 342 342 342 345 347 348 351 351 352 350 350 349 349 349 350 349 349 350 347 346 344
293 292 307 312 320 322 319 315 319 325 327 328 330 331 332 331 332 335 337 340 340 339 340 341 342 342 344 346 345 345 347 347 346 346 349 352 353 350 351 350 349 352 351 348 350 351 349 346 348
289 299 304 315 308 302 314 301 314 320 322 325 326 328 331 332 332 334 336 338 337 339 341 342 342 342 344 346 345 344 343 341 344 344 348 350 353 352 351 352 351 353 351 351 352 354 351 350 346
296 307 304 315 305 303 305 300 305 318 317 320 325 327 331 330 330 333 335 338 338 340 340 342 342 341 345 347 345 343 343 344 345 346 348 349 352 352 353 353 351 351 351 351 354 352 352 353 350
317 311 308 306 303 295 301 300 302 312 316 321 325 327 329 332 331 333 337 337 335 339 341 343 341 341 344 345 344 342 342 342 344 345 346 347 350 350 350 352 352 351 350 350 353 353 352 353 351
308 302 294 292 294 294 298 303 303 314 320 323 324 326 329 334 332 331 332 334 335 338 341 342 341 341 344 345 343 342 342 343 344 345 346 346 347 349 350 352 350 351 352 350 354 353 353 354 351
303 300 294 288 290 293 304 299 305 319 321 324 326 325 329 332 333 333 335 335 336 339 341 343 341 341 344 346 346 344 342 343 344 346 347 348 347 349 352 352 351 351 352 352 354 352 352 354 351
302 299 300 294 291 295 299 308 316 319 321 323 324 326 327 331 334 334 335 339 337 339 342 342 340 340 344 345 346 343 341 339 342 346 347 349 350 350 351 352 353 353 353 353 353 351 352 352 352
300 302 294 291 287 286 298 301 302 314 317 322 324 325 328 331 334 336 337 340 340 339 341 345 342 341 344 346 346 344 342 343 345 345 345 349 349 350 350 351 352 353 353 353 352 352 352 352 352
296 294 293 293 291 289 291 297 315 314 318 318 321 323 325 330 332 334 336 340 339 341 343 346 343 340 343 345 346 345 346 347 345 342 342 346 350 349 349 348 350 351 352 352 352 352 351 351 351
295 294 292 291 289 294 294 296 316 319 320 320 321 325 326 328 330 334 335 339 338 338 337 336 336 337 338 340 341 341 343 345 348 348 346 345 346 348 349 349 348 351 351 353 351 351 352 350 349

GFSSGP_sfc_thetae_117.txt.gz
Theta_e
352 350 348 342 324 323 318 318 322 313 315 321 321 322 325 330 324 316 343 348 348 350 355 356 360 360 360 359 359 359 359 361 363 362 362 363 362 362 361 361 362 361 363 361 361 360 361 361 360
350 349 348 339 322 314 316 322 315 316 321 322 330 331 329 326 335 337 341 349 350 351 356 357 359 361 360 360 359 359 359 362 362 361 362 362 362 362 360 362 362 362 362 361 360 359 360 359 359
347 348 335 327 318 315 316 321 319 323 323 328 330 335 332 328 336 340 347 351 351 353 356 359 360 361 360 360 360 360 360 361 361 362 361 361 362 362 361 363 362 362 361 360 360 360 360 360 361
341 341 337 324 318 322 322 323 324 321 327 334 333 328 335 339 339 345 350 352 352 354 356 361 359 358 358 358 360 360 359 361 360 361 361 361 362 362 361 362 362 361 360 359 360 360 359 358 359
345 336 322 320 320 322 326 327 325 321 324 331 332 326 329 341 348 349 351 351 351 354 355 357 359 359 358 357 356 358 359 359 360 361 360 361 361 362 361 361 361 360 360 360 360 360 359 360 360
333 335 319 316 319 323 327 329 326 327 330 330 328 327 332 345 345 348 351 352 353 349 355 358 359 360 359 357 358 357 358 360 360 360 361 361 361 361 363 361 360 360 360 360 360 361 359 359 359
330 329 318 319 319 321 325 332 328 328 328 327 332 325 333 339 346 349 351 352 350 352 357 358 358 359 358 358 359 358 357 358 359 361 361 361 360 360 361 362 361 359 358 359 360 361 361 360 359
334 328 319 320 319 320 328 330 331 329 327 335 334 324 326 338 347 349 349 348 349 353 355 356 358 359 359 357 358 359 359 358 360 361 361 362 361 361 361 363 362 360 359 358 359 359 359 359 358
335 322 316 318 321 322 330 326 331 335 329 331 334 332 337 343 347 344 345 348 348 351 354 355 355 357 358 358 358 359 359 359 360 361 361 361 362 360 357 362 360 359 358 358 357 356 356 358 360
330 319 320 327 328 325 329 329 329 327 328 329 332 338 341 343 342 338 341 341 344 348 351 355 354 356 357 357 360 360 360 360 362 362 362 360 362 361 358 361 360 359 358 357 356 357 356 354 355
329 319 327 328 331 330 328 328 329 327 324 329 329 334 339 339 336 336 341 342 345 348 351 354 356 357 358 359 359 357 358 357 359 361 360 360 358 360 360 359 358 358 356 356 356 355 355 355 357
322 326 328 330 332 330 328 328 326 329 330 332 335 337 337 335 334 336 340 342 346 348 350 354 355 358 360 358 355 355 354 354 353 356 358 357 355 357 356 355 358 358 356 357 357 356 357 354 356
319 322 328 332 333 331 332 327 326 326 332 336 337 337 336 337 339 341 343 344 347 347 350 353 356 358 358 358 355 355 355 354 353 355 356 357 354 355 354 357 355 356 358 356 356 357 355 352 351
322 328 332 332 332 332 327 326 328 329 334 335 336 336 338 339 341 341 342 342 345 347 349 352 354 357 357 355 357 356 358 356 355 355 356 357 355 355 355 357 355 357 358 357 357 357 357 354 352
330 327 330 330 331 329 328 322 323 331 335 334 335 337 338 340 341 340 342 342 346 348 350 351 352 354 354 356 355 356 358 356 355 355 357 356 357 358 357 356 357 358 359 359 358 356 358 355 352
325 326 320 328 330 330 328 314 324 332 331 330 334 336 337 340 341 343 344 346 348 349 351 351 351 350 353 355 355 355 357 357 358 358 354 354 358 360 359 358 358 361 360 357 356 356 357 355 356
316 315 317 323 330 327 325 321 328 332 331 330 331 334 336 339 341 344 344 347 349 351 352 352 352 348 351 353 354 355 357 357 359 361 359 358 358 359 362 359 359 362 360 357 356 358 358 354 353
312 309 314 316 325 326 322 322 328 332 330 330 331 333 336 337 339 343 344 347 350 352 353 353 352 348 347 352 353 354 355 355 359 362 359 360 359 360 361 358 361 360 358 356 359 361 357 354 351
307 304 308 321 327 325 322 322 326 331 329 329 330 330 335 336 341 344 344 347 349 351 352 353 352 350 346 348 347 349 350 353 356 361 359 361 361 361 362 359 360 360 358 359 362 360 357 354 356
304 303 316 322 326 324 322 321 326 330 329 330 329 329 332 335 338 342 344 347 348 350 352 352 352 351 349 348 349 351 353 354 356 358 360 360 360 360 362 361 360 361 359 361 362 362 356 356 357
303 303 315 316 323 324 322 319 322 328 329 330 330 331 332 334 336 341 343 346 348 349 351 352 352 349 350 353 351 353 354 357 353 355 356 359 361 359 360 360 360 362 362 357 361 361 361 353 356
302 305 312 319 316 309 320 307 317 322 325 327 328 330 330 335 338 340 342 345 347 349 351 352 352 350 353 356 352 353 348 349 356 358 359 360 361 361 359 360 360 364 361 361 363 362 362 361 354
304 307 309 314 315 312 314 310 313 321 321 324 328 330 332 333 335 339 341 345 347 349 349 351 353 354 354 356 356 353 356 359 354 357 359 361 362 362 359 361 361 363 361 362 365 363 364 360 355
318 312 315 316 313 302 309 309 310 316 322 326 329 331 333 333 334 338 342 345 346 348 349 350 352 353 355 356 356 357 357 357 359 356 353 358 357 358 361 362 361 362 361 361 364 364 362 361 360
317 311 303 302 302 301 310 309 312 320 324 329 329 330 333 333 336 337 339 342 344 345 347 348 352 352 354 355 355 355 355 356 355 358 361 360 354 358 359 362 362 360 362 360 365 365 363 362 359
310 308 301 295 298 301 311 306 313 322 326 329 333 333 332 334 337 338 339 342 343 343 347 349 351 352 354 355 356 356 357 354 354 357 354 355 356 366 362 361 362 362 362 361 363 361 361 364 362
307 304 309 304 305 304 309 312 320 322 324 327 330 331 330 335 337 337 340 341 343 343 346 349 350 352 354 354 359 358 356 354 354 357 359 357 361 362 360 361 361 361 361 361 363 359 361 362 363
310 311 301 304 298 296 304 308 311 316 321 326 327 329 331 334 337 338 340 343 345 344 347 350 352 352 354 356 357 359 355 355 353 354 357 359 360 361 361 361 360 362 362 363 362 360 362 361 359
305 305 304 306 303 299 299 306 320 320 322 324 327 329 331 333 335 338 338 344 346 347 346 351 352 352 352 355 358 357 356 354 356 354 356 358 359 360 360 361 361 361 361 362 362 362 361 359 360
304 303 305 301 300 305 305 305 320 323 324 326 326 330 333 334 337 339 339 341 343 344 346 349 353 352 353 354 356 355 355 357 356 355 353 355 356 359 359 360 359 359 361 361 361 358 357 359 358

GFSSGP_sfc_thetae_120.txt.gz
Theta_e
353 351 349 344 332 328 319 319 320 316 317 322 324 324 330 334 326 320 344 349 349 351 355 356 362 361 360 360 360 361 363 364 363 364 364 362 362 361 362 362 362 363 363 362 362 362 361 361 360
353 350 353 344 326 315 318 322 316 320 322 324 330 332 331 328 336 338 343 349 351 352 353 356 360 361 359 359 360 361 363 363 362 363 363 362 363 361 362 363 362 363 364 361 361 361 360 362 359
349 350 341 335 327 315 317 320 321 322 324 331 332 337 335 329 337 341 348 351 352 353 355 359 361 361 360 361 361 361 363 362 362 362 363 363 362 364 363 362 363 362 361 361 360 361 361 361 360
344 343 342 328 321 324 322 322 324 322 334 336 336 331 336 341 341 347 351 351 350 352 355 359 360 361 361 361 361 361 362 362 362 361 361 362 362 362 363 362 361 360 360 360 361 359 360 360 358
347 341 330 325 323 326 326 327 325 329 333 334 335 330 331 343 348 350 350 349 347 350 354 356 357 357 357 357 360 361 361 362 362 361 360 361 362 362 363 362 362 361 361 361 360 361 361 362 361
338 339 325 320 322 326 328 329 327 328 334 333 332 331 335 346 346 349 349 348 349 347 355 354 359 360 358 357 357 359 361 361 361 361 360 361 361 363 363 362 361 361 361 362 361 360 360 360 359
335 335 323 324 323 326 328 332 329 331 331 331 334 329 336 342 347 348 348 349 348 353 356 358 358 360 360 360 359 358 360 361 362 361 361 361 361 361 363 361 360 360 360 361 361 361 361 360 361
337 333 325 326 323 324 332 333 335 333 331 337 336 327 331 340 347 347 348 347 348 352 353 356 355 359 356 357 359 358 359 360 361 362 362 362 362 362 362 363 362 360 360 359 360 360 360 359 360
338 328 319 323 324 327 333 327 334 337 333 333 335 334 341 346 346 344 344 345 347 349 352 353 354 357 356 357 359 359 360 361 362 362 361 361 363 356 359 361 360 359 358 357 357 357 357 358 360
334 328 320 328 330 328 331 330 332 331 331 332 332 339 343 343 342 340 341 341 344 348 351 352 353 352 354 354 361 361 359 357 362 360 361 361 359 360 356 360 360 359 356 357 356 356 356 357 353
331 325 326 325 331 334 328 327 333 330 327 332 331 336 339 340 339 339 341 342 344 347 348 350 356 358 359 360 359 356 355 357 361 361 360 356 354 355 354 356 356 356 356 356 356 358 355 355 355
326 330 330 330 334 333 330 331 331 332 332 335 336 338 338 337 336 338 340 343 346 347 349 351 355 359 357 354 353 352 352 353 353 357 358 356 354 357 356 355 356 360 358 358 358 354 357 353 356
326 330 332 334 333 332 332 326 328 330 333 336 337 337 337 335 336 340 342 345 348 347 349 351 355 358 358 358 353 351 350 351 353 354 356 356 355 357 357 360 356 358 358 356 357 356 355 352 352
326 327 330 333 332 334 327 328 326 329 334 334 336 336 337 337 338 340 342 344 346 347 349 351 353 356 358 357 358 354 353 354 353 351 357 361 357 358 357 357 355 357 357 359 357 359 355 351 351
324 326 330 332 332 330 330 321 322 331 334 333 334 336 338 340 342 341 343 344 347 347 350 350 353 355 358 359 356 353 353 352 351 353 361 360 359 361 361 357 356 357 360 362 360 362 360 351 350
324 326 321 330 331 327 326 317 326 335 333 332 334 336 338 340 342 344 345 346 349 348 350 351 350 354 357 359 357 353 354 353 352 355 355 359 361 362 362 357 356 360 361 357 357 356 353 352 352
323 316 320 325 332 328 325 318 326 335 332 333 335 336 338 340 342 345 347 348 350 350 351 351 352 352 356 359 357 358 361 354 354 356 355 360 360 362 363 357 358 366 360 357 356 355 356 353 352
315 316 321 322 330 329 325 324 328 331 331 331 333 335 338 339 341 345 347 349 351 351 354 356 355 356 358 357 359 358 355 354 356 356 356 361 360 362 363 357 361 363 359 355 359 361 358 357 354
319 316 317 324 330 327 323 325 327 330 329 328 330 333 337 338 343 346 348 349 350 352 354 354 355 357 354 353 350 350 350 353 354 356 361 363 361 363 367 358 360 362 357 361 363 360 358 353 358
315 313 317 324 329 328 324 323 330 332 328 326 329 332 336 337 340 344 348 348 350 352 354 356 357 359 353 353 354 353 354 353 354 357 360 360 361 363 361 363 360 362 358 362 364 364 354 354 358
311 311 318 318 325 327 325 321 325 331 334 331 331 332 333 337 339 344 346 348 350 352 353 355 358 359 359 356 355 356 362 362 358 355 356 358 360 360 362 364 362 364 361 355 362 363 365 351 358
310 311 318 321 318 312 325 311 321 327 328 329 332 330 331 336 340 342 345 347 349 351 354 356 358 359 357 358 356 357 349 352 358 364 357 357 361 360 360 361 363 364 360 363 363 361 364 365 353
310 311 312 314 312 313 316 312 319 327 323 328 332 330 332 333 338 341 342 347 350 352 352 353 358 358 357 360 360 354 354 351 352 354 359 360 363 362 359 362 363 363 358 364 366 366 367 361 357
313 310 312 314 311 304 310 312 316 321 324 328 331 335 335 333 337 341 345 348 349 352 352 352 356 359 360 360 359 360 358 354 352 354 353 354 355 357 362 361 364 365 365 362 363 367 366 365 364
312 310 304 302 303 302 313 311 314 324 328 330 333 334 337 336 335 338 342 346 348 350 352 351 355 357 359 359 358 358 359 358 358 358 354 355 353 353 361 364 364 362 366 364 366 367 366 365 361
310 311 304 299 300 304 314 307 316 326 330 333 337 337 338 339 337 335 343 346 348 349 352 352 355 356 358 358 360 360 360 360 364 359 353 352 352 356 361 363 362 363 365 363 367 361 359 363 363
307 305 313 306 309 305 311 314 324 327 328 330 333 336 335 338 336 338 340 345 347 349 351 353 354 358 358 357 361 362 360 361 365 363 360 357 359 355 359 360 360 361 362 364 365 358 362 363 362
310 313 303 306 300 299 306 309 313 323 324 329 331 334 337 338 336 339 342 345 348 349 351 354 356 357 358 357 358 358 359 361 363 365 363 363 362 359 361 360 360 361 362 362 365 360 363 364 359
306 306 307 308 306 301 301 307 324 324 327 329 332 335 337 338 340 339 344 347 348 349 350 352 355 356 356 357 357 359 357 359 362 358 361 364 363 363 362 362 360 360 360 362 365 361 360 361 361
311 308 309 302 303 307 306 308 326 328 328 332 333 336 338 339 340 340 343 346 349 349 349 351 355 355 356 357 358 356 358 358 357 360 361 363 366 367 365 363 361 361 360 362 361 358 356 358 357

GFSSGP_sfc_thetae_123.txt.gz
Theta_e
350 351 350 349 332 329 317 316 322 319 319 324 327 329 329 333 327 321 344 347 349 349 354 358 361 360 361 361 362 364 363 364 363 363 363 362 363 363 363 362 362 362 362 362 362 362 360 359 360
354 351 352 344 326 313 314 319 318 321 324 330 331 332 328 327 335 338 341 348 349 349 352 357 362 360 360 361 362 363 363 363 363 364 364 362 362 363 363 362 361 361 361 362 361 362 359 358 356
353 351 342 335 325 313 314 321 322 323 330 331 333 337 332 330 338 341 347 349 350 352 356 360 361 361 361 361 362 363 362 362 364 363 363 364 362 363 363 362 362 362 362 362 362 362 362 360 357
346 344 344 329 319 321 320 324 325 325 335 335 336 328 335 341 341 345 349 352 351 353 355 360 361 362 362 362 361 362 363 362 362 364 363 363 362 363 362 361 360 360 361 361 361 361 361 360 360
346 339 331 322 320 322 326 327 330 329 332 333 332 328 332 342 347 347 346 346 346 347 354 358 360 360 360 362 361 362 362 361 364 363 364 363 363 363 362 362 360 362 362 361 362 362 361 360 357
340 341 325 316 320 324 327 329 332 332 334 335 331 331 334 344 344 344 345 344 346 346 348 350 359 359 358 358 361 361 362 362 361 362 362 363 364 363 363 362 362 362 362 361 361 361 361 359 356
336 332 322 320 322 324 327 332 329 330 331 330 334 329 336 339 344 345 345 346 349 349 352 355 358 360 361 359 359 362 362 361 362 361 361 362 364 362 362 361 362 362 362 362 361 361 361 361 358
339 335 324 323 321 323 330 333 335 331 329 338 338 328 330 340 344 345 345 345 347 351 353 357 356 355 359 360 359 360 362 362 362 363 363 364 362 362 362 363 361 360 360 360 360 359 360 361 359
340 328 323 322 324 327 335 332 337 340 334 335 336 336 340 343 344 342 342 345 346 347 349 350 352 354 355 355 358 360 361 363 362 362 360 361 359 359 359 362 360 358 357 358 356 357 359 361 360
333 327 326 333 332 330 333 332 334 333 333 332 333 339 342 343 341 339 339 340 343 345 348 350 352 351 354 352 360 359 356 359 360 360 363 363 361 356 353 358 359 358 358 359 360 360 363 361 358
333 327 329 328 334 334 330 331 334 331 329 331 333 335 339 339 339 339 339 342 343 348 348 350 353 357 354 356 358 356 356 356 356 360 363 354 354 355 352 357 356 357 362 355 357 354 353 352 352
325 330 330 329 334 331 329 331 331 333 332 336 338 338 338 337 336 338 339 342 343 345 347 352 355 360 360 352 352 353 353 353 351 355 357 355 352 362 355 351 353 357 354 355 355 351 353 353 354
328 331 331 332 334 335 334 332 330 330 334 337 337 337 336 335 337 340 341 343 345 345 347 351 355 357 359 360 350 350 351 353 352 353 355 354 354 358 356 359 352 357 353 352 353 352 351 351 353
332 332 331 334 334 331 327 326 326 331 335 334 334 334 335 334 337 339 341 343 344 346 347 350 352 357 357 353 356 350 356 351 351 352 357 364 359 360 356 359 352 353 354 353 356 360 352 351 350
330 326 332 331 333 330 332 323 321 330 333 331 333 334 335 335 338 339 342 344 345 346 349 349 352 355 359 355 352 351 350 350 349 355 366 360 359 363 361 353 353 353 356 361 357 359 356 350 349
324 326 322 331 333 331 329 318 324 330 332 330 332 333 334 337 339 342 343 344 346 347 349 349 350 353 354 356 353 349 351 350 350 353 357 359 362 361 363 362 356 357 356 352 352 352 349 350 349
322 315 318 325 332 330 326 320 327 328 331 329 331 332 333 337 340 342 344 345 346 349 351 350 352 353 353 356 354 358 358 351 351 352 353 359 359 360 367 361 357 367 352 353 357 350 355 351 349
314 315 320 323 329 329 325 321 326 332 329 330 331 332 333 335 337 343 343 345 346 349 352 354 351 356 358 356 357 356 353 350 351 355 358 359 358 360 365 357 358 364 357 353 355 364 355 353 352
318 317 315 322 332 328 324 324 327 330 332 332 331 333 332 333 339 342 344 345 346 349 352 355 356 357 358 352 349 350 348 353 354 352 359 361 359 361 363 359 358 362 358 361 361 359 357 350 354
316 316 317 326 330 327 324 322 327 330 329 330 329 330 333 335 338 341 343 344 345 349 351 354 356 358 357 363 359 363 354 362 359 356 357 359 358 361 359 363 362 357 355 363 363 366 358 350 354
315 315 317 319 327 327 323 321 322 327 331 328 330 332 334 338 335 341 343 343 346 347 352 355 358 359 357 359 359 358 365 357 353 357 356 356 358 358 361 361 366 360 364 356 364 363 364 356 353
310 316 318 316 320 314 326 311 321 324 327 328 328 331 332 333 339 339 342 342 344 348 350 355 358 360 359 360 361 363 350 350 353 354 359 357 358 357 360 361 361 363 363 365 360 360 367 368 352
311 317 316 318 317 316 317 312 314 327 324 327 329 330 335 331 338 338 339 343 346 348 348 352 358 360 360 361 362 355 356 358 353 357 360 363 365 359 357 361 361 362 356 364 364 366 370 362 362
317 314 314 315 314 306 313 313 313 322 327 330 330 331 333 331 337 341 341 344 346 347 348 349 355 359 360 361 360 359 357 358 353 354 355 353 354 357 362 360 363 363 364 362 361 365 366 368 367
314 311 304 302 304 304 313 312 317 323 330 333 332 333 334 333 336 336 341 342 346 346 347 349 355 358 359 359 357 359 359 358 356 358 354 360 353 354 364 363 363 361 366 364 367 367 364 364 364
310 311 306 300 302 306 315 308 317 329 332 335 338 337 337 334 337 336 341 342 348 346 347 349 355 357 357 358 360 361 361 356 357 359 355 350 350 355 361 362 362 363 364 363 365 362 359 365 361
309 307 314 307 308 305 308 315 325 328 329 332 333 337 337 336 337 336 340 343 345 346 349 352 355 358 358 356 360 362 361 359 357 361 364 355 360 356 359 363 364 362 363 363 365 358 360 363 362
310 314 305 308 301 300 306 311 305 321 324 329 331 335 336 339 339 339 339 343 345 348 351 353 355 358 358 356 357 357 359 360 360 360 361 361 361 358 361 360 360 361 362 363 366 363 366 363 360
307 307 309 309 308 302 301 309 321 325 327 329 332 335 337 338 341 339 339 343 346 350 352 352 354 357 357 356 357 358 357 358 361 357 359 362 363 363 361 361 361 360 360 362 364 365 363 361 362
312 308 309 304 303 306 305 306 323 327 329 332 333 337 338 339 342 340 340 344 347 348 352 352 355 355 357 358 358 356 357 358 358 359 360 362 363 366 364 362 362 361 360 362 361 359 356 357 357